GFSWCAN_con_mlcape_000.txt.gz
CAPE
0 2 0 0 6 0 4 6 7 10 13 14 15 13 4 7 2 0 0 0 0 0 0 0 0 0 0 1 0 8 72 53 29 0 0 0 0 8 57 68 84 11 5 14 19 5 0 242 69 24 915 897 1138 1025
8 9 0 0 0 1 1 8 14 16 7 1 8 13 12 11 9 1 0 0 0 0 0 0 0 0 0 0 0 0 1 45 40 64 50 63 68 76 91 14 35 9 89 189 353 210 567 1177 1143 1146 940 878 1189 952
19 14 0 7 9 6 0 0 0 1 5 6 7 5 4 4 7 3 0 0 0 0 0 0 0 0 0 0 0 0 0 10 45 19 0 6 55 2 67 31 48 70 46 109 173 193 532 574 734 668 636 671 695 483
0 0 6 8 7 1 9 8 4 4 3 3 4 1 7 7 4 4 0 0 2 0 0 3 0 0 0 0 0 0 0 0 13 16 0 0 0 0 0 4 1 0 60 25 44 153 0 218 610 718 585 494 351 157
0 0 11 5 4 13 13 6 6 4 2 3 2 4 5 3 3 2 1 0 1 1 0 0 0 0 0 0 0 0 0 0 0 0 0 0 0 3 0 0 0 0 6 9 17 163 88 231 928 685 490 320 211 41
0 6 0 4 2 6 4 3 4 3 2 2 1 1 2 3 1 0 3 0 3 3 1 0 0 0 0 0 0 0 0 0 0 0 9 10 39 6 0 0 0 28 7 199 87 257 303 282 208 119 172 133 108 71
2 0 3 8 16 4 5 5 3 2 1 0 0 0 0 0 0 2 1 0 0 3 2 0 5 1 0 0 0 0 0 0 0 5 20 15 33 6 0 0 0 43 22 18 52 0 21 0 65 255 162 125 133 80
2 0 0 3 11 2 3 1 0 0 0 0 0 0 0 0 0 0 0 0 0 1 4 2 0 7 13 15 16 0 0 3 1 11 27 36 50 35 0 0 0 1 1 0 0 11 22 0 444 372 361 215 39 29
2 1 0 4 3 7 3 1 0 0 0 0 0 0 0 0 3 8 0 0 0 7 12 11 0 13 40 18 24 23 36 18 6 2 8 21 37 24 1 0 0 0 0 0 0 0 0 0 149 485 456 447 140 29
2 4 0 2 2 3 2 0 0 0 0 0 0 2 21 20 0 0 0 5 15 3 3 3 1 3 4 16 46 57 49 22 24 12 13 11 11 12 12 0 30 52 0 0 0 11 154 383 273 544 392 311 142 28
1 2 1 1 1 1 2 1 0 0 0 0 4 2 1 0 1 16 13 2 17 20 6 3 4 8 7 8 19 46 77 49 25 20 12 4 9 1 14 15 46 49 1 40 16 57 258 474 664 495 360 258 162 31
0 2 5 2 0 0 0 1 0 0 0 0 0 0 0 6 21 18 21 27 16 14 9 7 27 18 3 15 32 76 58 32 5 13 17 20 9 40 6 14 5 28 11 43 48 89 158 424 805 606 401 253 91 44
2 0 4 0 0 0 0 0 0 0 0 2 9 0 11 10 3 11 8 17 28 13 19 31 36 12 21 14 9 62 51 4 28 52 49 33 101 32 7 7 28 18 2 20 66 29 115 781 908 664 368 115 64 4
3 0 0 0 0 0 0 0 0 0 0 4 0 0 2 7 1 22 18 16 32 29 15 6 15 21 86 30 28 14 20 64 66 14 35 37 156 245 482 62 98 3 2 5 40 180 727 823 723 524 301 85 0 0
3 0 0 0 0 0 0 0 0 0 1 1 5 0 0 10 7 3 1 1 20 17 5 6 7 28 44 28 31 6 17 8 42 72 64 22 4 21 376 559 650 223 15 278 519 751 708 585 290 107 0 0 0 0
4 0 0 0 0 0 0 0 0 0 4 0 0 0 5 13 2 8 3 14 10 5 14 33 10 0 2 14 25 2 26 15 3 72 21 54 15 0 363 624 716 789 887 854 681 409 175 26 0 0 0 0 0 0
0 5 0 0 0 0 0 0 11 2 0 0 0 0 0 1 3 0 0 0 1 7 23 0 1 2 1 5 40 51 52 1 12 38 27 27 48 167 206 360 503 543 460 261 56 10 3 2 1 0 1 1 1 1
5 4 0 0 0 0 6 0 5 0 0 0 0 0 2 5 2 3 12 18 13 26 17 3 3 1 2 3 2 0 0 1 9 5 6 38 60 95 201 108 44 4 3 3 3 1 0 1 1 1 0 0 0 0
10 4 0 0 0 0 3 0 0 0 0 0 0 0 3 13 10 8 19 26 12 0 0 1 0 3 3 7 1 1 0 2 3 5 4 37 125 42 17 7 4 1 0 0 0 0 1 1 1 0 0 0 0 0
5 0 0 0 0 3 0 0 0 0 0 1 0 10 7 13 4 0 0 0 1 1 1 0 1 6 3 1 2 2 1 1 1 1 1 9 6 2 2 2 3 3 3 3 5 3 1 1 1 0 0 0 0 0
4 0 0 0 1 0 0 0 0 0 1 2 16 0 0 0 0 0 3 3 6 10 3 7 1 1 14 1 2 1 0 2 1 0 1 2 3 2 3 3 2 2 0 0 1 5 8 17 7 2 0 7 24 13
3 0 5 0 2 0 0 0 0 1 1 7 1 0 1 1 2 3 8 1 6 4 7 5 8 3 0 1 1 2 1 1 2 1 2 1 3 4 5 5 2 10 11 9 7 18 8 11 13 6 20 23 24 9
0 0 1 0 0 0 0 2 2 7 3 2 1 1 2 3 2 1 2 5 12 8 2 7 1 2 2 2 1 1 1 1 2 5 6 6 9 8 2 1 0 0 1 6 0 0 0 0 0 0 5 2 2 9
0 5 3 5 3 0 0 2 4 1 1 1 0 1 3 3 0 2 0 3 1 2 2 1 1 2 1 1 2 2 2 2 2 2 1 1 1 2 1 0 0 0 0 0 3 0 0 0 0 0 0 0 0 1
0 0 0 0 0 0 1 1 0 1 1 2 1 2 3 4 0 0 0 2 2 2 2 1 0 0 0 1 2 3 2 1 0 1 3 1 1 1 0 0 0 0 0 0 0 0 0 0 0 0 5 1 1 1
0 0 0 1 1 1 0 1 1 1 1 1 2 22 16 1 0 0 0 3 0 0 0 0 0 0 0 0 0 0 0 0 0 1 1 0 0 0 0 0 0 0 0 0 0 0 0 4 5 0 0 0 0 0
0 1 5 5 3 1 1 2 2 1 1 9 20 9 3 0 0 1 2 2 1 0 0 0 0 3 1 2 1 2 1 0 0 0 0 0 1 4 7 13 9 4 11 14 8 5 1 3 4 0 0 0 0 0
2 0 0 2 2 2 1 2 1 3 19 9 2 1 4 0 0 2 2 0 0 0 0 0 0 0 0 0 0 0 0 0 0 0 0 0 0 0 0 0 0 0 0 0 6 7 3 2 0 0 0 0 0 0
0 1 1 0 3 0 13 6 6 2 0 0 1 3 12 1 1 0 0 0 1 0 0 0 0 0 0 0 0 0 0 0 0 0 0 0 0 0 0 0 0 0 0 0 0 0 0 0 0 0 0 0 0 0
9 0 5 8 5 4 9 4 2 8 7 7 8 0 0 2 2 0 1 1 2 0 0 0 0 0 0 0 0 0 0 0 0 0 0 0 0 0 0 0 0 0 0 0 0 0 0 0 0 0 0 6 5 1
10 9 7 6 8 7 12 12 12 10 10 11 17 10 13 2 7 4 4 3 8 9 7 3 0 2 1 0 0 0 0 0 0 0 0 0 0 0 0 0 0 0 0 0 0 0 0 1 4 4 3 1 0 0
12 17 14 15 14 9 27 22 17 8 4 15 21 20 13 30 10 12 11 10 17 12 6 20 15 16 10 5 0 0 0 0 0 0 0 0 0 0 4 3 3 1 1 0 1 5 6 5 4 4 7 7 7 11
29 21 11 15 22 30 23 9 25 38 26 35 26 28 24 28 23 30 15 23 26 23 21 26 23 19 9 19 11 0 0 0 0 0 0 0 0 0 0 0 0 0 0 0 1 4 7 7 6 8 8 11 10 1

GFSWCAN_con_mlcape_003.txt.gz
CAPE
5 2 4 0 1 2 3 7 17 16 6 1 1 7 3 5 2 0 0 0 0 0 0 0 0 0 0 0 0 0 26 29 47 0 0 0 0 0 0 0 14 0 0 0 0 3 0 780 344 211 1222 1105 1031 1039
1 9 20 0 2 5 6 1 1 2 5 5 7 4 4 6 3 0 0 0 0 0 0 0 0 0 0 0 0 2 0 0 55 59 1 0 11 116 130 113 142 24 62 137 104 265 784 924 1092 1084 1332 974 869 948
5 0 0 0 1 0 0 6 9 4 3 5 5 2 2 3 2 3 0 0 0 0 0 0 0 0 0 0 0 0 0 0 0 0 0 0 59 2 36 40 93 0 0 146 148 136 107 316 393 416 871 834 532 397
2 3 0 8 0 0 8 8 2 3 2 3 5 5 1 3 3 4 2 0 0 0 0 0 0 0 0 0 0 0 0 0 0 2 0 0 0 0 0 0 0 0 0 0 21 23 7 2 120 43 0 290 324 277
12 0 0 2 0 0 2 2 2 2 2 4 4 6 4 1 0 2 0 0 0 0 0 0 0 0 0 0 0 0 0 0 0 2 0 0 10 12 0 0 0 0 0 6 9 73 0 50 2 115 80 65 113 143
18 0 1 0 7 6 3 4 6 4 3 2 1 1 4 3 0 0 2 0 0 0 1 0 0 0 0 0 0 0 0 3 30 1 6 24 85 7 0 0 110 123 39 27 2 67 284 93 121 62 7 40 72 71
5 1 1 0 0 4 0 0 1 1 2 1 0 0 0 0 0 0 1 0 0 2 0 0 0 17 0 0 0 0 0 0 2 0 0 0 2 15 0 0 0 0 0 16 0 9 4 16 1 84 80 98 59 34
4 3 2 0 0 2 0 0 0 0 0 0 0 0 0 0 0 0 0 0 0 1 0 1 0 0 3 28 43 0 0 0 0 0 0 0 0 0 0 0 0 0 0 0 0 0 66 40 218 255 151 120 68 29
2 3 3 0 1 1 0 0 0 0 0 0 0 0 0 0 0 3 0 0 0 0 3 7 1 3 4 16 29 21 3 1 0 0 0 0 0 9 5 0 0 0 0 0 0 0 27 3 38 300 125 91 52 40
1 2 3 0 1 1 0 0 0 0 0 0 0 0 1 21 0 0 0 0 2 0 1 0 0 0 4 0 5 4 32 12 0 0 0 0 0 0 0 0 0 0 0 1 0 10 0 0 32 84 134 137 42 42
1 1 3 2 1 2 0 0 0 0 0 0 0 1 0 0 0 0 5 1 10 4 0 0 0 0 2 2 0 10 7 42 0 0 0 3 2 0 0 1 16 15 1 6 0 24 121 9 0 0 0 41 51 16
1 1 1 2 1 0 0 0 0 0 0 0 0 0 0 8 5 6 6 6 11 10 3 1 1 17 3 6 8 7 14 4 0 8 8 0 36 23 56 25 10 28 24 0 0 10 244 145 33 15 256 182 62 27
0 0 0 2 0 0 0 0 0 0 0 0 1 0 10 12 0 5 8 14 9 24 24 13 1 23 6 5 2 0 27 2 37 11 29 42 51 98 151 316 155 40 108 54 0 4 6 417 271 203 250 121 54 3
0 0 0 0 0 0 0 0 0 0 0 0 0 0 0 0 0 4 5 2 0 1 6 0 5 6 0 11 15 2 1 23 8 13 20 12 22 47 59 139 342 258 48 36 7 3 24 507 397 275 231 68 0 0
3 0 0 0 0 0 0 0 0 0 0 4 0 0 0 0 11 2 0 2 9 6 1 0 0 3 7 10 13 1 3 4 17 6 11 22 7 0 0 25 206 166 343 86 5 348 577 413 376 293 86 6 0 0
13 3 0 0 0 0 0 0 0 0 0 0 0 0 0 1 7 7 13 8 10 8 6 13 1 0 0 1 10 4 22 7 2 6 3 3 0 10 1 17 100 0 7 530 555 425 244 61 16 1 0 0 0 0
11 4 0 0 0 0 0 0 1 3 0 0 0 0 0 15 14 1 1 5 22 6 10 4 0 2 1 1 6 30 3 1 2 0 0 0 0 2 13 58 126 95 84 98 58 8 0 0 0 0 0 0 0 0
4 3 0 0 0 0 0 0 3 0 0 0 0 0 0 12 27 22 14 26 10 18 23 1 0 3 1 4 2 0 0 0 0 0 0 0 0 12 67 6 13 0 0 0 0 1 0 1 0 1 0 0 0 0
6 4 0 0 0 0 10 0 0 0 0 0 0 1 5 28 6 0 0 1 10 0 0 1 3 1 3 4 2 0 0 1 2 0 0 0 21 31 10 0 0 1 2 1 1 2 2 3 2 2 2 0 0 0
9 0 0 0 0 0 0 0 0 0 0 1 15 16 0 0 0 0 0 0 0 1 0 0 1 2 3 0 0 1 2 2 2 2 1 2 3 3 3 1 3 2 3 2 2 2 2 1 0 0 0 0 2 2
0 0 0 0 0 0 0 0 1 2 0 3 6 0 0 0 0 0 1 0 7 5 1 4 0 0 11 0 1 1 1 1 2 1 2 2 3 2 2 2 2 2 2 3 2 2 1 0 1 0 0 0 0 0
0 0 0 0 0 0 0 0 0 0 0 9 0 0 0 0 1 0 1 0 5 1 5 2 7 1 0 0 1 1 2 2 2 2 2 1 3 2 4 4 4 10 10 3 0 0 0 0 0 0 0 0 0 3
0 0 2 1 0 0 0 0 2 3 0 0 0 0 1 3 1 0 2 3 1 1 3 8 4 1 0 1 1 1 0 2 4 5 5 3 1 3 4 3 0 0 0 0 0 0 0 0 2 10 4 0 6 6
0 0 3 6 1 0 0 3 0 1 1 0 0 0 1 2 0 1 0 1 2 1 1 1 1 1 1 1 2 2 2 1 1 1 1 0 0 1 0 0 0 0 0 0 0 0 0 0 0 0 0 0 0 0
0 0 0 0 0 0 0 0 0 1 0 1 2 1 2 1 0 0 0 1 0 0 0 0 1 1 1 2 2 2 2 0 1 0 2 0 0 1 0 0 0 0 0 0 0 0 0 0 0 0 0 0 0 0
0 0 0 0 2 0 1 1 1 0 0 2 3 5 2 0 0 0 0 0 0 0 0 1 7 11 0 1 1 2 2 1 0 1 1 0 0 0 0 0 0 0 0 0 0 0 0 0 0 0 0 0 0 0
0 1 2 1 2 2 1 2 2 1 0 4 3 4 1 0 0 1 0 0 0 0 1 4 23 18 8 0 0 0 0 0 0 0 0 1 2 9 10 10 6 5 11 15 7 4 0 0 0 0 0 0 0 0
2 1 0 1 2 2 0 0 3 4 7 2 1 1 1 0 0 0 0 0 0 0 0 0 0 0 0 0 0 0 5 1 0 0 1 3 2 2 0 0 0 0 1 7 11 11 2 0 0 0 0 0 0 0
0 0 1 0 1 1 8 6 5 3 2 0 0 0 0 0 0 0 0 0 4 11 5 0 0 0 0 0 0 0 0 0 0 0 0 0 0 0 0 0 0 0 0 0 0 0 0 0 0 0 0 0 1 2
1 0 3 4 2 3 9 6 1 10 16 7 3 3 0 2 1 0 0 2 13 25 10 0 0 0 0 0 0 0 0 0 0 0 0 0 0 0 0 0 0 0 0 0 0 0 0 0 0 0 0 1 0 0
5 8 1 0 0 5 16 22 15 7 6 11 5 0 4 13 13 10 13 14 18 8 4 0 1 2 0 0 0 0 0 0 0 0 0 0 0 0 0 0 0 0 0 0 0 0 1 4 2 1 4 6 13 9
17 22 3 2 3 6 6 4 7 17 13 6 2 8 12 1 7 21 34 19 14 11 6 9 13 4 0 0 0 0 0 0 0 0 0 0 0 0 0 0 0 0 0 0 1 0 0 0 0 0 0 1 0 0
23 16 9 3 5 12 24 24 34 27 16 23 24 30 29 22 12 12 14 25 20 25 23 23 16 16 16 3 0 0 0 0 0 0 0 0 0 0 0 0 0 0 0 0 0 0 0 0 0 0 0 0 0 0

GFSWCAN_con_mlcape_006.txt.gz
CAPE
20 23 17 17 9 3 2 3 0 0 5 9 1 1 2 3 2 0 0 0 0 0 0 0 0 0 0 0 0 0 12 9 17 0 0 0 0 0 0 0 0 0 0 0 0 0 0 412 388 267 772 1030 650 116
0 14 0 1 0 7 1 0 6 3 5 4 2 1 1 2 2 0 0 0 0 0 0 0 0 0 0 0 0 0 0 0 36 2 0 0 0 0 4 0 0 0 0 0 35 31 113 231 559 843 757 848 698 341
20 0 0 0 3 5 0 9 11 6 7 5 4 4 3 1 1 1 0 0 0 0 0 0 0 0 0 0 0 0 0 0 0 0 0 0 10 0 8 0 12 5 7 75 60 11 25 9 340 449 400 434 582 362
16 1 5 0 7 0 2 4 7 8 8 2 2 4 3 2 1 1 0 0 0 0 0 0 0 0 0 0 0 0 0 0 0 0 0 0 0 0 0 0 0 0 12 0 31 0 24 52 17 0 0 1 58 186
0 3 2 0 2 4 0 8 5 10 9 6 6 5 4 5 6 1 0 0 0 0 0 0 0 0 0 0 0 0 0 0 0 0 0 0 0 1 0 0 0 0 0 0 1 38 15 19 121 48 0 24 58 60
0 7 1 0 0 6 10 1 1 3 4 5 4 2 1 2 2 0 0 0 0 0 0 0 0 0 0 0 0 0 0 0 0 0 0 0 0 7 0 0 99 57 6 17 40 132 92 38 3 63 88 80 77 111
0 5 4 3 0 0 6 2 2 3 2 1 0 0 0 0 0 0 0 0 0 0 1 0 0 0 1 0 0 0 0 0 0 0 0 0 51 50 0 0 18 0 12 0 6 15 1 64 97 94 63 23 7 0
0 2 0 3 0 0 3 1 1 0 0 0 0 0 0 0 0 0 0 0 0 0 1 0 0 1 8 30 37 0 0 0 0 0 0 0 0 37 0 0 0 0 36 16 0 1 36 65 107 137 44 25 9 1
0 0 0 1 0 0 1 1 1 0 0 0 0 0 0 0 0 0 0 0 0 0 1 0 0 2 0 2 23 96 53 11 0 0 0 0 0 0 0 0 0 0 0 0 0 0 3 91 173 143 62 30 7 0
3 0 0 0 2 0 1 1 0 0 0 0 0 0 10 7 1 0 0 0 2 0 1 0 0 0 0 0 8 17 15 3 10 0 0 0 0 0 0 0 0 0 0 0 0 0 0 0 14 180 107 52 34 2
8 0 0 0 1 1 1 0 0 0 0 0 0 4 0 5 0 0 1 0 0 0 0 0 0 0 0 0 0 0 3 1 20 3 0 0 0 0 0 0 0 0 5 6 6 9 15 0 11 89 139 100 32 28
9 0 1 0 1 1 0 0 0 0 0 0 0 0 0 0 0 2 0 0 0 7 4 0 4 0 0 0 0 0 0 0 0 1 7 0 18 43 58 90 143 84 21 25 7 25 15 55 21 90 165 78 51 51
9 0 0 0 0 0 0 0 0 0 0 0 0 0 0 1 0 1 9 15 7 13 20 8 0 2 0 0 1 0 0 0 0 10 29 17 15 10 0 1 55 119 87 33 28 32 77 141 29 34 106 86 57 44
6 0 0 0 0 0 0 0 0 0 0 0 0 0 0 0 0 0 0 0 0 0 0 1 2 0 0 0 0 1 0 0 0 0 8 0 0 0 0 0 18 104 125 66 32 15 69 184 194 191 102 123 80 35
6 0 0 0 0 0 0 0 0 0 0 0 2 0 0 0 0 0 0 1 5 0 0 0 0 1 0 1 4 2 0 2 2 0 1 6 0 0 0 0 0 24 29 124 35 1 94 240 155 75 60 31 4 0
8 5 0 0 0 0 0 0 0 0 0 0 0 0 0 0 2 3 5 1 0 1 4 1 0 0 0 0 3 1 3 5 2 5 0 0 0 0 0 0 1 5 30 208 104 38 133 165 50 8 0 0 0 0
5 0 0 0 0 0 0 0 0 0 0 0 0 0 0 0 3 0 0 1 1 0 0 0 0 1 0 1 0 18 3 0 0 0 0 0 0 0 0 8 24 0 0 12 3 1 0 0 0 0 0 0 0 0
0 0 0 0 0 0 0 0 0 0 0 0 0 0 1 42 30 9 3 13 17 14 16 2 0 3 1 1 1 1 0 0 0 0 0 0 0 0 18 10 2 0 1 1 0 0 0 0 0 1 0 0 0 0
0 0 0 0 0 0 0 0 0 0 0 0 0 14 30 4 0 0 0 0 0 0 0 0 0 3 0 3 1 0 0 1 1 1 2 0 2 1 1 0 0 0 0 0 0 1 2 1 1 0 1 1 1 2
9 0 0 0 0 0 0 0 0 0 0 0 4 0 0 0 0 0 0 0 0 0 0 0 0 2 2 1 0 0 0 2 2 1 2 2 3 1 2 3 3 2 2 3 3 2 2 2 2 1 0 0 0 1
0 0 0 0 0 0 0 0 0 0 0 0 0 0 0 0 0 0 1 0 2 1 0 0 0 0 2 0 0 1 1 2 1 1 2 2 2 2 3 3 3 2 2 2 2 2 1 0 0 0 0 0 2 3
0 0 0 0 0 0 0 0 0 0 0 0 0 0 0 0 2 1 1 0 1 0 0 2 2 3 1 0 0 1 2 2 2 3 2 1 3 5 6 6 3 3 2 1 0 0 0 0 0 0 0 0 0 0
0 0 0 0 0 0 0 0 0 1 0 0 0 1 2 4 1 0 0 2 0 0 1 1 1 0 0 1 1 3 3 1 2 2 3 6 6 2 2 0 0 0 0 0 0 0 0 0 2 1 1 3 2 0
0 0 0 1 0 0 0 1 0 2 1 1 1 0 2 4 1 1 0 0 0 1 1 5 0 2 1 1 2 2 2 0 1 0 0 0 0 0 0 0 0 0 0 0 0 0 0 0 0 0 0 0 0 0
0 0 0 0 0 0 0 1 1 0 0 1 1 1 2 1 0 0 0 0 0 0 0 1 1 0 1 2 2 2 0 0 0 0 1 0 0 0 0 0 0 0 0 0 0 0 0 0 0 0 0 0 0 0
0 0 0 0 0 1 2 1 0 0 1 2 2 4 3 1 0 0 0 0 0 0 3 6 1 1 3 3 1 2 1 0 0 0 0 0 0 0 0 0 0 0 0 0 0 0 0 0 0 0 0 0 0 0
0 1 1 0 1 1 0 1 1 0 0 1 2 1 0 0 0 0 0 0 0 0 4 8 33 5 1 1 0 0 0 0 0 0 0 0 1 2 1 0 1 5 2 3 1 0 0 0 0 0 0 0 0 0
1 0 0 2 2 2 0 0 0 0 6 0 0 0 0 0 0 0 0 0 0 0 0 3 9 4 0 0 0 0 0 0 0 0 0 1 0 0 0 0 1 0 0 0 0 0 0 0 0 0 0 0 0 0
0 0 1 0 0 0 6 5 8 0 0 0 0 0 0 0 0 0 0 0 0 0 0 0 0 0 0 6 5 0 0 0 0 0 0 0 0 0 0 0 0 0 0 0 0 0 0 0 0 0 0 0 1 0
0 0 2 8 1 1 9 9 1 7 0 0 0 0 0 0 0 0 0 0 0 0 0 0 0 0 0 0 0 0 0 0 0 0 0 0 0 0 0 0 0 0 0 0 0 0 0 0 0 0 0 0 0 0
2 10 10 1 0 4 8 23 29 25 20 13 12 2 0 0 1 0 1 0 0 0 0 0 0 0 0 0 0 0 0 0 0 0 0 0 0 0 0 0 0 0 0 0 0 0 1 0 0 0 0 0 0 0
16 6 0 0 1 3 12 18 16 10 8 3 4 0 0 0 1 17 4 0 0 0 0 0 0 0 0 0 0 0 0 0 0 0 0 0 0 0 0 0 0 0 0 0 0 0 0 0 0 0 0 0 0 0
8 0 0 2 4 14 30 19 12 19 11 26 28 14 5 1 2 13 16 17 13 11 8 1 0 0 0 0 0 0 0 0 0 0 0 0 0 0 0 0 0 0 0 0 0 0 0 0 0 0 0 0 0 0

GFSWCAN_con_mlcape_009.txt.gz
CAPE
14 2 0 0 6 1 4 2 5 12 4 2 1 1 0 1 2 0 0 0 0 0 0 0 0 0 0 0 0 0 0 0 7 0 0 0 0 0 0 0 0 0 0 0 0 0 0 381 334 158 709 825 112 439
8 3 2 0 0 1 1 0 16 11 3 6 3 0 0 2 2 0 0 0 0 0 0 0 0 0 0 0 0 0 0 0 0 0 0 0 8 0 0 0 0 0 0 0 0 0 251 337 725 796 881 758 317 316
15 18 6 0 0 4 1 1 10 10 15 10 5 3 1 2 0 0 0 0 0 0 0 0 0 0 0 0 0 0 0 0 0 0 0 0 4 1 1 0 0 0 5 95 1 43 68 400 441 485 740 754 427 231
3 2 1 2 0 3 1 1 12 13 12 7 2 1 3 2 4 0 0 0 0 0 0 0 0 0 0 0 0 0 0 0 0 0 0 0 0 0 1 6 0 0 3 41 48 40 61 259 122 148 485 538 456 263
10 0 0 7 0 1 4 6 7 4 7 2 5 6 5 6 1 0 0 0 0 0 0 0 0 0 0 0 0 0 0 0 0 0 0 0 0 0 0 0 12 0 10 38 50 57 15 103 40 9 8 42 83 11
15 0 0 8 1 1 2 3 8 7 3 4 2 2 1 2 2 0 0 0 0 0 0 0 0 0 0 0 0 0 0 0 0 0 0 0 0 0 0 0 61 56 46 55 82 144 113 130 138 89 97 170 90 48
7 1 1 4 3 1 0 2 4 3 2 1 0 0 0 0 0 0 0 0 0 0 0 0 0 0 0 0 0 0 0 0 0 0 0 0 17 20 0 0 14 49 102 110 155 138 75 90 8 204 159 71 32 1
5 3 2 1 2 1 0 1 2 2 0 0 0 0 0 0 0 0 0 0 0 0 0 0 0 0 0 0 5 0 0 0 0 0 0 1 0 12 0 0 0 0 1 126 119 67 16 18 71 209 78 26 22 0
5 5 2 1 1 2 1 1 2 0 0 0 0 0 0 0 0 0 0 0 0 0 0 0 0 1 0 0 0 15 0 0 0 0 0 0 0 0 0 0 0 1 13 77 23 20 31 112 166 188 99 46 37 6
4 9 2 0 0 2 2 2 1 0 0 0 0 0 8 0 0 0 0 0 0 0 0 0 0 0 0 0 0 0 0 4 25 0 0 0 0 0 0 0 0 0 32 0 0 0 0 2 79 142 102 84 60 12
5 3 1 0 0 1 3 2 0 0 0 0 0 0 0 0 0 0 1 0 0 0 0 0 0 0 0 0 0 0 0 0 1 8 1 0 0 6 0 0 2 4 0 0 0 0 0 0 0 13 79 58 34 21
7 4 1 0 0 0 2 0 0 0 0 0 1 0 0 0 0 0 0 0 0 6 5 0 7 0 0 0 0 0 0 0 0 0 27 3 25 0 0 0 0 20 35 13 0 0 0 7 0 0 32 39 36 3
6 4 0 0 0 0 1 0 0 0 0 0 0 0 0 1 0 0 2 14 3 11 13 9 0 2 0 0 0 0 0 0 0 13 30 11 0 0 0 0 0 0 10 33 15 0 0 13 3 58 95 62 23 21
3 1 0 0 0 0 0 0 0 0 0 0 0 0 0 0 0 0 0 2 3 2 0 0 2 1 0 0 3 4 0 0 5 8 0 0 0 0 0 0 0 0 3 27 60 2 15 5 42 151 154 97 54 27
0 0 0 0 0 0 0 0 0 0 0 0 0 0 0 0 0 0 0 0 1 0 0 0 0 0 0 0 5 4 0 0 1 1 1 11 0 0 0 0 0 0 16 24 90 24 53 77 86 60 46 28 27 8
1 0 0 0 0 0 0 0 0 0 0 0 0 0 0 0 0 1 0 2 1 0 0 0 0 0 0 0 1 1 0 7 2 0 0 0 0 0 0 0 0 0 1 15 28 31 110 193 88 9 2 0 0 0
0 0 0 0 0 0 0 0 0 0 0 0 0 0 0 0 0 0 4 22 15 3 0 0 0 0 0 1 0 7 1 0 0 0 0 0 0 0 0 0 2 0 0 0 49 109 66 1 0 0 0 0 0 0
0 0 0 0 0 0 0 0 0 0 0 0 0 0 0 0 6 2 0 0 0 5 15 4 0 2 0 1 1 1 0 0 0 1 1 1 1 0 1 3 2 3 0 1 2 1 1 0 0 0 0 0 0 0
0 0 0 0 0 0 0 0 0 0 0 0 0 0 4 0 0 0 0 1 0 0 0 1 0 0 3 1 0 0 0 1 1 0 2 1 1 0 2 1 2 2 1 1 2 3 3 3 2 1 1 1 0 1
0 0 0 0 0 0 0 0 0 0 0 0 0 0 0 0 0 0 0 0 0 0 0 1 1 2 2 1 0 1 1 1 2 1 2 2 2 2 2 1 1 3 3 2 2 2 2 2 1 1 1 1 1 1
0 0 0 0 0 0 0 0 0 0 0 0 0 0 0 0 0 1 1 0 0 0 0 0 0 0 0 0 0 1 0 1 1 1 2 2 3 3 3 2 2 2 2 2 0 1 0 1 1 0 0 0 0 0
0 0 0 0 0 0 0 0 0 0 0 0 0 0 0 1 1 1 1 0 0 0 0 1 0 0 0 0 0 3 3 2 2 3 3 2 3 3 3 2 2 2 2 1 0 0 0 0 0 0 0 0 1 1
0 0 0 0 0 0 0 0 0 0 0 1 0 1 1 3 2 0 1 1 0 0 1 0 0 0 0 1 2 1 1 0 2 3 3 2 2 1 1 0 0 0 0 0 0 0 0 0 0 0 0 0 3 8
0 0 0 0 0 0 0 0 0 1 1 1 1 0 1 2 0 1 0 2 0 1 1 1 1 2 2 1 3 3 2 1 1 1 1 0 1 2 1 1 0 0 0 0 0 0 0 0 0 0 0 0 0 0
0 0 0 0 0 0 0 0 1 1 0 2 0 0 0 1 0 0 0 0 0 1 1 1 1 2 1 1 2 1 1 0 0 0 1 0 0 0 0 0 0 0 0 0 0 0 0 0 0 0 0 0 0 0
0 0 0 0 0 1 0 0 0 1 2 1 1 2 1 1 0 0 1 0 0 0 0 0 1 6 3 0 1 0 0 0 0 0 0 0 0 0 0 0 0 0 0 0 0 0 0 0 0 0 0 0 0 0
1 1 1 0 1 1 1 1 1 0 0 1 1 1 0 0 0 0 0 0 0 0 0 0 0 0 0 1 0 0 0 0 0 0 0 0 0 0 0 0 0 0 0 0 0 0 0 0 0 0 0 0 0 0
1 0 0 1 1 1 0 0 0 0 0 0 0 0 0 0 1 0 0 0 0 0 0 0 0 0 0 0 0 0 0 0 0 0 0 0 0 0 0 0 0 0 0 0 0 0 0 0 0 0 0 0 0 0
0 0 0 0 0 0 8 1 0 0 0 0 0 0 0 0 0 0 0 0 0 0 0 0 0 0 0 0 0 0 0 0 0 0 0 0 0 0 0 0 0 0 0 0 0 0 0 0 0 0 0 0 0 0
4 0 2 0 0 0 0 1 0 1 0 0 0 0 0 0 0 0 0 0 0 0 0 0 0 0 0 0 0 0 0 0 0 0 0 0 0 0 0 0 0 0 0 0 0 0 0 0 0 0 0 0 0 0
4 0 2 4 1 2 6 10 8 3 1 0 0 0 0 0 0 0 0 0 0 0 0 0 0 0 0 0 0 0 0 0 0 0 0 0 0 0 0 0 0 0 0 0 0 0 0 0 0 0 0 0 0 0
11 5 2 1 15 4 0 0 0 0 0 0 0 0 0 0 0 0 0 0 0 0 0 0 0 0 0 0 0 0 0 0 0 0 0 0 0 0 0 0 0 0 0 0 0 0 0 0 0 0 0 0 0 0
0 0 0 0 13 16 13 16 20 20 4 2 3 2 1 2 0 6 2 0 0 0 0 0 0 0 0 0 0 0 0 0 0 0 0 0 0 0 0 0 0 0 0 0 0 0 0 0 0 0 0 0 0 0

GFSWCAN_con_mlcape_012.txt.gz
CAPE
26 14 0 12 0 0 2 6 3 8 6 2 3 1 0 1 2 0 0 0 0 0 0 0 0 0 0 0 0 0 0 0 0 0 0 0 0 0 0 0 0 0 0 0 0 0 0 180 400 92 248 799 526 432
19 4 2 2 0 1 7 6 7 9 10 10 7 3 2 4 1 0 0 0 0 0 0 0 0 0 0 0 0 0 0 0 0 0 0 0 2 1 0 0 0 0 0 0 0 0 46 376 506 681 752 751 322 471
15 26 24 17 1 0 10 4 6 19 6 11 8 2 1 3 5 1 0 0 0 0 0 0 0 0 0 0 0 0 0 0 0 0 0 0 0 0 15 15 26 1 33 30 0 44 132 404 423 297 595 676 296 432
21 6 1 0 2 1 6 10 12 10 4 6 1 1 3 1 2 4 0 0 0 0 0 0 0 0 0 0 0 0 0 0 0 0 0 0 0 0 0 3 0 6 19 45 38 58 112 175 173 334 528 303 140 77
7 9 8 2 6 6 5 8 17 14 5 0 4 5 6 7 4 1 0 0 0 0 0 0 0 0 0 0 0 0 0 0 0 0 0 0 0 0 0 0 0 12 37 94 60 47 46 57 74 212 405 311 132 100
12 11 4 2 7 6 5 3 4 8 4 4 3 3 2 2 2 0 0 0 0 0 0 0 0 0 0 0 0 0 0 0 0 0 0 0 0 0 0 0 0 31 41 14 79 89 49 44 130 91 49 73 91 30
13 0 0 0 7 6 5 1 1 3 2 2 1 0 0 1 0 0 0 0 0 0 0 0 0 0 0 0 0 0 0 0 0 0 0 0 0 0 0 0 2 0 0 75 133 56 94 135 31 144 115 91 7 0
14 3 1 0 3 4 4 1 1 1 1 0 0 0 0 0 0 0 0 0 0 0 0 0 0 0 0 0 1 0 0 0 0 0 0 0 0 0 0 0 0 0 0 0 102 73 9 7 64 65 8 17 24 3
6 5 2 1 0 1 2 3 1 1 0 0 0 0 0 0 0 0 0 0 0 0 0 0 0 0 0 0 0 0 0 0 0 0 0 0 0 0 0 5 0 0 0 0 19 33 13 5 71 101 100 50 51 4
7 4 6 2 0 0 2 2 1 0 0 0 0 0 3 0 0 0 0 0 0 0 0 0 0 0 0 0 0 0 0 0 0 0 0 0 0 0 32 3 1 0 0 0 2 0 0 0 0 52 123 87 48 13
7 2 3 5 0 0 0 2 0 0 0 0 0 0 0 0 0 0 1 0 0 0 0 0 0 0 0 0 0 0 0 0 0 0 0 0 2 27 2 0 0 0 0 0 0 0 0 0 0 4 97 114 48 10
0 1 0 3 0 0 0 0 0 0 0 0 0 1 0 0 1 0 0 0 0 4 7 0 6 0 0 0 0 0 0 0 0 0 5 3 16 0 0 0 0 0 0 7 1 0 0 0 0 0 31 36 49 21
5 0 3 3 0 0 0 0 0 0 0 0 0 0 0 0 0 0 1 1 1 6 30 15 0 0 0 0 0 0 0 0 0 17 30 51 4 2 0 0 0 0 0 0 0 0 0 0 0 0 0 7 20 21
4 0 2 0 0 0 0 0 0 0 0 0 0 0 0 0 0 0 0 0 2 8 3 0 0 0 0 0 0 1 0 0 2 7 10 2 0 0 0 0 0 0 0 0 0 18 1 0 1 20 44 36 68 45
3 0 2 0 0 0 0 0 0 0 0 0 0 0 0 0 0 0 0 0 0 0 0 0 0 0 0 0 4 11 2 0 7 1 4 5 0 0 0 0 0 0 0 0 0 23 0 14 50 96 106 81 62 12
3 5 0 0 0 0 0 0 0 0 0 0 0 0 0 0 0 0 0 0 0 0 0 0 0 0 0 0 4 8 4 6 4 3 0 0 0 0 0 0 0 0 1 0 0 1 44 77 76 56 27 25 19 9
0 0 0 0 0 0 0 0 0 0 0 0 0 0 0 0 0 0 0 4 0 10 2 0 0 0 0 0 0 14 7 1 1 0 0 0 1 1 1 1 1 0 2 1 2 40 50 18 17 0 0 1 0 0
0 0 0 0 0 0 0 0 0 0 0 0 0 0 0 0 2 0 0 0 0 0 7 1 8 0 0 0 0 0 0 0 0 1 1 1 1 1 1 2 0 1 2 1 1 0 0 0 0 0 0 1 0 0
0 0 0 0 0 0 0 0 0 0 0 0 0 0 0 0 0 0 0 1 0 0 0 0 0 0 0 0 0 0 0 0 1 1 1 0 1 2 1 2 2 1 0 1 1 0 0 1 0 0 1 0 1 1
0 0 0 0 0 0 0 0 0 0 0 0 0 0 0 0 0 1 4 0 0 9 1 0 1 0 0 0 0 0 1 1 1 1 2 2 2 2 2 2 2 2 2 2 1 2 2 1 1 2 2 1 1 2
0 0 0 0 0 0 0 0 0 0 0 0 0 0 0 0 1 0 1 0 1 1 0 0 0 0 0 0 0 1 1 1 2 1 2 2 3 2 2 2 2 2 2 1 0 0 0 0 1 1 1 1 0 0
0 0 0 0 0 0 0 0 0 0 0 0 0 0 0 1 1 1 1 1 0 0 0 0 0 0 0 0 0 4 4 4 2 1 2 1 2 1 2 2 1 1 1 1 1 1 1 1 1 0 0 1 3 2
0 0 0 0 0 0 0 0 0 0 0 0 0 1 2 2 1 0 1 1 0 0 0 1 0 0 0 1 1 1 1 2 3 3 2 2 2 1 1 0 0 0 0 0 0 0 0 0 0 0 0 2 6 2
0 0 0 0 0 0 0 0 0 2 1 0 1 1 1 2 1 1 0 1 0 1 1 2 3 4 2 2 1 1 1 1 1 1 1 1 1 0 0 0 0 0 0 0 0 0 0 0 1 2 3 1 0 0
0 0 0 0 0 0 0 0 0 0 0 1 0 0 1 3 0 0 0 0 2 1 0 2 7 3 1 2 1 1 0 0 0 1 1 0 0 0 0 0 0 0 0 0 0 0 0 0 0 0 0 0 0 0
0 0 0 0 0 0 0 0 0 0 0 1 0 1 2 2 0 0 0 0 1 0 0 2 2 1 2 1 1 1 0 0 0 0 0 0 0 0 0 0 0 0 0 0 0 0 0 0 0 0 0 0 0 0
0 1 1 0 1 1 1 1 1 0 1 0 0 0 0 0 0 1 0 0 0 1 0 1 2 0 0 0 0 0 0 0 0 0 0 0 0 0 0 0 0 0 0 0 0 0 0 0 0 0 0 0 0 0
0 0 0 1 1 1 0 1 0 1 1 0 0 0 0 0 0 0 2 1 0 0 0 0 0 0 0 0 0 0 0 0 0 0 0 0 0 0 0 0 0 0 0 0 0 0 0 0 0 0 0 0 0 0
0 0 0 0 0 0 0 0 0 0 0 0 0 0 0 0 0 0 0 0 0 0 0 0 0 0 0 0 0 0 0 0 0 0 0 0 0 0 0 0 0 0 0 0 0 0 0 0 0 0 0 0 0 0
0 0 0 0 0 0 0 0 0 0 0 0 0 0 0 0 0 0 0 0 0 0 0 0 0 0 0 0 0 0 0 0 0 0 0 0 0 0 0 0 0 0 0 0 0 0 0 0 0 0 0 0 0 0
15 2 0 7 10 4 0 0 0 0 0 0 0 0 0 0 0 0 0 0 0 0 0 0 0 0 0 0 0 0 0 0 0 0 0 0 0 0 0 0 0 0 0 0 0 0 0 0 0 0 0 0 0 0
15 4 4 4 1 0 0 0 0 0 0 0 0 0 0 0 0 0 0 0 0 0 0 0 0 0 0 0 0 0 0 0 0 0 0 0 0 0 0 0 0 0 0 0 0 0 0 0 0 0 0 0 0 0
0 1 1 1 6 5 1 1 1 4 0 0 0 0 0 0 0 0 0 0 0 0 0 0 0 0 0 0 0 0 0 0 0 0 0 0 0 0 0 0 0 0 0 0 0 0 0 0 0 0 0 0 0 0

GFSWCAN_con_mlcape_015.txt.gz
CAPE
31 21 11 5 8 1 0 7 0 12 2 3 6 5 5 4 2 0 0 0 0 0 0 0 0 0 0 0 0 0 0 0 0 0 0 0 0 0 0 0 0 0 0 0 0 0 4 215 664 255 484 1105 965 883
29 13 8 11 14 3 0 7 0 10 13 7 7 3 6 5 3 0 0 0 0 0 0 0 0 0 0 0 0 0 0 0 0 0 0 0 0 1 0 0 0 0 0 0 0 0 0 373 552 635 721 904 807 867
24 7 25 26 25 1 0 1 2 12 9 9 2 1 0 1 3 3 0 0 0 0 0 0 0 0 0 0 0 0 0 0 0 0 0 0 0 0 26 28 23 15 54 60 21 18 72 414 624 459 623 970 782 760
16 25 13 1 0 6 4 0 0 16 10 3 1 3 2 4 3 4 1 0 0 0 0 0 0 0 0 0 0 0 0 0 0 0 0 0 0 0 1 6 5 21 48 87 61 62 96 282 431 426 587 432 401 494
12 7 9 4 5 11 10 4 0 1 11 7 1 2 3 4 4 0 0 0 0 0 0 0 0 0 0 0 0 0 0 0 0 0 0 0 0 0 0 0 4 18 73 60 67 88 164 160 137 218 498 383 186 220
12 5 7 10 2 3 7 3 0 0 4 4 5 5 3 0 3 0 0 0 0 0 0 0 0 0 0 0 0 0 0 0 0 0 0 0 0 1 11 35 0 15 1 41 102 76 165 169 264 206 118 153 156 123
9 9 8 4 0 5 2 3 0 0 1 3 3 2 0 0 0 0 0 0 0 0 0 0 0 0 0 0 0 0 0 0 0 0 0 0 0 0 1 1 8 0 0 0 14 70 187 181 137 208 221 104 19 3
4 2 11 7 0 2 0 1 0 0 2 1 0 0 0 0 0 0 0 0 0 0 0 0 0 0 0 3 9 0 0 0 0 0 0 0 0 17 0 1 0 0 0 0 0 32 37 22 130 144 116 113 104 72
5 1 12 2 1 0 0 0 1 1 0 0 0 0 0 0 0 0 0 0 0 0 0 0 0 4 0 0 0 10 0 0 0 0 0 0 0 5 2 0 0 6 0 0 0 21 75 42 54 108 126 44 70 73
0 0 4 3 2 0 0 0 1 0 0 0 0 0 0 0 0 0 0 0 0 1 0 0 0 0 0 0 0 0 0 2 0 0 0 0 0 4 33 16 0 0 7 7 0 67 85 0 10 66 91 252 222 166
1 1 4 7 5 0 0 0 0 0 0 0 0 1 0 0 1 2 1 0 0 0 0 0 0 0 0 1 2 0 0 2 9 0 0 1 0 24 0 11 2 2 0 0 11 1 0 0 0 0 77 296 276 211
3 3 4 9 1 0 0 0 0 0 0 0 1 0 0 0 2 1 0 0 0 6 12 7 10 0 0 0 4 0 0 1 5 0 1 1 3 25 1 2 3 3 0 0 3 21 2 0 0 0 4 238 327 206
2 1 3 6 0 0 0 0 0 0 0 1 0 0 0 0 0 0 0 2 4 14 23 27 3 6 1 0 4 0 0 3 0 0 15 16 15 5 0 0 0 0 0 0 0 15 27 6 0 0 2 88 234 146
1 6 0 2 0 0 0 0 0 0 0 0 0 0 0 0 0 0 3 2 2 8 12 0 2 0 0 4 10 2 5 0 3 2 6 2 0 0 0 0 0 0 0 0 0 0 17 36 0 0 1 44 66 131
4 4 0 0 0 0 0 0 0 0 0 0 0 0 0 0 0 0 0 0 0 0 0 0 0 0 0 1 6 5 11 2 7 0 1 3 2 0 0 1 1 0 1 0 0 0 19 26 35 68 113 185 221 169
1 7 2 0 0 0 0 0 0 0 0 0 0 0 0 0 0 0 2 1 1 3 0 0 0 0 1 1 5 6 13 6 2 3 3 0 1 0 2 2 1 2 2 2 1 5 39 110 83 93 116 121 119 101
0 0 0 0 0 0 0 0 0 0 0 0 0 0 0 0 0 0 3 3 0 4 0 4 1 0 0 1 3 1 12 0 1 0 0 2 1 1 3 2 1 2 1 2 3 12 11 21 49 39 12 9 10 15
0 0 0 0 0 0 0 0 0 0 0 0 0 0 0 0 3 0 0 0 0 0 1 6 14 1 0 0 1 6 0 0 0 0 2 2 2 2 1 1 2 2 3 3 2 2 14 13 9 0 1 3 3 2
0 0 0 0 0 0 0 0 0 0 0 0 0 0 0 0 0 0 0 1 2 0 0 1 0 0 0 1 0 0 0 0 0 0 2 0 1 2 2 2 2 1 1 1 1 0 0 1 0 1 2 0 3 2
0 0 0 0 0 0 0 0 0 0 0 0 0 0 0 0 0 7 3 2 0 4 5 0 0 3 1 0 0 0 0 1 2 1 2 2 2 2 2 2 2 2 2 2 2 2 2 1 0 2 0 2 1 1
0 0 0 0 0 0 0 0 0 0 0 0 0 0 0 0 3 0 1 0 0 1 2 0 0 0 0 0 0 1 0 1 1 3 1 2 2 2 2 2 2 2 2 2 2 2 2 1 2 2 2 3 3 1
0 0 0 0 0 0 0 0 0 0 0 0 0 0 0 2 0 1 0 1 1 0 0 0 0 0 0 0 0 3 2 1 1 1 0 0 1 1 1 2 1 1 2 2 2 1 2 2 1 1 0 0 0 0
0 0 0 0 0 0 0 0 0 0 0 1 0 1 1 1 2 0 2 0 0 0 0 1 0 0 0 1 3 2 2 2 2 2 2 2 2 2 1 1 1 1 1 2 1 2 1 1 3 2 1 1 1 0
0 0 0 0 0 0 0 0 0 1 1 1 0 0 0 2 1 2 0 0 0 1 2 3 6 10 12 2 2 2 3 1 2 2 2 1 1 1 0 0 0 0 0 0 0 0 1 1 0 0 0 0 0 0
0 0 0 0 0 0 0 1 0 1 0 2 0 0 1 3 0 0 0 0 2 0 11 9 11 3 1 2 2 1 0 0 1 0 1 0 0 0 0 0 0 0 2 0 0 0 0 0 0 0 0 0 0 0
0 0 0 0 0 0 1 0 0 0 1 0 1 3 2 1 0 0 1 1 1 0 4 13 2 3 1 1 1 0 0 0 0 0 0 0 0 0 0 0 0 0 0 0 0 0 0 0 0 0 0 0 0 0
0 0 1 0 1 2 1 0 1 0 1 1 1 1 0 0 0 0 1 1 0 0 4 5 2 0 1 0 0 0 0 0 0 0 0 0 0 0 0 0 0 0 0 0 0 0 0 0 0 0 0 0 0 0
1 0 0 1 1 1 0 0 1 1 3 0 0 0 0 0 1 0 0 0 0 0 0 0 0 0 0 0 0 0 0 0 0 0 0 0 0 0 0 0 0 0 0 0 0 0 0 0 0 0 0 0 0 0
0 0 0 0 0 0 0 2 3 0 0 0 0 0 0 0 0 0 1 5 8 5 0 0 0 0 0 0 0 0 0 0 0 0 0 0 0 0 0 0 0 0 0 0 0 0 0 0 0 0 0 0 0 0
0 0 0 0 0 0 0 0 0 0 0 0 0 0 0 0 0 0 0 0 0 0 0 0 0 0 0 0 0 0 0 0 0 0 0 0 0 0 0 0 0 0 0 0 0 0 0 0 0 0 0 0 0 0
0 1 5 2 0 0 0 0 0 0 0 1 0 0 0 0 0 0 0 0 0 0 0 0 0 0 0 0 0 0 0 0 0 0 0 0 0 0 0 0 0 0 0 0 0 0 0 0 0 0 0 0 0 0
4 3 4 1 3 5 8 1 0 0 0 0 0 0 0 0 0 0 0 0 0 0 0 0 0 0 0 0 0 0 0 0 0 0 0 0 0 0 0 0 0 0 0 0 0 0 0 0 0 0 0 0 0 0
3 2 0 4 4 3 0 0 0 0 0 0 0 0 0 0 0 0 0 0 0 0 0 0 0 0 0 0 0 0 0 0 0 0 0 0 0 0 0 0 0 0 0 0 0 0 0 0 0 0 0 0 0 0

GFSWCAN_con_mlcape_021.txt.gz
CAPE
1 0 0 4 0 0 0 0 0 0 4 3 2 3 3 2 0 0 0 0 0 0 0 0 0 0 0 0 0 2 0 0 0 0 0 0 0 0 0 0 4 0 0 0 0 0 0 315 593 364 1910 2066 2099 2020
0 0 0 0 0 4 11 0 0 0 2 7 2 5 3 3 0 0 0 0 0 0 0 0 0 0 0 0 0 0 0 6 0 0 0 0 0 0 3 0 0 8 0 36 2 0 1075 1097 1848 1997 1968 2073 2307 2205
0 0 0 0 0 0 7 0 0 0 0 9 3 3 3 1 0 0 0 0 0 0 0 0 0 0 0 0 0 0 0 31 17 0 1 5 8 33 20 0 20 22 9 54 7 35 566 972 1402 1729 1788 2004 2090 2047
0 0 0 0 0 0 0 0 2 1 0 0 7 2 1 0 0 0 0 0 0 0 0 1 0 0 0 0 0 0 0 0 0 0 0 1 19 19 25 18 61 205 291 1 0 663 606 1071 1098 1251 1611 1778 1921 2009
0 0 0 0 2 0 0 1 1 2 0 0 1 3 2 0 0 0 0 0 0 0 0 0 0 0 0 0 0 0 0 0 0 0 0 0 3 39 31 7 37 77 207 256 282 466 558 886 941 1059 1232 1416 1607 1465
0 0 0 1 0 0 0 0 0 1 0 0 0 1 1 0 0 0 3 0 0 0 0 2 0 0 0 0 0 0 0 0 0 0 0 1 43 25 11 23 2 70 90 42 33 213 509 639 769 827 968 999 1245 1140
0 0 2 2 0 0 0 0 0 1 0 0 0 0 0 0 0 1 0 0 0 0 0 2 4 0 2 0 0 1 0 0 0 0 0 2 19 3 1 12 136 93 76 50 24 47 365 265 365 481 766 811 700 653
0 0 2 3 1 0 0 0 0 0 0 0 0 0 0 0 0 4 3 0 0 0 0 6 26 5 0 9 15 7 1 0 0 0 1 2 1 13 0 0 0 40 58 21 19 55 64 179 193 316 395 644 649 593
0 0 0 0 0 0 0 0 0 0 0 0 0 0 0 0 10 1 0 0 1 1 1 0 27 68 0 35 59 12 28 26 9 9 2 5 8 2 10 5 0 21 52 25 26 38 66 84 131 134 123 331 478 368
2 0 0 1 0 6 0 0 0 0 0 0 0 3 10 9 0 0 0 2 5 0 0 0 29 39 11 38 28 48 47 27 20 9 35 18 23 14 8 14 61 71 54 80 62 51 24 172 157 27 43 41 340 346
7 1 2 9 2 1 0 0 0 0 0 0 22 16 6 0 7 9 7 11 2 4 0 4 29 16 15 28 46 76 98 114 37 48 27 18 32 18 1 28 34 55 58 71 88 93 91 147 126 88 1 0 1 408
15 3 4 0 0 0 1 0 0 0 17 4 0 0 23 15 8 7 9 8 6 8 13 18 24 38 16 39 115 141 30 38 23 78 44 19 104 170 79 5 6 31 51 48 53 73 93 106 168 181 74 23 30 288
23 5 2 0 3 6 0 0 0 0 0 0 8 26 9 7 0 2 7 8 5 16 24 39 44 44 84 94 93 80 31 27 34 11 34 112 125 29 10 8 0 8 9 69 66 89 97 123 151 170 177 52 77 24
25 6 0 3 5 1 0 0 0 0 0 19 17 0 8 3 0 18 21 18 41 16 31 14 13 21 90 126 97 69 66 72 26 10 41 37 31 5 4 4 7 8 7 55 96 203 231 249 267 255 268 191 60 332
17 3 4 5 4 0 0 0 0 0 12 12 1 0 0 5 14 5 3 17 13 15 13 16 11 15 26 28 61 56 30 15 21 46 20 8 18 3 2 10 2 8 9 10 141 249 340 377 492 526 478 236 113 268
4 7 13 2 0 0 0 0 0 1 24 21 10 11 8 9 7 19 27 34 21 15 17 18 14 11 4 6 5 12 13 21 32 13 13 12 11 7 15 31 16 2 8 4 15 225 388 478 588 637 637 536 499 727
0 4 3 0 0 0 0 0 0 14 29 20 16 4 8 22 17 16 58 32 16 7 10 3 4 18 8 6 5 18 24 39 3 2 3 11 2 0 5 6 0 4 4 5 12 211 336 847 1062 1046 1065 938 827 949
7 0 0 0 0 0 0 0 25 15 8 3 13 20 21 31 38 30 37 32 20 6 6 8 30 21 6 6 8 33 9 3 3 6 9 9 0 2 1 2 2 1 1 3 47 234 346 434 432 394 292 114 77 29
1 0 0 0 0 8 21 5 6 24 17 18 19 28 26 29 24 16 17 14 7 18 15 20 9 5 1 14 17 25 18 9 14 1 0 0 1 2 2 2 1 3 7 18 62 115 60 51 50 55 47 32 5 2
0 0 0 0 0 22 26 29 3 17 19 24 27 27 12 6 3 21 14 20 20 11 20 16 5 11 42 26 14 9 9 5 1 0 1 4 2 1 1 4 4 2 3 6 9 58 42 2 4 4 4 2 1 2
0 0 0 0 4 15 30 7 19 16 10 10 4 9 3 12 17 3 8 13 12 22 16 10 21 14 9 7 0 0 0 0 1 0 1 2 4 5 3 2 2 1 0 1 6 2 3 3 3 4 3 4 0 0
0 0 9 0 18 3 14 4 16 23 18 9 17 16 20 18 10 2 1 2 5 9 3 0 0 0 2 0 0 0 3 11 2 3 4 6 7 2 3 3 1 2 1 3 1 3 3 3 2 2 2 4 0 1
0 0 10 0 0 0 0 8 13 17 17 14 14 7 9 4 2 0 2 1 0 0 0 0 0 0 0 0 7 8 10 3 3 2 1 4 26 7 1 3 3 5 5 4 0 1 0 0 0 0 0 0 0 0
0 11 11 5 0 0 2 10 5 1 2 3 1 1 1 2 1 3 0 0 0 0 0 0 0 4 6 12 15 12 5 2 0 0 0 0 0 4 0 0 0 2 6 8 16 2 2 7 8 7 3 3 4 1
0 0 0 0 12 12 7 2 1 0 0 2 1 0 1 3 0 0 1 0 1 0 11 9 11 16 6 10 15 17 9 5 1 0 2 1 20 15 8 15 24 14 6 0 16 29 21 22 20 13 2 0 0 0
0 5 0 6 13 1 2 0 0 1 2 1 1 3 3 2 0 0 0 0 1 8 20 25 16 15 11 6 7 4 6 7 20 23 6 8 4 12 8 9 14 31 46 29 10 0 0 4 5 0 0 0 0 2
1 3 3 5 2 1 1 1 1 1 2 2 2 2 4 0 0 1 0 2 2 16 12 17 5 0 13 26 15 6 2 19 15 8 1 1 5 6 0 0 0 0 0 0 0 1 0 0 0 0 3 8 7 9
1 1 0 0 2 2 1 2 2 5 16 10 5 5 1 1 0 0 0 0 1 2 5 2 1 0 22 20 23 19 17 21 18 12 1 0 0 0 0 0 0 0 0 0 0 2 1 2 5 6 8 11 8 7
0 0 1 0 1 2 10 5 12 8 7 5 4 4 1 0 0 0 0 2 0 0 0 1 0 11 38 17 13 18 23 17 5 0 0 0 0 0 0 0 0 0 0 0 0 0 0 0 6 8 7 7 7 9
1 0 0 4 6 8 13 16 13 8 2 0 0 0 0 0 0 5 6 18 24 17 17 11 5 4 15 15 7 2 0 0 1 0 1 2 2 1 1 1 1 2 1 0 0 0 0 0 0 4 4 9 7 4
23 12 22 11 7 16 9 11 6 2 2 0 1 0 1 5 8 13 1 0 0 0 0 0 0 0 0 0 0 0 0 0 0 0 3 5 5 4 2 0 0 1 4 3 5 8 7 6 11 7 6 3 0 0
10 9 7 17 13 7 1 0 0 0 0 0 0 0 0 0 0 0 0 0 2 1 0 0 0 0 0 0 0 0 0 0 2 7 11 9 5 3 9 10 10 4 5 2 3 6 2 0 3 0 0 1 0 0
15 7 18 26 19 10 6 6 6 5 8 3 4 4 7 2 0 0 0 1 0 0 0 0 0 0 0 0 0 0 0 0 0 0 0 0 0 0 1 7 0 0 0 0 1 0 0 0 0 0 0 0 0 0

GFSWCAN_con_mlcape_024.txt.gz
CAPE
0 1 0 0 1 0 0 0 0 0 0 7 0 0 1 0 0 0 0 0 0 0 0 0 0 0 0 0 0 0 7 1 0 0 0 0 0 0 0 0 8 0 0 0 0 0 0 0 139 728 1833 2258 2035 1896
0 0 0 0 0 0 0 2 0 0 0 1 4 2 1 1 0 0 0 0 0 0 0 0 0 0 0 0 0 0 0 0 12 0 0 0 0 0 6 7 0 19 5 18 0 5 655 1462 2049 2150 2141 2184 2108 2083
0 0 0 0 0 0 0 0 0 0 0 0 0 0 0 0 0 0 0 0 0 0 0 0 0 0 0 0 0 0 0 0 41 8 0 1 0 0 28 18 45 7 107 143 202 361 1061 1386 1429 1384 1742 1917 1827 1743
0 1 0 0 0 0 0 0 0 1 0 0 0 0 1 0 0 0 0 0 0 0 0 0 0 0 0 0 0 0 0 0 0 0 0 0 12 38 51 37 23 119 157 167 95 618 682 602 905 999 1308 1697 1954 1995
3 7 3 0 0 2 1 0 0 0 0 0 0 0 0 0 0 0 0 0 0 0 0 1 0 0 0 0 0 0 0 0 0 0 0 0 0 0 0 0 1 199 95 240 305 463 524 729 750 825 951 989 1284 1516
2 3 1 0 0 2 0 0 0 0 0 0 0 0 0 0 0 0 3 0 0 0 0 4 5 0 0 0 0 0 0 0 0 0 0 0 0 0 1 0 0 36 110 141 40 17 42 490 435 605 526 801 1170 1180
0 0 0 8 1 3 0 0 0 0 0 0 0 0 0 0 0 0 0 0 0 0 0 0 15 0 0 0 0 0 0 0 0 0 0 0 9 4 0 3 40 31 38 9 4 0 106 300 177 178 250 512 770 745
0 1 5 13 6 5 0 0 0 0 0 0 0 0 0 0 0 0 0 0 0 0 0 1 68 12 0 0 2 0 3 0 0 0 0 0 0 5 1 0 0 8 12 15 0 0 2 12 91 74 63 202 503 767
0 0 4 7 11 5 0 0 0 0 0 0 0 0 0 0 5 4 0 0 0 0 1 0 35 31 0 14 44 30 13 12 1 0 0 0 3 7 8 10 0 0 15 16 0 0 0 1 11 54 46 112 248 540
0 0 2 4 1 0 0 0 0 0 0 0 0 3 15 8 0 0 1 6 0 0 0 0 14 2 69 43 112 82 54 30 32 24 24 15 3 10 18 14 20 52 35 21 8 2 11 39 110 114 38 78 59 100
5 1 2 0 0 0 1 0 0 0 0 0 12 25 17 0 1 15 2 1 4 1 0 0 9 85 56 31 114 46 105 102 65 30 32 49 25 66 46 77 32 3 2 0 0 1 10 5 20 26 88 62 18 43
3 3 5 0 7 3 0 0 0 0 6 1 0 0 10 9 12 15 3 8 10 6 16 9 39 25 65 103 160 17 91 33 113 179 160 33 107 195 119 53 33 36 11 16 32 37 36 37 25 9 29 18 36 9
14 8 8 0 3 0 0 0 0 0 0 1 7 32 9 16 2 0 0 11 13 12 51 83 134 73 99 45 93 79 95 124 68 81 25 113 231 171 109 69 15 2 0 0 8 20 53 51 49 50 47 58 90 85
18 15 3 2 1 0 0 0 0 0 0 15 17 0 5 0 2 15 21 43 70 97 54 20 78 28 98 116 174 59 64 80 106 15 26 114 69 33 26 36 9 6 3 0 1 13 37 40 61 63 80 79 106 110
14 12 0 3 0 0 0 0 0 0 1 19 13 0 0 16 43 16 10 17 19 11 8 24 20 21 38 61 70 86 63 60 53 77 75 47 22 4 3 11 4 5 5 8 1 0 8 30 98 164 240 233 191 113
24 17 11 0 1 0 0 0 0 0 16 4 9 6 30 25 14 21 17 25 18 19 14 11 30 32 30 17 15 27 26 50 58 12 0 0 10 9 7 3 2 7 10 5 8 6 3 97 265 338 351 318 378 187
0 1 3 0 0 0 0 0 0 8 20 2 4 3 38 27 37 5 19 60 33 21 41 17 17 15 35 22 18 23 58 13 2 6 2 10 2 0 0 5 10 8 4 10 8 0 3 158 394 448 419 96 427 458
18 0 0 0 0 0 0 0 22 17 5 1 23 26 17 21 48 53 25 6 0 12 5 5 10 14 24 17 21 31 4 1 0 14 7 0 0 0 1 1 3 2 2 7 7 17 143 485 499 284 56 86 44 61
5 0 0 0 0 5 2 9 10 21 5 15 15 17 30 53 52 24 10 8 6 5 5 8 3 10 7 25 20 14 2 3 6 3 4 0 0 0 1 1 2 4 2 2 4 54 146 221 247 186 91 49 32 18
0 0 0 0 0 14 24 21 4 20 19 35 35 13 0 11 13 9 9 5 5 7 0 8 10 25 35 5 0 0 0 3 0 0 0 0 1 0 1 5 3 3 10 35 10 6 16 9 5 3 1 2 3 3
0 0 0 0 0 3 18 5 4 17 17 29 41 20 18 21 22 18 5 0 0 5 3 11 17 21 23 17 0 0 0 0 0 0 1 0 4 4 1 1 2 0 0 0 1 7 1 6 7 6 4 4 2 0
0 0 12 0 21 7 17 19 34 31 17 24 20 23 29 30 24 3 0 2 11 18 10 4 3 0 0 1 0 0 0 1 0 2 7 6 5 3 2 1 0 2 2 3 2 2 2 1 1 1 1 2 2 0
0 0 27 14 7 2 0 8 17 16 27 21 11 10 6 5 1 0 2 1 1 0 0 0 0 0 0 0 0 2 1 1 2 12 8 4 2 1 2 18 3 1 2 1 0 0 0 0 0 0 0 0 0 0
0 11 9 8 0 0 15 13 15 22 1 0 11 10 1 4 1 1 0 0 0 0 0 0 0 1 4 4 6 2 1 1 2 3 4 4 0 0 9 23 5 0 0 0 0 0 0 0 0 0 2 19 24 13
0 0 0 0 8 15 10 6 1 1 2 4 2 1 2 1 0 1 0 0 0 0 4 4 4 6 13 5 5 1 0 0 1 4 12 0 0 4 3 2 0 0 0 0 7 20 28 30 44 19 0 0 1 2
0 2 0 16 17 13 11 1 1 0 1 3 2 2 1 2 1 0 0 0 0 5 7 4 3 17 19 2 0 5 1 1 7 10 4 14 28 41 11 12 18 22 31 23 32 9 11 1 0 0 0 0 0 6
0 7 9 14 3 2 0 1 1 1 2 1 2 2 2 0 0 0 0 1 3 26 18 8 4 4 2 9 20 26 26 14 1 0 13 18 9 7 1 3 7 32 42 29 17 1 0 0 0 0 5 11 10 10
0 0 0 0 1 1 0 2 3 3 4 13 2 3 2 1 0 0 0 2 1 8 9 0 14 1 8 1 4 3 1 2 7 0 0 0 0 0 0 0 0 0 0 0 0 1 1 6 8 9 8 6 3 0
0 0 1 0 1 1 1 17 5 6 5 11 5 3 0 0 0 0 3 1 2 0 11 12 35 21 18 20 26 22 21 6 0 0 0 0 0 0 0 0 0 0 0 0 0 0 0 0 0 3 4 3 3 6
0 0 1 7 22 25 19 7 1 5 2 0 0 0 0 3 3 0 0 2 11 16 11 14 20 31 22 14 5 1 2 2 3 3 11 8 7 6 6 5 5 4 2 0 0 0 0 0 0 1 2 7 7 4
10 1 16 22 24 22 20 18 0 0 0 0 0 0 0 0 6 6 17 35 28 22 23 11 2 0 0 0 1 1 0 0 0 0 10 13 12 8 3 0 1 5 8 8 11 14 2 2 12 6 5 1 0 0
16 17 18 6 7 3 2 0 1 2 2 0 0 0 0 1 0 1 1 2 1 0 0 0 5 2 0 0 0 0 0 1 6 0 0 1 10 13 18 23 15 5 7 8 6 9 4 0 4 2 1 0 0 0
13 16 15 16 19 3 0 1 1 0 0 0 0 0 1 0 0 0 0 0 0 0 0 0 0 0 0 0 0 0 0 0 0 0 0 0 0 0 0 0 0 0 0 0 1 1 0 0 0 0 0 0 0 0

GFSWCAN_con_mlcape_027.txt.gz
CAPE
0 0 5 0 0 0 0 0 1 0 0 0 1 2 0 0 0 0 0 0 0 0 0 0 0 0 0 0 0 0 0 0 0 0 0 0 0 0 0 0 0 0 0 0 0 0 0 419 65 107 162 142 1343 695
0 0 0 3 0 0 0 0 0 0 0 0 0 0 1 0 0 0 0 0 0 0 0 0 0 0 0 0 0 0 0 0 26 0 0 0 0 0 0 0 3 0 0 0 0 0 1786 1780 1889 1758 1643 1631 1724 1421
0 0 0 6 0 0 0 0 0 0 1 0 0 0 0 0 0 0 0 0 0 0 0 0 0 0 0 0 0 0 0 0 0 0 0 0 5 0 1 29 1 136 138 31 76 661 764 867 793 850 1393 1504 1360 1685
0 0 0 4 0 0 0 0 0 0 0 0 0 0 0 0 0 0 0 0 0 0 0 0 0 0 0 0 0 0 0 0 0 0 0 0 0 0 0 0 7 49 95 78 491 441 453 104 0 4 547 1105 1330 1199
0 4 7 9 1 0 0 0 0 0 0 0 0 0 0 0 0 0 0 0 0 0 0 0 0 0 0 0 0 0 0 0 0 0 0 0 0 0 0 0 6 0 34 43 135 136 375 464 105 0 507 1154 1333 1187
0 2 4 10 0 0 0 0 0 0 0 0 0 0 0 0 0 0 0 0 0 0 0 0 0 0 0 0 0 0 0 0 0 0 0 0 0 0 0 0 73 18 75 118 22 6 5 116 280 104 513 935 1153 1009
0 4 4 0 0 0 0 0 0 0 0 0 0 0 0 0 0 0 0 0 0 0 0 0 6 0 0 0 0 0 0 0 0 0 0 0 0 0 0 0 15 21 16 0 0 0 24 108 31 15 47 925 752 554
0 2 5 3 3 0 0 0 0 0 0 0 0 0 0 0 0 0 0 0 0 0 0 0 44 2 0 0 0 0 0 0 0 0 0 0 0 0 0 0 0 1 0 1 1 0 0 0 55 35 0 37 406 488
0 0 0 2 5 0 0 0 0 0 0 0 0 0 0 0 0 0 0 0 0 0 0 0 0 14 45 1 11 0 0 1 0 0 0 0 0 0 0 0 0 0 0 0 0 0 0 0 0 1 22 190 147 310
1 0 0 0 0 0 0 0 0 0 0 0 0 0 1 2 0 0 0 0 0 0 0 0 0 1 0 34 62 97 40 4 5 0 0 0 0 0 0 9 14 0 0 0 0 0 0 0 0 0 10 0 13 1
12 1 1 0 0 0 0 0 0 0 0 0 1 10 15 0 0 2 4 1 0 0 0 0 0 2 9 20 21 93 52 117 27 37 17 28 41 105 113 69 53 25 0 0 1 0 0 0 0 0 0 0 8 44
7 3 0 0 0 0 0 0 0 0 0 0 0 0 0 1 3 3 0 0 0 0 9 2 0 107 46 168 61 29 6 26 5 68 133 38 88 215 107 71 36 17 17 26 0 0 0 0 0 1 13 2 4 48
4 9 1 0 0 0 0 0 0 0 0 0 0 4 2 3 1 0 0 0 0 14 149 101 124 160 146 163 106 0 0 33 30 156 32 45 163 161 110 65 4 1 0 0 0 0 0 0 0 0 5 37 26 50
11 5 3 0 0 0 0 0 0 0 0 1 13 0 0 0 0 0 6 59 78 116 110 74 167 102 112 97 94 9 46 86 72 54 13 164 51 6 4 0 0 0 0 0 0 0 0 0 0 0 14 93 141 114
22 16 0 1 0 0 0 0 0 0 0 6 14 0 0 0 0 112 71 15 59 61 5 33 59 79 32 14 47 66 18 2 54 41 105 86 30 8 0 1 0 0 0 0 1 0 0 0 0 0 51 160 93 102
7 6 6 0 0 0 0 0 0 0 2 9 4 0 15 28 9 11 14 35 17 4 9 15 15 14 14 9 14 9 16 31 0 0 0 1 6 0 0 0 0 0 0 0 0 0 0 0 0 0 59 146 114 80
1 3 0 0 0 0 0 0 0 0 4 1 14 1 1 13 21 25 22 7 14 19 14 27 13 29 29 19 7 10 19 0 4 6 9 5 0 0 0 0 0 3 2 4 1 4 5 1 0 28 166 199 0 0
15 0 0 0 0 0 0 0 4 0 0 0 0 11 17 27 27 42 7 34 33 6 9 18 2 8 11 24 24 9 6 10 1 0 0 0 0 0 0 1 1 0 4 1 2 2 2 6 88 277 213 83 33 0
0 0 0 0 0 0 13 6 16 26 4 13 29 24 71 51 27 10 26 7 5 0 0 0 0 0 3 20 13 3 0 0 0 0 0 0 0 0 0 0 1 8 20 13 7 16 37 124 113 90 51 26 0 0
0 0 0 0 0 8 12 1 5 7 13 7 36 48 51 23 1 2 13 8 0 0 0 0 6 27 11 0 0 0 0 0 0 0 0 0 0 0 3 3 0 5 11 4 5 3 1 1 4 4 0 1 1 3
0 0 0 0 0 0 20 24 0 5 0 33 25 19 4 16 13 7 5 0 0 0 0 0 32 12 0 3 0 0 0 1 0 0 0 0 0 1 1 0 0 0 0 2 2 1 6 4 3 1 1 2 2 2
0 0 0 0 1 27 0 13 1 29 9 24 27 22 25 34 9 0 0 0 0 6 12 1 0 0 0 0 0 0 1 0 0 2 2 1 4 2 1 2 2 1 1 1 1 1 1 1 0 1 1 1 1 1
0 0 28 23 1 0 0 1 9 16 21 16 15 5 7 4 0 0 0 1 1 0 0 0 0 0 0 0 0 0 0 0 6 13 3 1 4 2 2 1 0 0 1 0 0 0 0 0 0 0 0 0 0 0
0 8 10 10 0 0 9 9 14 12 0 1 1 5 4 0 0 0 0 0 0 0 0 0 0 0 0 0 0 0 0 1 5 0 2 10 15 7 0 0 0 0 0 0 0 0 0 0 0 0 0 0 0 0
0 0 0 0 7 20 14 4 0 0 0 10 7 1 0 0 2 0 0 0 0 0 0 4 7 9 5 2 1 0 0 0 0 0 0 1 6 4 1 0 0 0 0 0 0 0 0 0 3 13 19 19 0 0
0 0 1 20 11 10 2 1 1 0 1 4 2 3 0 2 1 0 0 0 0 0 4 2 11 12 3 0 1 5 1 2 14 11 12 24 16 8 1 0 0 0 11 31 49 59 46 31 8 0 0 0 5 7
0 9 18 26 8 6 2 0 0 1 0 1 2 1 2 0 0 0 0 0 2 6 9 4 7 1 0 0 1 0 0 6 28 46 48 35 22 20 17 22 51 31 37 49 13 0 0 0 0 0 0 15 12 6
0 0 1 0 0 0 0 3 2 2 1 1 2 1 1 0 1 0 0 0 8 10 11 2 0 2 8 29 41 32 33 35 50 5 0 0 0 0 0 0 0 0 0 0 0 2 4 8 9 6 6 0 0 0
0 0 1 0 0 1 0 2 6 7 1 0 1 0 0 0 0 2 6 0 0 6 4 5 17 21 32 52 39 37 32 23 0 0 0 0 0 0 0 0 0 0 0 0 0 0 0 0 0 0 0 0 0 0
0 1 1 4 5 5 7 7 15 9 8 0 0 0 0 0 0 0 0 0 0 2 2 11 38 39 38 52 69 60 32 5 6 2 3 1 0 0 1 1 0 0 0 0 0 0 0 0 0 0 0 0 0 1
0 0 1 20 9 6 3 1 0 0 0 0 4 0 0 0 0 1 1 6 14 49 40 25 37 6 6 1 3 0 0 0 2 1 11 8 1 0 0 1 2 5 3 7 6 3 0 1 4 3 9 1 0 0
1 14 27 12 9 4 1 6 4 2 0 5 4 0 1 2 4 3 0 2 13 40 45 12 3 0 0 0 0 0 0 0 0 0 0 0 0 0 2 13 2 0 0 1 0 14 2 0 0 0 0 0 0 0
6 8 8 5 4 3 0 0 0 0 0 0 0 2 0 0 0 0 0 1 3 0 0 0 0 0 0 0 0 0 0 0 0 0 0 0 0 0 0 0 0 0 0 0 1 1 0 0 0 0 0 0 0 0

GFSWCAN_con_mlcape_030.txt.gz
CAPE
0 0 0 0 0 0 0 0 0 0 0 0 1 0 0 0 0 0 0 0 0 0 0 0 0 0 0 0 0 0 0 0 0 0 0 0 0 0 0 0 0 0 0 0 0 0 0 886 659 48 63 391 131 2
0 0 0 0 0 0 0 0 0 0 0 1 0 0 0 0 0 0 0 0 0 0 0 0 0 0 0 0 0 0 0 0 0 2 0 0 0 0 0 0 0 0 0 0 0 0 935 664 754 949 472 702 475 51
0 0 0 0 0 0 0 0 0 0 0 1 0 0 0 0 0 0 0 0 0 0 0 0 0 0 0 0 0 0 0 0 0 0 0 0 18 0 0 0 0 0 0 45 176 399 109 281 528 865 1034 1086 1123 598
0 0 0 0 0 0 0 0 0 0 0 0 0 0 0 0 0 0 0 0 0 0 0 0 0 0 0 0 0 0 0 0 0 0 0 0 0 0 0 0 0 0 0 124 195 187 150 1 57 39 580 284 10 967
0 0 0 0 0 0 0 0 0 0 0 0 0 0 0 0 0 0 0 0 0 0 0 0 0 0 0 0 0 0 0 0 0 0 0 0 0 0 0 0 0 13 22 2 79 128 236 157 0 20 590 968 942 747
0 0 0 2 4 0 0 0 0 0 0 0 0 0 0 0 0 0 0 0 0 0 0 0 0 0 0 0 0 0 0 0 0 0 0 0 0 0 0 0 9 0 25 9 3 9 58 174 96 88 411 747 627 548
0 0 0 1 0 0 0 0 0 0 0 0 0 0 0 0 0 0 0 0 0 0 0 0 0 0 0 0 0 0 0 0 0 0 0 0 0 0 0 0 8 1 0 0 0 0 0 1 6 36 472 563 608 480
0 0 0 0 0 0 0 0 0 0 0 0 0 0 0 0 0 0 0 0 0 0 0 0 0 0 0 0 0 0 0 0 0 0 0 0 0 0 0 0 0 0 0 0 0 0 0 0 0 0 123 338 237 169
0 0 0 0 0 0 0 0 0 0 0 0 0 0 0 0 0 0 0 0 0 0 0 0 0 3 0 0 0 0 0 0 0 0 0 0 0 0 0 0 0 0 0 0 0 0 0 0 0 0 10 144 149 259
2 0 0 0 0 0 0 0 0 0 0 0 0 0 0 0 0 0 0 0 0 0 0 0 0 3 0 0 9 22 6 0 0 0 0 0 0 0 0 0 0 0 0 0 0 0 0 0 0 0 0 0 0 24
16 6 0 0 0 0 0 0 0 0 0 0 0 2 0 0 0 0 0 0 0 0 0 0 0 0 0 0 2 13 15 19 8 0 6 1 0 7 9 14 11 0 0 0 0 0 3 0 0 0 0 0 0 0
12 21 8 0 0 0 0 0 0 0 0 0 0 0 0 0 0 0 0 0 0 0 0 0 0 0 5 8 7 3 0 0 0 2 33 7 16 13 17 8 10 6 0 0 0 4 0 0 0 0 5 17 19 14
21 17 13 0 0 0 0 0 0 0 0 0 0 0 0 0 0 0 0 0 0 0 158 46 41 40 58 44 0 0 0 0 0 17 12 23 11 4 1 0 0 0 0 0 0 0 0 0 0 0 0 1 25 43
17 15 23 0 0 0 0 0 0 0 0 0 2 0 0 0 0 0 0 6 70 86 59 34 72 47 19 16 7 0 0 0 21 0 7 25 5 0 0 0 0 0 0 0 0 0 0 0 0 0 0 0 0 11
29 24 14 2 0 0 2 0 0 0 0 0 4 0 0 0 0 0 4 7 57 20 9 20 51 21 7 18 1 4 9 0 1 1 55 13 1 0 0 0 0 0 0 0 0 0 0 0 0 0 0 0 0 3
1 20 2 0 0 2 0 0 0 0 1 2 0 0 0 10 1 1 0 0 4 0 3 5 12 1 0 3 1 5 8 2 0 0 0 0 0 0 0 0 0 0 0 0 0 0 0 0 0 0 0 0 0 0
7 0 0 0 5 0 0 0 0 0 0 0 0 0 0 0 12 16 21 1 1 4 4 6 0 0 7 16 10 7 1 0 0 0 1 0 0 0 0 0 0 0 0 0 2 1 2 3 4 3 0 0 0 0
1 0 0 2 0 0 0 0 0 0 0 0 0 0 1 1 8 5 11 16 5 0 5 5 0 0 2 7 12 0 1 0 0 0 0 0 0 0 0 0 0 0 2 5 12 1 0 0 0 0 0 0 0 0
0 0 0 0 0 0 0 0 0 0 3 0 0 0 17 13 8 3 0 0 0 0 0 0 0 0 0 2 1 0 0 0 0 0 0 0 0 0 0 0 1 6 17 22 16 0 13 14 4 3 0 0 0 0
1 0 0 0 0 4 8 0 0 1 0 6 15 0 5 1 0 0 0 0 0 0 0 0 0 0 0 0 0 0 0 0 0 0 0 0 0 1 3 1 1 12 7 9 4 3 4 1 0 0 0 1 1 1
0 0 0 0 0 0 0 14 0 0 0 10 8 1 2 6 15 1 0 0 0 0 0 0 0 0 0 0 0 0 0 0 0 1 0 0 0 1 1 1 3 5 1 2 0 0 0 1 1 1 1 1 1 1
0 0 0 0 0 12 0 2 3 0 8 1 14 7 8 11 0 0 0 0 0 0 0 0 0 0 0 0 0 0 1 1 0 2 0 0 1 0 2 1 0 0 1 0 0 0 0 0 0 0 0 1 1 1
0 0 0 0 0 0 0 0 0 7 5 3 0 0 0 0 0 0 0 0 0 0 0 0 0 0 0 0 0 1 0 0 14 1 1 1 2 0 0 1 1 0 0 0 0 0 0 0 0 0 0 0 0 0
0 0 4 1 0 0 1 6 1 0 0 0 0 0 0 0 0 0 0 0 0 0 0 0 0 0 0 0 0 0 0 3 0 0 1 2 1 1 2 1 0 0 0 0 0 0 0 0 0 0 0 0 0 0
0 0 0 0 0 3 6 0 0 0 0 0 0 0 0 0 0 0 0 0 0 0 0 0 1 0 0 0 0 0 0 0 0 1 0 1 0 0 0 0 0 0 0 0 0 0 1 1 3 7 9 9 7 1
0 0 0 11 1 7 1 0 0 0 2 5 1 0 0 1 0 0 0 0 0 0 4 4 6 2 0 0 0 0 2 0 3 6 7 6 1 0 0 0 0 1 3 13 29 27 15 9 9 11 10 19 6 0
0 6 13 5 2 2 0 0 0 1 0 1 2 3 0 1 0 0 0 0 0 6 5 4 5 2 0 0 0 1 2 5 15 21 22 15 2 7 24 26 32 32 29 30 29 1 0 0 0 4 5 8 8 1
0 0 0 0 0 0 0 1 0 1 1 5 3 0 2 0 0 0 0 0 0 0 0 0 1 0 0 0 3 6 3 6 9 11 1 1 5 1 0 0 0 0 0 0 0 0 3 7 6 6 4 0 0 0
0 0 0 1 0 1 0 0 4 0 0 0 2 2 0 0 0 0 2 2 0 1 0 0 0 2 6 4 10 23 26 30 3 0 0 0 0 0 0 0 0 0 0 0 0 0 0 1 0 0 0 0 0 0
0 0 2 4 3 1 2 0 9 7 2 0 1 0 0 0 0 0 0 0 0 0 1 9 19 28 38 41 44 36 3 1 2 0 0 0 0 0 0 0 0 0 0 0 0 0 0 0 0 0 0 0 2 0
0 0 1 7 5 5 12 9 2 1 1 0 0 0 0 0 0 0 0 0 0 0 0 9 24 25 12 15 23 0 0 0 0 0 0 0 0 0 0 1 1 0 0 0 0 4 2 0 4 2 1 0 0 0
8 7 5 4 9 7 4 0 0 0 0 1 0 0 0 0 0 0 0 0 0 0 5 12 19 0 0 0 0 0 0 0 0 0 0 0 0 0 0 0 0 0 0 0 0 2 2 0 0 0 0 0 0 0
16 3 0 0 4 2 0 0 0 1 1 0 0 0 0 0 0 0 0 0 0 0 0 0 0 0 0 0 0 0 0 0 0 0 0 0 0 0 0 0 0 0 0 0 0 0 0 0 0 0 0 0 0 0

GFSWCAN_con_mlcape_033.txt.gz
CAPE
0 0 0 0 0 0 0 0 0 0 0 0 1 1 0 0 0 0 0 0 0 0 0 0 0 0 0 0 0 0 0 0 0 0 0 0 0 0 0 0 0 0 0 0 0 0 0 684 860 12 25 506 300 63
0 0 0 0 0 0 0 0 0 0 0 0 0 1 0 0 0 0 0 0 0 0 0 0 0 0 0 0 0 0 0 0 0 0 0 0 0 0 0 0 0 0 0 0 0 0 698 801 911 817 311 722 469 203
0 0 0 0 0 0 0 0 0 0 0 0 0 0 0 0 0 0 0 0 0 0 0 0 0 0 0 0 0 0 0 0 0 0 0 0 0 0 0 0 0 0 0 48 56 287 606 746 1121 1289 1362 1239 1169 615
0 0 0 0 0 0 0 0 0 0 0 0 0 0 0 0 0 0 0 0 0 0 0 0 0 0 0 0 0 0 0 0 0 0 0 0 0 0 0 0 0 0 0 183 245 169 69 3 267 362 311 154 355 883
0 0 0 0 0 0 0 0 0 0 0 0 0 0 0 0 0 0 0 0 0 0 0 0 0 0 0 0 0 0 0 0 0 0 0 0 0 0 0 0 3 0 1 2 78 152 106 112 112 434 847 931 840 806
1 0 0 0 0 0 0 0 0 0 0 0 0 0 0 0 0 0 0 0 0 0 0 0 0 0 0 0 0 0 0 0 0 0 0 0 0 0 0 0 27 5 0 1 23 85 105 57 127 390 916 915 729 450
0 0 0 0 0 0 0 0 0 0 0 0 0 0 0 0 0 0 0 0 0 0 0 0 0 0 0 0 0 0 0 0 0 0 0 0 0 0 0 0 68 26 0 4 28 24 39 17 42 617 803 793 613 460
0 0 0 0 0 0 0 0 0 0 0 0 0 0 0 0 0 0 0 0 0 0 0 0 0 0 0 0 0 0 0 0 0 0 0 0 0 0 0 0 0 36 4 0 0 2 9 0 2 144 464 479 251 156
0 0 0 0 0 0 0 0 0 0 0 0 0 0 0 0 0 0 0 0 0 0 0 0 0 13 0 0 0 0 0 0 0 0 0 0 0 0 0 0 0 0 18 5 1 0 0 0 0 13 106 213 173 145
0 0 0 0 0 0 0 0 0 0 0 0 0 0 0 0 0 0 0 0 0 0 0 0 0 1 0 0 0 0 0 0 0 0 0 0 0 0 0 0 0 0 0 0 5 0 0 0 0 0 0 0 0 0
9 4 1 0 0 0 0 0 0 0 0 0 0 0 0 0 0 0 0 0 0 0 0 0 0 0 0 0 1 4 6 0 0 0 0 0 0 0 0 0 0 0 0 1 3 0 0 0 0 0 0 0 0 0
14 16 8 0 0 0 0 0 0 0 0 0 0 0 0 0 0 0 0 0 0 0 0 0 0 0 0 1 1 4 1 0 0 0 11 0 2 0 0 0 0 0 0 0 0 0 0 0 4 3 0 0 8 0
26 24 22 12 0 0 0 0 0 0 0 0 0 0 0 0 0 0 0 0 0 0 23 14 18 18 11 8 0 0 0 0 0 4 4 0 0 0 0 0 0 0 0 0 0 0 0 0 0 0 0 0 0 0
28 33 34 23 0 0 0 0 0 0 0 0 3 0 0 0 0 0 0 0 0 26 9 25 62 34 6 16 0 0 0 0 3 0 2 3 0 0 0 0 0 0 0 0 0 0 0 0 0 0 0 0 0 0
17 22 26 23 2 0 0 0 0 0 0 0 2 0 0 0 0 0 0 0 10 0 1 2 2 0 2 7 0 1 14 5 6 6 39 2 0 0 0 0 0 0 0 0 0 0 0 0 0 0 0 0 0 0
24 26 37 8 0 0 0 0 0 0 0 0 0 0 0 0 2 0 0 0 2 2 0 0 27 9 4 2 4 10 3 0 0 0 0 0 0 0 0 0 0 0 0 0 0 0 0 0 0 0 0 0 0 0
40 6 8 2 0 0 0 0 0 0 0 0 0 0 0 0 0 7 5 9 0 0 0 3 0 0 0 3 0 0 0 0 0 0 0 0 0 0 0 0 0 0 0 0 0 1 4 2 5 3 0 2 0 0
2 14 0 9 0 0 0 0 0 0 0 0 0 0 0 0 9 4 0 0 0 0 0 0 0 0 0 2 5 0 0 0 0 0 0 0 0 0 0 0 0 0 1 10 12 12 0 0 2 0 0 0 0 0
7 1 5 0 0 0 0 0 0 0 0 0 0 0 0 0 0 0 0 0 0 0 0 0 0 0 0 0 0 0 0 0 0 0 0 0 0 0 0 0 3 3 10 19 18 4 14 12 2 2 0 0 0 1
1 2 0 0 0 1 9 0 0 0 0 0 0 5 1 0 0 0 0 0 0 0 0 0 0 0 0 0 0 0 0 0 0 0 0 0 0 0 3 1 0 9 6 9 8 6 3 0 0 0 0 1 0 1
0 6 0 0 0 0 0 0 0 0 0 3 0 0 0 2 3 0 0 0 0 0 0 0 0 0 0 0 0 0 0 0 0 0 0 0 0 0 5 0 0 0 3 6 1 1 0 0 1 1 0 1 1 1
0 0 0 0 0 0 2 0 1 0 1 0 0 2 1 2 0 0 0 0 0 0 0 0 0 0 0 0 0 0 0 0 0 0 1 0 1 1 1 1 0 3 1 1 0 0 1 1 1 1 0 0 0 0
0 0 0 0 0 0 0 0 0 1 1 2 0 0 0 0 0 0 0 0 0 0 0 0 0 0 0 0 0 0 0 0 4 1 2 1 4 0 0 0 0 1 0 0 0 0 0 0 0 0 0 0 0 0
0 0 0 1 0 0 0 1 0 0 0 0 0 0 0 0 0 0 0 0 0 0 0 0 0 0 0 0 0 0 0 3 0 0 0 2 4 0 0 1 0 0 0 0 0 0 0 0 0 0 0 0 0 0
0 0 0 0 0 1 3 0 0 0 0 0 0 0 0 0 0 0 0 0 0 0 0 0 2 0 0 0 0 6 0 0 0 0 0 0 0 0 0 0 0 0 0 0 0 0 0 0 0 0 0 0 0 0
0 0 0 0 0 0 0 0 0 0 0 0 0 0 0 0 1 0 0 0 0 0 1 2 0 0 0 0 1 1 1 1 6 5 5 2 0 0 0 0 0 0 0 3 11 14 15 10 14 20 17 23 13 0
0 2 2 0 0 0 0 0 2 3 1 0 0 0 0 0 0 0 0 0 0 2 2 0 0 0 0 6 3 3 2 3 10 11 15 9 2 7 7 16 14 16 18 14 9 11 6 14 8 2 0 2 1 0
1 1 0 0 0 0 2 3 0 0 0 0 0 0 0 0 0 0 0 0 6 4 2 0 1 4 1 0 0 0 0 0 4 0 0 1 2 4 10 2 0 1 0 0 0 2 1 0 0 1 1 0 0 0
0 0 0 0 1 0 0 0 2 0 0 0 0 0 0 0 0 0 0 0 0 0 4 0 0 0 1 3 9 10 10 12 7 0 0 0 0 0 0 0 0 0 0 0 0 0 7 5 6 5 0 0 0 0
0 0 1 3 1 1 1 0 0 11 4 1 1 2 1 2 0 0 0 0 0 0 0 1 5 11 19 20 12 23 0 0 0 0 0 0 0 0 0 0 0 0 0 0 0 0 0 0 0 0 0 0 0 0
0 0 1 4 7 7 18 16 6 1 3 0 1 0 0 0 0 0 0 0 0 0 1 4 7 15 17 8 6 2 0 0 0 0 0 0 0 0 0 0 0 0 0 0 0 0 0 0 1 2 0 0 0 0
0 3 11 10 7 3 0 0 0 2 0 0 0 0 0 0 0 0 0 0 0 0 0 0 0 0 0 0 0 0 0 0 0 0 0 0 0 0 0 0 0 0 0 0 0 0 0 2 0 0 0 0 0 0
1 0 0 7 6 2 0 0 0 0 0 0 0 0 0 0 0 0 0 0 0 0 0 0 0 0 0 0 0 0 0 0 0 0 0 0 0 0 0 0 0 0 0 0 0 0 0 0 0 0 0 0 0 0

GFSWCAN_con_mlcape_036.txt.gz
CAPE
0 0 0 0 0 0 0 0 0 0 0 0 2 1 0 0 0 0 0 0 0 0 0 0 0 0 0 0 0 0 0 0 0 0 0 0 0 0 0 0 0 0 0 0 0 0 0 245 835 13 6 401 455 344
0 0 0 0 0 0 0 0 0 0 0 0 1 1 0 0 0 0 0 0 0 0 0 0 0 0 0 0 0 0 0 0 0 0 0 0 0 0 0 0 0 0 2 0 0 0 344 561 791 690 370 594 372 155
0 0 0 0 0 0 0 0 0 0 0 0 0 0 0 0 0 0 0 0 0 0 0 0 0 0 0 0 0 0 0 0 0 0 0 0 0 0 0 0 0 7 12 139 109 107 593 629 728 1147 1158 1137 1225 376
0 0 0 0 0 0 0 0 0 0 0 0 0 0 0 0 0 0 0 0 0 0 0 0 0 0 0 0 0 0 0 0 0 0 0 0 0 0 0 0 0 0 23 297 245 329 343 294 368 284 197 413 842 1039
0 0 0 0 0 0 0 0 0 0 0 0 0 0 0 0 0 0 0 0 0 0 0 0 0 0 0 0 0 0 0 0 0 0 0 0 0 0 0 0 22 4 1 9 118 164 156 231 274 388 825 875 911 886
0 0 0 0 0 0 0 0 0 0 0 0 0 0 0 0 0 0 0 0 0 0 0 0 0 0 0 0 0 0 0 0 0 0 0 0 0 0 0 1 24 22 8 0 186 112 131 181 269 499 987 772 516 228
0 0 0 0 0 0 0 0 0 0 0 0 0 0 0 0 0 0 0 0 0 0 0 0 0 0 0 0 0 0 0 0 0 0 0 0 0 0 0 0 51 53 39 56 166 79 48 44 331 772 867 707 561 450
2 0 0 0 0 0 0 0 0 0 0 0 0 0 0 0 0 0 0 0 0 0 0 0 0 0 0 0 0 0 0 0 0 0 0 0 0 0 0 0 0 16 21 66 70 3 6 11 44 423 533 491 285 156
0 0 0 0 0 0 0 0 0 0 0 0 0 0 0 0 0 0 0 0 0 0 0 0 0 6 0 0 0 0 0 0 0 0 0 0 0 0 0 0 0 0 21 14 4 1 0 0 1 60 135 132 90 68
0 0 0 0 0 0 0 0 0 0 0 0 0 0 0 0 0 0 0 0 0 0 0 0 0 4 0 0 0 0 0 0 0 0 0 0 0 0 0 0 0 0 0 0 0 0 0 0 0 0 0 0 0 0
3 0 0 0 0 0 0 0 0 0 0 0 0 0 0 0 0 0 0 0 0 0 0 0 0 0 0 0 0 0 0 0 0 0 0 0 0 0 0 0 0 0 0 0 0 0 0 0 0 0 0 0 0 0
25 17 2 1 0 0 0 0 0 0 0 0 0 0 0 0 0 0 0 0 0 0 0 0 0 0 0 0 0 0 0 0 0 0 1 0 0 0 0 0 0 0 0 0 0 0 0 0 0 0 0 3 6 0
15 16 21 11 3 0 0 0 0 0 0 0 0 0 0 0 0 0 0 0 0 0 0 0 0 0 4 1 0 0 0 0 0 0 0 0 0 0 0 0 0 0 0 0 0 0 0 0 0 0 0 0 0 0
19 15 20 23 9 0 0 0 0 0 0 0 0 0 0 0 0 0 0 0 0 0 20 4 42 20 1 2 6 0 0 0 0 0 0 0 0 0 0 0 0 0 0 0 0 0 0 0 0 0 0 0 0 0
10 25 34 22 6 0 0 0 0 0 0 0 2 0 0 0 0 0 0 0 0 0 0 1 4 0 1 4 1 0 6 0 2 1 0 3 3 0 0 0 0 0 0 0 0 0 0 0 0 0 0 0 0 0
23 31 38 32 1 0 0 0 0 0 0 0 0 0 0 0 0 0 0 0 0 0 0 0 11 3 0 0 0 0 0 0 0 0 0 0 0 0 0 0 0 0 0 0 0 0 0 0 0 0 0 0 0 0
6 0 20 9 0 0 0 0 0 0 0 0 0 0 0 0 0 0 0 0 0 0 2 0 0 0 0 0 0 0 0 0 0 0 0 0 0 0 0 0 0 0 0 0 0 0 0 0 4 3 2 2 0 0
2 16 4 0 0 0 0 0 0 0 0 0 0 0 0 0 0 0 0 0 0 0 0 0 0 0 0 0 0 0 0 0 0 0 0 0 0 0 0 0 0 0 2 6 9 14 9 1 13 9 1 0 1 1
16 10 0 0 0 0 0 0 0 0 0 0 0 0 0 0 0 0 0 0 0 0 0 0 0 0 0 0 0 0 0 0 0 0 0 0 0 0 0 1 5 10 18 29 30 26 19 11 3 1 0 0 0 1
1 0 0 0 0 4 4 1 0 0 0 0 0 0 0 0 0 0 0 0 0 0 0 0 0 0 0 0 0 0 0 0 0 0 0 0 0 0 1 1 5 9 7 7 3 3 3 0 0 0 0 0 0 1
6 5 0 0 0 0 0 0 0 0 0 0 0 0 0 0 0 0 0 0 0 0 0 0 0 0 0 0 0 0 0 0 0 0 0 0 0 1 1 2 0 0 1 6 1 0 0 0 1 1 1 2 1 1
0 0 0 0 0 0 0 0 0 0 0 0 0 0 2 2 0 0 0 0 0 0 0 0 0 0 0 0 0 0 0 0 0 0 0 0 0 1 1 0 0 2 1 1 1 0 0 0 0 0 0 0 0 0
0 0 0 0 0 0 0 0 0 0 5 0 0 0 0 0 0 0 0 0 0 0 0 0 0 0 0 0 0 0 0 0 1 1 1 1 0 0 0 1 0 0 0 0 0 0 0 0 0 0 0 0 0 0
0 0 0 0 0 0 0 0 0 0 0 0 0 0 0 0 0 0 0 0 0 0 0 0 0 0 0 0 0 0 1 1 0 1 2 1 0 0 0 0 0 0 0 0 0 0 0 0 0 0 0 0 0 0
0 0 0 0 0 0 0 0 0 0 0 0 0 0 0 0 0 0 0 0 0 0 1 0 0 0 0 0 1 1 1 0 0 0 0 0 0 0 0 0 0 0 0 0 0 0 0 0 0 0 0 0 0 0
0 0 0 0 0 0 0 0 0 0 0 0 0 0 0 0 0 0 0 0 0 0 0 1 0 2 2 1 1 5 1 0 0 0 0 0 0 0 0 0 1 2 0 0 2 11 19 20 12 12 14 5 0 0
0 0 0 0 0 0 0 0 0 0 0 0 2 0 0 0 0 0 0 0 0 1 5 1 0 0 0 1 4 2 0 0 8 9 10 5 1 0 0 7 13 10 0 2 5 12 13 12 11 10 6 2 0 0
1 4 0 0 0 0 4 2 0 0 0 0 0 0 0 0 0 0 0 0 1 7 14 0 0 0 2 1 0 0 7 9 4 0 0 0 0 0 2 4 0 0 0 0 3 9 1 0 2 0 0 0 0 0
0 0 0 0 0 0 0 0 1 3 0 0 0 0 0 0 0 1 2 3 0 0 0 0 1 0 0 0 0 5 7 4 0 0 0 0 0 0 0 0 0 0 0 0 0 0 0 0 0 2 1 0 0 0
0 0 0 4 1 0 0 0 0 7 5 1 1 1 2 1 0 0 0 0 1 6 5 4 0 0 6 15 15 13 1 0 0 0 0 0 0 0 0 0 0 0 0 0 0 0 0 0 0 0 0 0 0 0
1 0 2 2 1 0 5 18 14 7 1 1 5 3 0 0 0 0 0 0 0 0 0 0 3 3 5 9 3 5 2 0 0 0 0 0 0 0 0 0 0 0 0 0 0 0 0 0 0 3 2 0 0 0
1 1 7 5 6 2 6 0 2 3 2 0 0 0 0 0 4 0 0 0 0 0 3 0 0 0 0 0 0 0 0 0 0 0 0 0 0 0 0 0 0 0 0 0 0 0 0 0 0 0 0 0 0 0
2 2 3 2 0 0 0 0 0 0 0 0 0 0 0 0 0 0 0 0 0 0 0 0 0 0 0 0 0 0 0 0 0 0 0 0 0 0 0 0 0 0 0 0 0 0 0 0 0 0 0 0 0 0

GFSWCAN_con_mlcape_039.txt.gz
CAPE
0 0 0 0 0 0 0 0 0 0 0 0 0 0 1 0 0 0 0 0 0 0 0 0 0 0 0 0 0 0 5 4 0 0 0 0 0 0 0 0 0 0 0 0 0 0 0 214 710 32 19 526 549 431
0 0 0 0 0 0 0 0 0 0 0 0 0 0 0 0 0 0 0 0 0 0 0 0 0 0 0 0 0 0 0 0 0 6 0 0 0 0 0 0 0 0 0 0 0 0 134 590 849 905 764 610 522 422
0 0 0 0 0 0 0 0 0 0 0 0 0 0 0 0 0 0 0 0 0 0 0 0 0 0 0 0 0 0 0 0 0 0 6 6 0 0 0 0 0 18 11 65 41 76 720 921 856 962 1098 1253 1060 407
0 0 0 0 0 0 0 0 0 0 0 0 0 0 0 0 0 0 0 0 0 0 0 0 0 0 0 0 0 0 0 0 0 0 0 0 0 0 0 0 0 4 43 314 273 270 535 749 662 446 465 1043 1394 441
0 0 0 0 0 0 0 0 0 0 0 0 0 0 0 0 0 0 0 0 0 0 0 0 0 0 0 0 0 0 0 0 0 0 0 0 0 0 0 7 118 93 89 147 224 486 492 593 498 539 1252 1061 1173 755
0 0 0 0 0 0 0 0 0 0 0 0 0 0 0 0 0 0 0 0 0 0 0 0 0 0 0 0 0 0 0 0 0 0 0 0 0 0 0 16 128 81 53 56 325 375 388 463 508 817 1214 792 582 631
6 0 0 0 0 0 0 0 0 0 0 0 0 0 0 0 0 0 0 0 0 0 0 0 0 0 0 0 0 0 0 0 0 0 0 0 0 0 0 2 81 105 38 140 301 297 292 258 785 1140 1185 889 638 475
0 7 0 0 0 0 0 0 0 0 0 0 0 0 0 0 0 0 0 0 0 0 0 0 0 0 0 0 0 0 0 0 0 0 0 0 0 0 0 0 0 6 37 221 246 68 14 167 764 925 837 644 358 253
7 13 0 0 0 0 0 0 0 0 0 0 0 0 0 0 0 0 0 0 0 0 0 0 0 19 0 0 0 0 0 0 0 0 0 0 0 0 0 0 0 0 6 23 102 10 15 46 124 314 384 244 98 16
1 0 0 0 0 0 1 0 0 0 0 0 0 0 0 0 0 1 0 0 0 0 0 0 0 18 8 0 1 0 0 0 0 0 0 0 0 0 0 0 0 0 0 0 0 15 2 0 0 11 13 0 0 0
0 0 0 0 0 0 0 0 0 0 0 0 0 0 0 0 0 0 0 0 0 0 0 0 0 0 0 49 18 2 12 5 4 0 0 0 0 0 0 0 0 0 0 0 0 0 1 3 3 0 0 0 0 0
4 2 0 0 0 0 0 0 0 0 0 0 0 0 0 0 0 0 0 0 0 0 0 0 0 0 0 15 92 30 10 3 8 0 14 2 0 0 0 0 0 0 0 0 0 0 0 0 1 0 0 0 0 0
1 6 1 2 0 0 0 0 0 0 0 0 0 0 0 0 0 0 0 0 0 0 0 0 0 0 22 97 38 33 8 5 0 2 12 1 10 3 0 0 0 0 0 0 0 0 0 0 0 0 0 0 0 0
6 7 15 10 0 0 0 0 0 0 0 0 0 0 0 0 0 0 0 0 0 0 1 28 72 65 124 70 40 2 0 1 0 0 43 1 5 0 0 0 0 0 0 0 0 0 0 0 0 0 0 0 0 0
25 16 23 24 6 0 0 0 0 0 0 0 0 0 0 0 0 0 0 0 0 0 5 26 21 13 45 30 30 19 24 1 9 62 1 3 3 1 0 0 0 0 0 0 0 0 0 0 0 0 0 0 0 0
31 29 32 19 1 0 0 0 0 0 0 0 0 0 0 0 0 0 0 0 0 0 0 0 0 0 0 5 7 8 23 26 46 55 54 19 1 0 0 0 0 0 0 0 0 0 0 0 1 0 0 0 0 1
37 4 41 1 0 0 0 0 0 0 0 0 0 0 0 0 0 0 0 0 0 3 20 7 1 11 1 9 8 5 33 45 19 26 0 0 0 0 0 0 1 3 3 2 1 1 2 5 10 10 0 2 11 1
19 22 4 0 0 0 0 0 0 0 0 0 0 0 0 0 0 1 0 0 0 0 0 1 0 0 1 13 11 17 23 0 0 0 0 0 0 0 0 2 2 0 3 8 14 14 20 21 19 9 7 0 0 0
7 0 0 0 0 0 0 0 0 0 0 0 0 0 0 0 0 0 0 0 0 0 0 0 0 0 0 3 3 4 0 0 0 0 0 0 0 0 1 0 1 5 25 21 31 28 16 7 2 4 2 0 0 0
1 0 0 0 0 4 0 0 0 0 0 0 0 1 0 0 0 0 0 0 0 0 0 0 0 0 0 0 0 0 0 0 0 0 0 0 2 2 0 4 1 2 6 4 2 3 2 1 1 1 0 0 0 1
5 3 0 0 0 0 0 0 0 0 0 0 0 0 0 0 0 0 0 0 0 0 0 0 0 0 0 0 0 0 0 0 0 0 0 0 1 1 1 1 1 1 1 1 2 1 1 1 1 1 0 1 1 1
3 0 0 0 0 0 4 0 0 0 0 0 1 0 6 3 0 0 0 0 0 0 0 0 0 0 0 0 0 0 0 0 0 0 0 0 0 2 2 0 1 1 1 1 1 0 1 1 0 2 2 0 0 0
0 0 0 0 0 0 0 0 10 0 13 0 0 0 0 0 0 0 0 0 0 0 0 0 0 0 0 0 1 0 0 0 0 0 3 1 2 1 1 1 0 0 1 0 0 3 0 0 0 0 0 0 0 0
0 0 1 3 0 0 0 0 0 0 0 0 0 0 0 0 0 0 0 0 0 0 0 0 0 2 2 1 0 1 1 1 1 1 1 0 0 0 0 0 0 0 0 0 0 0 0 0 0 0 0 0 0 0
0 0 0 0 0 0 0 0 0 0 0 0 0 0 0 0 0 0 0 0 0 0 0 0 0 0 0 0 0 0 0 0 2 4 0 0 0 0 0 0 0 0 0 0 0 0 0 2 6 12 14 8 0 0
0 0 0 0 0 0 0 0 0 0 0 0 0 0 0 0 0 0 0 0 0 0 2 7 0 2 3 3 7 2 2 0 0 0 0 0 2 11 11 18 23 15 4 16 34 42 36 25 26 35 32 23 3 0
0 0 1 0 0 0 0 0 0 0 0 0 0 0 0 0 0 0 0 0 0 0 4 2 1 0 0 7 5 8 10 2 10 6 3 2 1 3 14 35 47 48 21 27 37 43 37 34 20 21 13 19 22 2
1 6 0 0 0 0 0 1 0 0 0 0 2 0 0 0 0 0 0 0 0 0 6 0 0 5 6 13 14 19 22 10 3 2 11 10 16 17 17 32 15 0 0 1 6 23 30 22 12 9 7 15 8 1
0 0 0 0 1 0 0 0 0 1 0 0 0 0 0 0 0 1 4 4 0 5 0 5 1 1 8 10 13 24 34 33 0 16 25 26 20 21 0 0 0 0 0 0 0 0 0 0 3 10 7 7 3 2
0 0 0 2 1 0 0 0 0 1 3 0 1 1 2 1 0 0 0 0 0 0 1 11 7 18 40 50 54 48 29 13 15 0 0 0 0 0 0 0 0 0 0 0 0 0 0 0 0 3 1 1 0 1
0 0 1 1 1 0 0 0 7 8 7 3 5 1 2 3 0 0 0 0 1 0 7 17 22 29 35 34 34 40 49 4 2 0 0 0 0 0 0 0 0 0 0 0 0 0 0 0 0 1 5 5 1 0
1 1 0 6 5 3 4 3 6 8 2 0 0 0 0 2 0 0 0 0 2 8 11 11 23 21 2 1 0 0 0 0 0 0 0 0 0 0 0 0 0 0 0 0 0 0 0 0 0 0 0 0 0 0
3 1 0 2 2 0 0 0 0 2 1 4 2 0 0 0 2 0 0 0 3 11 9 1 0 0 0 0 0 0 0 0 0 0 0 0 0 0 0 0 0 0 0 0 0 0 0 0 0 0 0 0 0 0

GFSWCAN_con_mlcape_042.txt.gz
CAPE
2 0 0 0 0 0 0 0 0 0 0 0 0 0 0 0 0 0 0 0 0 0 0 0 0 0 0 0 0 0 7 34 60 29 18 42 6 13 24 32 70 59 46 100 168 131 143 718 773 309 1074 1575 1334 1091
4 1 0 0 0 0 0 0 0 0 0 0 0 0 0 0 0 0 0 0 0 0 0 0 0 0 0 0 0 0 2 0 3 122 84 25 27 4 85 3 10 43 205 101 153 240 910 1234 1888 1848 2000 1890 1553 1219
1 1 0 0 0 0 0 0 0 0 0 0 0 0 0 0 0 0 0 0 0 0 0 0 0 0 0 0 0 0 0 0 0 0 119 102 156 60 27 80 114 221 319 163 89 558 1365 1754 1755 1623 1447 2094 1560 1009
2 0 0 0 0 0 0 0 0 0 0 0 0 0 0 0 0 0 0 0 0 0 0 0 0 0 0 0 0 0 0 0 0 0 40 89 65 5 45 35 62 146 239 690 315 789 1039 1670 1608 1372 1601 1970 1886 1233
1 0 0 0 0 0 0 0 0 0 0 0 0 0 0 0 0 0 0 0 0 0 0 0 0 0 0 0 0 0 0 0 0 0 2 34 0 28 18 31 32 168 306 123 315 1308 1404 1816 1459 1487 1787 1787 1513 1478
1 0 0 0 0 0 0 0 0 0 0 0 0 0 0 0 0 0 0 0 0 0 0 0 0 0 0 0 0 0 0 0 0 0 0 0 0 4 23 50 394 423 478 467 687 1106 1245 1293 1277 1930 1304 1076 1633 1601
1 0 0 0 0 0 0 0 0 0 0 0 0 0 0 0 0 0 0 0 0 0 0 0 0 0 0 0 0 0 0 0 0 0 0 0 0 0 14 15 279 340 356 668 906 968 980 949 1226 1624 1613 1171 1052 1066
1 0 1 0 0 0 0 0 0 0 0 0 0 0 0 0 0 0 0 0 0 0 0 0 0 0 0 0 0 0 0 0 0 0 0 0 0 0 0 8 78 124 202 701 708 417 297 894 1287 1054 1158 1001 744 585
2 6 7 2 0 0 0 0 0 0 0 0 0 0 0 0 0 3 0 0 0 0 0 0 0 37 0 0 0 0 0 0 0 0 0 0 0 0 0 0 0 25 93 235 230 530 228 316 684 787 651 394 111 51
6 6 7 17 0 0 0 0 0 0 0 0 0 0 0 2 0 0 0 0 0 0 0 0 0 22 70 68 40 56 15 0 0 0 0 0 0 0 0 0 0 0 0 24 117 326 241 254 237 192 90 19 0 0
8 11 4 6 0 0 0 0 0 0 0 0 0 3 0 0 0 0 0 0 0 0 0 0 0 3 38 128 97 121 87 74 4 8 0 1 0 14 0 0 0 0 0 5 92 119 96 96 70 39 13 2 0 0
0 0 1 2 0 0 0 0 0 0 0 0 0 0 0 0 0 0 0 0 0 0 0 0 0 0 17 260 161 176 78 95 15 63 5 2 112 71 5 0 0 0 0 0 0 1 10 16 15 15 11 4 0 0
0 0 2 1 0 0 0 0 0 0 0 0 0 0 0 0 0 0 0 0 0 0 0 2 0 0 47 271 186 171 66 47 134 29 26 144 165 147 96 31 0 0 0 0 0 0 0 0 0 0 0 0 0 0
0 1 2 0 0 0 0 0 0 0 0 3 4 0 0 0 0 0 0 3 4 4 58 181 46 51 169 90 123 34 115 100 54 38 97 214 313 191 54 0 0 0 0 0 0 0 0 0 0 0 0 0 0 0
2 9 5 7 0 0 0 0 0 0 0 7 1 0 0 0 0 0 0 0 0 0 150 200 172 170 116 70 85 55 48 25 70 122 224 338 299 69 0 0 0 0 0 0 0 0 0 0 0 0 0 0 0 0
7 14 15 8 1 0 0 0 0 0 0 0 2 4 3 1 2 1 2 2 0 70 163 133 78 58 63 104 47 35 19 73 203 342 274 144 16 1 0 0 0 0 0 0 0 0 0 0 1 4 5 8 8 8
20 7 11 15 1 0 0 0 0 0 0 1 10 11 14 11 20 18 46 67 72 153 109 94 21 16 105 51 39 70 177 327 354 344 253 83 1 0 0 0 3 4 4 1 0 0 2 5 13 21 24 27 11 0
18 25 2 0 0 0 0 0 0 0 0 0 11 10 0 0 9 78 110 118 101 162 108 96 139 56 48 45 71 190 329 319 211 61 0 0 0 0 1 2 3 5 12 5 12 25 31 42 28 11 23 5 3 13
12 17 0 0 0 0 2 0 0 3 3 3 2 0 0 0 72 63 0 0 3 23 52 69 36 36 45 111 147 216 209 151 94 6 0 0 1 6 2 24 0 2 6 19 40 25 17 17 7 5 5 6 12 8
1 0 0 0 1 11 1 1 0 4 20 14 2 12 44 87 68 26 1 0 0 3 20 21 27 102 109 106 201 172 102 16 0 0 3 15 16 31 16 3 19 6 5 11 9 2 18 5 3 3 2 2 3 8
4 0 0 0 4 11 36 20 2 1 3 38 47 56 58 56 50 35 33 0 1 8 18 18 37 34 73 60 54 41 11 0 0 0 0 0 22 1 0 0 9 13 2 1 7 1 2 1 2 11 31 8 9 5
1 0 0 0 5 24 12 19 25 35 36 38 50 18 45 62 31 6 0 0 1 9 0 0 0 2 1 2 3 0 1 0 0 0 2 2 0 3 4 2 9 2 1 4 9 3 1 1 8 21 0 1 8 5
0 0 11 15 21 3 20 34 68 41 47 24 13 19 23 15 0 0 0 0 2 0 0 0 0 0 0 4 4 2 3 4 2 7 7 10 10 2 9 1 0 0 1 8 18 11 3 0 0 0 0 0 23 24
0 16 40 36 13 12 11 43 19 12 20 13 16 5 1 1 0 0 0 0 0 0 0 0 1 9 7 4 6 16 17 7 6 3 1 1 0 0 5 26 25 25 21 23 24 15 2 0 0 6 11 11 11 10
0 0 0 0 0 10 22 9 0 0 2 1 1 0 0 0 0 0 0 0 1 2 8 10 22 9 0 13 2 0 2 2 18 1 0 0 0 0 3 15 11 7 11 13 18 17 17 21 26 27 31 22 14 8
0 0 2 7 12 9 3 0 0 0 0 0 0 2 0 3 0 0 1 10 5 7 36 39 0 0 24 0 2 2 2 14 20 8 8 8 4 13 10 20 18 19 28 35 23 20 21 22 30 29 27 18 2 11
0 14 9 2 11 3 3 0 0 0 0 0 2 5 2 2 0 1 4 5 18 20 26 25 22 3 1 4 1 38 33 21 26 14 25 28 25 30 38 22 29 27 26 34 27 31 43 34 31 20 12 25 8 4
5 17 7 5 12 4 7 5 4 1 5 11 11 7 0 0 2 9 3 26 2 0 24 2 3 5 11 16 36 51 49 41 51 57 53 50 56 52 62 58 56 0 14 22 28 34 39 41 32 22 9 17 14 17
9 14 8 4 2 0 0 1 6 11 13 13 9 4 3 1 0 8 4 6 3 15 4 15 16 12 14 28 40 57 58 62 46 48 49 32 52 36 44 11 0 2 9 10 0 0 25 24 23 23 15 21 22 28
0 0 8 5 1 3 8 0 0 0 0 0 0 0 0 4 7 0 1 1 0 13 14 22 30 25 54 64 57 58 53 39 16 19 6 14 23 7 1 0 3 7 8 10 19 12 0 1 1 8 11 21 31 34
0 2 1 1 2 7 3 0 0 6 4 1 1 1 8 3 1 0 0 0 12 18 33 46 48 69 79 70 74 67 55 34 30 26 4 2 1 0 5 8 15 19 20 22 25 29 29 28 29 24 34 42 22 2
1 0 1 1 3 7 8 6 6 11 10 9 4 3 3 7 8 14 20 17 16 36 44 42 90 94 63 48 65 78 7 33 30 39 40 13 4 0 1 5 13 16 14 13 21 33 38 24 23 31 26 17 6 0
2 4 6 5 5 4 0 0 3 5 9 17 18 20 22 22 21 5 1 3 15 29 48 68 53 27 40 47 45 21 1 0 0 0 0 0 0 0 8 21 21 23 23 22 23 12 3 2 5 3 1 1 0 0

GFSWCAN_con_mlcape_045.txt.gz
CAPE
1 2 3 0 0 0 0 0 0 0 0 0 0 0 0 0 0 0 0 0 0 0 0 0 0 0 0 0 0 1 0 57 44 2 2 2 4 28 38 60 315 74 144 129 133 121 322 255 610 463 1146 1351 724 828
3 11 11 0 0 0 0 0 0 0 0 0 0 0 0 0 0 0 0 0 0 0 0 0 0 0 0 0 0 0 38 35 0 108 107 67 34 9 51 68 26 184 613 505 217 598 883 1703 2481 2072 2199 1610 1305 1265
14 22 16 0 0 0 0 0 0 0 0 0 0 0 0 0 0 0 0 0 0 0 0 0 0 0 0 0 0 0 0 0 0 0 20 83 40 125 3 28 29 265 374 143 234 558 1381 1411 1811 1908 2154 2076 1446 1431
16 12 5 0 0 0 0 0 0 0 0 0 0 0 0 0 0 0 0 0 0 0 0 0 0 0 0 0 0 0 0 0 0 0 12 23 2 4 30 88 61 209 15 194 100 595 802 1517 1791 1827 2084 2358 1522 1526
13 4 2 0 0 0 0 0 0 0 0 0 0 0 0 0 0 0 0 0 0 0 0 0 0 0 0 0 0 0 0 0 0 0 3 13 8 3 70 34 34 78 511 230 626 1409 1168 2198 2031 2099 1989 1840 1758 1760
7 1 1 0 0 0 0 0 0 0 0 0 0 0 0 0 0 0 0 0 0 0 0 0 0 0 0 0 0 0 0 0 0 0 0 0 0 0 19 45 472 274 165 242 940 1208 1577 1770 1919 2033 1695 1890 1867 1935
9 1 1 0 0 0 0 0 0 0 0 0 0 0 0 0 0 0 0 0 0 0 0 0 0 0 0 0 0 0 0 0 0 0 0 0 0 0 0 16 40 251 467 988 1212 1244 1220 1407 1705 2013 1503 1447 1457 1494
19 3 1 0 0 0 0 0 0 0 0 0 0 0 0 0 0 0 0 0 0 0 0 0 0 0 0 0 0 0 0 0 0 0 0 0 0 0 0 63 266 11 450 795 474 393 544 1429 1482 1419 1412 909 385 305
22 3 1 0 0 0 0 0 0 0 0 0 0 0 0 0 0 0 0 0 0 0 0 0 1 44 16 1 34 12 0 0 0 0 0 0 0 0 2 43 33 209 391 648 355 349 127 234 743 885 638 36 4 10
15 1 2 0 1 0 0 0 0 0 0 0 0 0 0 0 0 0 0 0 0 0 0 0 0 20 0 26 39 42 53 7 36 0 0 0 0 9 2 0 0 15 41 151 295 178 163 147 284 346 422 158 8 0
2 5 2 0 7 3 0 0 0 0 0 0 0 3 0 0 0 0 0 0 0 0 0 0 0 1 9 118 60 35 119 142 46 74 0 1 0 34 44 31 1 0 0 79 354 361 256 330 194 195 149 71 47 55
0 3 18 20 17 12 0 0 0 0 0 0 0 0 0 0 0 0 0 0 0 0 0 0 0 0 63 28 146 188 100 128 146 170 71 0 226 365 135 17 2 1 2 19 73 100 123 154 109 126 116 83 39 25
16 9 6 3 23 8 0 0 0 0 0 0 0 0 1 0 0 0 0 0 0 0 0 0 0 0 1 64 136 126 100 89 140 143 78 184 517 344 197 105 22 10 7 2 0 0 1 6 3 16 30 33 21 19
0 0 0 7 25 6 0 0 0 0 0 5 0 0 0 0 0 0 0 14 42 19 9 29 55 0 66 213 177 109 91 132 80 58 112 450 346 302 175 102 60 36 30 14 4 1 12 10 12 13 21 22 26 22
0 0 6 7 13 2 0 0 0 0 13 9 0 0 0 0 0 0 5 9 0 12 89 107 114 52 98 112 121 73 78 99 81 116 447 519 364 243 208 40 42 98 40 21 9 13 15 12 18 29 32 25 15 1
2 3 11 11 3 0 0 0 0 2 7 1 3 3 0 0 1 0 0 9 22 53 177 136 69 53 100 66 83 57 41 47 185 394 455 398 291 197 144 103 54 18 25 9 5 4 6 14 13 6 3 10 9 6
9 18 9 1 0 0 0 0 6 0 11 0 1 9 8 35 27 47 41 79 86 175 159 125 60 59 126 141 78 96 143 306 378 360 456 344 248 179 136 84 65 3 6 2 4 5 2 0 15 23 30 29 14 18
8 13 2 0 0 0 0 2 24 14 0 0 12 12 19 22 30 53 44 87 131 195 261 178 270 132 94 96 130 299 401 455 356 235 197 244 224 191 82 69 36 65 9 14 76 60 70 47 27 20 27 21 19 22
15 5 0 0 0 0 3 1 4 4 0 6 33 33 21 32 82 93 88 109 142 231 205 102 123 113 108 248 267 370 484 515 297 241 166 203 141 45 9 6 179 90 2 4 29 49 47 49 25 16 18 15 25 12
0 0 0 0 0 0 0 0 0 17 25 25 27 18 29 46 139 116 74 79 79 103 115 103 104 188 305 191 253 308 269 202 104 37 31 49 32 19 35 44 15 35 12 2 23 4 25 9 8 14 4 3 4 13
0 0 0 0 8 14 15 0 12 18 24 32 36 34 31 131 123 101 87 102 105 89 59 45 102 199 290 282 118 104 143 40 8 5 4 0 14 18 15 3 0 40 7 0 10 0 27 43 41 20 6 26 14 0
0 0 5 0 25 41 26 32 28 45 36 50 30 34 120 154 127 75 47 32 74 46 65 54 56 165 117 124 67 15 1 3 4 0 3 3 20 8 2 0 5 5 1 11 32 35 20 27 17 0 0 28 6 20
0 0 27 31 23 9 26 81 70 74 67 70 50 55 63 52 47 5 27 37 49 75 21 17 25 2 0 0 2 3 6 9 9 10 18 12 10 6 5 0 0 0 4 22 23 13 0 0 0 0 13 25 30 22
0 47 36 28 16 3 40 62 59 41 52 35 28 20 31 34 1 1 0 13 7 0 0 0 0 2 15 4 18 31 16 19 19 18 6 2 10 2 22 22 17 23 25 12 3 0 0 7 2 29 23 23 16 10
11 4 3 0 16 19 13 18 27 23 14 17 15 8 15 0 2 0 0 0 3 8 8 9 15 22 29 28 30 0 0 0 4 0 0 11 0 12 35 40 43 23 19 23 28 29 30 25 25 25 34 11 3 10
0 4 1 16 8 9 14 5 0 0 3 0 1 5 0 2 0 0 2 13 14 10 16 32 35 27 17 16 0 2 10 1 4 13 0 1 0 8 5 9 23 24 37 9 20 22 26 29 15 19 23 9 0 5
0 13 23 22 18 23 16 9 4 2 0 0 4 5 0 0 0 6 24 32 36 34 39 26 21 26 12 3 0 0 13 35 22 8 2 3 10 8 16 18 24 29 36 28 24 17 19 21 23 24 24 37 20 21
8 26 2 7 15 8 6 4 0 0 1 4 1 3 6 9 20 22 26 38 26 9 12 15 2 0 1 2 16 41 46 59 36 35 46 43 38 43 39 45 17 0 7 15 20 34 12 33 36 17 21 36 24 31
14 9 5 7 9 6 12 13 5 7 7 7 15 11 21 21 19 15 18 16 2 14 13 7 2 5 21 11 35 33 27 31 34 36 23 5 24 16 55 52 0 1 19 9 0 0 0 8 15 9 27 34 39 37
25 18 3 3 4 0 9 6 27 13 10 0 0 0 0 2 1 0 0 4 21 2 16 14 16 33 40 42 45 39 46 38 43 27 13 43 31 26 38 15 21 23 28 28 22 4 0 0 1 1 4 27 38 62
10 11 4 4 0 1 19 19 9 3 0 1 1 0 0 1 3 5 6 1 10 14 13 30 23 27 30 46 13 0 6 37 13 6 14 24 17 8 25 34 39 42 41 41 40 44 53 39 41 45 37 43 54 25
0 0 1 1 0 0 7 3 3 7 4 5 1 0 0 13 11 26 22 15 27 44 32 5 11 16 45 34 33 46 3 24 15 38 27 15 29 40 44 42 40 41 42 37 47 48 47 59 40 50 54 45 23 18
0 1 4 3 3 3 0 2 8 14 20 28 21 17 12 11 13 18 26 43 54 60 50 52 54 45 51 66 57 41 9 6 0 0 0 0 0 0 15 38 60 46 46 46 44 42 32 19 16 15 9 10 9 5

GFSWCAN_con_mlcape_048.txt.gz
CAPE
2 1 1 0 2 0 0 0 0 0 0 0 0 0 0 0 0 0 0 0 0 0 0 0 0 0 0 0 0 0 13 1 0 5 0 0 0 16 5 21 59 168 117 52 162 65 112 1276 49 88 4 77 228 436
3 2 0 0 0 0 0 0 0 0 0 0 0 0 0 0 0 0 0 0 0 0 0 0 0 0 0 0 0 0 0 68 9 103 102 133 39 146 203 111 49 156 393 151 577 630 628 1166 1586 1990 1347 1229 1017 1056
2 1 1 1 1 0 0 0 0 0 0 0 0 0 0 0 0 0 0 0 0 0 0 0 0 0 0 0 0 0 0 0 0 0 24 38 297 76 128 26 40 296 12 0 24 1076 859 597 1688 859 1398 1261 1141 1157
2 2 2 4 1 0 0 0 0 0 0 0 0 0 0 0 0 0 0 0 0 0 0 0 0 0 0 0 0 0 0 0 0 0 0 5 51 27 5 0 0 15 15 246 888 781 583 1455 1471 1619 1850 1683 968 1039
2 3 6 0 3 0 0 0 0 0 0 0 0 0 0 0 0 0 0 0 0 0 0 0 0 0 0 0 0 0 0 0 0 0 0 0 19 0 0 0 0 52 97 327 840 1142 925 1682 1761 1693 1617 1399 1232 1331
2 4 6 5 1 0 0 0 0 0 0 0 0 0 0 0 0 0 0 0 0 0 0 0 0 0 0 0 0 0 0 0 0 0 0 0 10 0 0 0 5 3 27 1 188 1270 1721 1726 1757 1567 1544 1443 1536 1602
3 6 5 17 1 0 0 0 0 0 0 0 0 0 0 0 0 0 0 0 0 0 0 0 0 0 0 0 0 0 0 0 0 0 0 0 0 0 0 1 123 98 0 121 115 812 1015 1082 1647 1453 1313 1078 912 699
5 9 2 5 0 0 0 0 0 0 0 0 0 0 0 0 0 0 0 0 0 0 0 0 3 0 0 0 0 0 0 0 0 0 0 1 0 0 0 0 2 0 0 43 15 99 551 1544 725 605 246 69 78 128
13 12 2 1 0 0 0 0 0 0 0 0 0 0 0 0 0 0 0 0 0 0 0 0 0 34 1 0 10 19 6 0 0 0 0 0 0 0 0 0 0 126 214 50 0 223 192 498 812 86 0 0 5 3
23 21 1 1 1 0 0 0 0 0 0 0 0 0 0 0 0 0 0 0 0 0 0 0 0 8 54 9 0 6 13 7 0 0 1 0 0 0 0 0 26 10 15 35 253 304 220 282 316 0 0 12 0 3
15 29 13 2 0 0 0 0 0 0 0 0 0 5 0 0 0 0 0 0 0 0 0 0 0 0 35 12 78 1 12 14 74 30 7 4 6 0 21 42 57 34 17 43 159 503 366 533 205 141 95 45 64 41
40 17 10 3 0 0 0 0 0 0 0 0 0 0 0 0 0 0 0 0 0 0 0 0 0 0 60 10 70 22 0 19 24 0 271 194 444 391 198 99 43 31 56 125 122 145 142 162 86 133 65 175 146 110
2 2 3 1 3 3 0 0 0 0 0 0 0 0 0 0 0 0 0 0 0 0 0 0 0 0 0 0 6 83 28 14 147 139 200 14 400 438 251 108 9 3 13 22 15 7 6 5 8 3 81 68 55 55
0 3 5 13 8 0 0 0 0 0 0 0 4 0 0 0 0 0 0 2 14 3 0 1 13 0 1 28 23 23 42 99 86 0 0 168 473 416 327 228 130 41 39 30 23 14 11 17 15 3 21 26 56 67
2 4 6 6 4 18 7 0 0 0 0 7 1 0 0 0 0 0 33 65 31 34 62 26 71 12 43 36 80 38 77 47 95 157 177 222 373 381 283 198 189 155 81 73 38 21 30 17 22 36 49 13 27 19
3 7 7 18 28 18 0 0 0 0 1 7 3 1 0 0 3 7 1 7 2 12 21 51 57 27 28 46 27 57 27 49 63 82 205 266 284 256 235 170 133 231 182 111 67 47 36 31 32 11 17 43 1 0
6 10 16 11 4 0 0 0 0 1 3 0 0 0 1 8 4 19 36 56 49 114 92 83 64 86 38 33 85 81 114 151 167 1 4 76 170 200 258 243 193 112 107 147 19 37 33 84 62 24 17 22 17 8
7 4 7 5 0 0 1 0 11 1 0 0 11 1 12 26 17 20 36 43 66 91 116 100 166 134 88 40 92 0 2 306 239 157 133 347 366 310 202 130 108 120 152 89 85 106 196 126 32 24 33 38 28 10
6 3 0 0 4 15 22 12 15 3 0 0 9 22 13 4 36 23 49 65 71 160 145 100 59 79 116 137 153 257 387 355 106 248 247 433 255 144 93 75 27 166 173 69 72 127 127 73 5 10 7 20 23 9
0 0 0 0 0 4 2 4 0 20 11 10 18 20 26 24 35 23 51 66 31 64 55 69 59 112 36 0 109 236 244 167 16 25 69 110 178 49 110 29 47 113 111 92 102 1 56 18 23 4 0 1 21 5
1 0 0 0 3 8 36 0 2 9 51 32 20 51 42 24 44 72 51 73 54 33 58 42 124 65 336 198 135 107 169 81 4 0 0 1 0 0 1 22 29 99 47 31 66 5 55 34 32 38 25 22 17 23
0 0 0 0 12 29 30 35 38 45 22 44 41 56 71 116 126 31 88 54 65 78 95 87 291 253 249 395 338 164 25 0 0 0 2 4 8 13 23 1 7 1 19 48 65 51 37 38 11 0 12 11 7 31
0 0 9 8 18 15 5 21 28 34 21 28 29 18 86 103 115 109 57 39 39 164 145 262 337 202 40 2 0 4 5 4 1 16 33 20 9 3 12 2 0 8 12 1 35 21 0 0 0 0 13 26 24 23
0 47 21 17 21 8 26 35 70 74 83 49 38 19 22 56 29 35 39 36 41 49 7 27 0 0 10 111 15 59 33 19 19 20 19 3 3 1 7 3 13 12 20 21 0 0 1 14 4 18 29 26 24 17
18 0 1 0 28 18 8 35 32 17 19 48 33 26 23 2 27 12 25 8 16 24 20 18 5 11 15 52 21 10 2 1 9 8 0 1 8 6 12 9 37 55 45 17 11 9 18 39 31 16 17 14 1 15
0 3 0 20 27 14 17 15 2 1 0 13 14 24 0 18 13 0 9 51 11 0 1 49 70 10 60 24 18 1 10 0 2 1 0 4 3 28 33 19 20 30 40 25 21 15 11 17 9 21 22 19 1 6
0 33 29 32 23 38 20 23 18 16 9 8 21 24 9 2 0 14 21 39 52 39 31 32 39 10 40 18 2 0 1 14 19 3 14 15 21 11 21 22 34 17 32 14 6 8 13 15 15 18 24 31 29 23
3 21 16 11 7 14 10 15 9 5 4 8 6 9 10 9 14 27 16 9 6 8 26 19 9 5 8 1 0 0 6 22 36 27 6 25 42 17 18 36 48 0 7 8 22 31 14 16 22 27 14 19 17 27
10 8 11 9 10 4 13 9 10 9 7 13 17 9 38 35 22 21 12 16 14 31 22 15 0 0 0 0 2 6 35 53 22 24 20 22 41 19 14 23 0 0 0 0 0 0 0 0 16 0 1 12 32 39
16 3 7 11 7 2 8 6 2 29 27 2 1 5 2 4 4 3 6 7 30 18 6 3 3 1 22 32 31 36 33 41 55 40 63 31 47 30 37 45 37 35 32 30 23 8 0 0 0 4 4 13 15 47
11 4 4 8 3 5 26 28 28 23 4 1 0 0 0 0 0 1 16 25 14 35 9 13 30 48 39 40 5 10 9 24 37 22 31 3 8 24 43 37 43 52 39 44 41 39 35 29 40 29 34 17 38 34
0 0 0 0 4 6 9 0 0 1 2 4 3 0 3 4 5 0 0 0 9 28 16 0 5 12 17 30 14 21 1 4 20 46 29 46 26 49 51 39 49 60 51 69 52 66 63 68 74 53 68 50 16 10
1 1 0 2 1 0 0 2 5 9 1 24 23 1 3 8 2 4 3 8 24 30 33 13 8 27 29 28 44 25 12 0 0 0 0 0 0 0 3 20 25 39 29 44 40 59 38 18 17 7 3 0 0 7

GFSWCAN_con_mlcape_051.txt.gz
CAPE
3 2 2 1 2 1 0 0 0 0 0 0 0 0 0 0 0 0 0 0 0 0 0 0 0 0 0 0 0 0 1 37 53 0 0 0 0 0 1 106 141 40 5 0 6 30 0 764 597 171 38 301 392 198
2 2 3 2 1 0 0 0 0 0 0 0 0 0 0 0 0 0 0 0 0 0 0 0 0 0 0 0 0 0 0 4 23 15 42 151 305 185 164 92 126 155 108 233 500 281 244 609 514 493 142 194 187 48
2 2 3 3 1 0 0 0 0 0 0 0 0 0 0 0 0 0 0 0 0 0 0 0 0 0 0 0 0 0 0 0 0 0 0 25 16 4 79 62 0 13 25 4 0 15 348 864 1328 175 1201 744 33 18
2 2 3 2 1 0 0 0 0 0 0 0 0 0 0 0 0 0 0 0 0 0 0 0 0 0 0 0 0 0 0 0 0 0 0 0 12 29 33 0 0 4 53 0 39 26 0 0 419 1139 1291 1176 1000 1334
2 2 2 2 0 0 0 0 0 0 0 0 0 0 0 0 0 0 0 0 0 0 0 0 0 0 0 0 0 0 0 0 0 0 0 0 20 13 0 15 6 0 0 0 0 4 2 0 0 505 1431 1001 718 1341
2 2 2 2 0 0 2 0 0 0 0 0 0 0 0 0 0 0 0 0 0 0 0 0 0 0 0 0 0 0 0 0 0 0 0 0 0 0 0 0 26 7 0 0 0 0 0 0 0 260 693 718 907 960
2 3 2 0 0 2 0 0 0 0 0 0 0 0 0 0 0 0 0 0 0 0 0 0 0 0 0 0 0 0 0 0 0 0 0 0 0 0 0 0 0 0 0 0 0 0 0 0 0 4 27 138 232 237
2 3 3 0 3 13 0 0 0 0 0 0 0 0 0 0 0 0 0 0 0 0 0 0 0 0 0 0 0 0 0 0 0 0 0 0 0 0 0 0 0 0 0 0 0 0 0 0 0 29 30 54 144 134
4 4 2 7 6 13 0 0 0 0 0 0 0 0 0 0 0 0 0 0 0 0 0 0 0 0 0 0 0 0 0 0 0 0 0 0 0 0 0 0 0 0 0 22 16 21 1 147 131 81 63 26 8 3
6 12 9 20 21 1 0 0 0 0 0 0 0 0 0 0 0 0 0 0 0 0 0 0 0 0 31 18 0 10 7 4 0 0 0 0 0 0 0 0 0 0 0 0 0 27 159 106 63 84 2 9 59 88
21 6 20 28 2 0 0 0 0 0 0 0 0 1 0 0 0 0 0 0 0 0 0 0 0 0 6 17 22 0 0 0 0 38 1 0 0 0 0 0 2 0 0 67 183 225 265 171 106 126 123 89 17 16
16 9 28 6 1 0 0 0 0 0 0 0 0 0 0 0 0 0 0 0 0 0 0 0 0 0 25 5 22 0 0 0 0 0 0 32 123 133 94 83 40 22 33 37 64 34 202 152 100 45 1 62 36 19
17 27 23 3 2 0 0 0 0 0 0 0 0 0 0 0 0 0 0 0 0 0 0 0 0 0 0 0 0 71 35 4 5 41 15 13 92 14 41 53 17 33 2 0 0 14 53 166 78 56 91 44 16 53
32 4 0 3 0 0 0 0 0 0 0 0 0 0 0 0 0 0 0 0 0 0 0 0 0 0 0 0 0 0 26 48 16 5 3 14 109 1 103 191 133 83 61 27 16 47 91 91 125 139 173 69 26 0
1 2 2 1 3 2 0 0 0 0 0 0 0 0 0 0 0 0 8 28 21 10 7 22 23 8 6 12 11 11 9 33 34 14 28 102 47 54 38 66 137 185 159 92 40 49 52 56 85 92 86 30 2 0
0 0 2 4 4 3 0 0 0 0 0 0 0 0 0 0 0 12 29 31 15 11 17 29 33 27 38 24 47 40 56 31 23 112 70 0 0 27 41 98 171 131 127 148 93 64 63 79 86 53 55 2 0 0
6 2 8 7 7 1 0 0 0 0 0 0 0 0 0 4 31 61 6 27 74 48 28 46 41 46 22 28 9 66 94 100 63 35 3 1 18 75 134 150 51 70 29 37 10 1 11 81 97 26 7 6 5 1
4 19 18 11 6 1 0 0 0 0 0 0 0 0 22 33 32 3 45 57 68 48 57 80 100 113 31 43 7 0 0 2 62 0 0 36 176 200 101 65 24 19 88 71 7 55 111 54 19 5 13 16 1 1
9 7 0 1 3 1 9 0 0 0 0 0 0 2 10 2 13 0 29 50 52 118 59 124 76 50 12 4 0 2 50 57 92 89 126 139 141 62 52 2 18 131 27 2 2 37 8 24 8 2 15 17 5 0
0 0 0 0 0 0 0 2 1 3 1 0 0 8 0 6 18 39 40 16 8 37 36 57 19 22 0 0 5 51 157 220 137 87 29 147 136 80 11 0 0 17 14 70 44 0 18 12 14 5 5 10 5 17
0 0 0 0 0 0 35 0 3 14 20 24 5 7 27 0 4 29 35 56 49 23 33 79 7 9 1 17 70 125 186 206 174 60 2 5 0 10 1 0 0 5 1 0 2 1 21 22 33 43 24 15 5 0
3 0 0 0 2 21 33 41 21 37 24 25 6 31 45 10 0 13 31 80 46 109 144 94 128 57 235 274 183 169 96 21 0 0 0 0 0 0 0 0 2 1 16 3 6 12 8 35 32 19 8 12 9 30
0 0 0 0 2 6 0 0 10 5 19 13 9 29 12 7 64 31 76 21 33 74 22 23 228 140 109 41 21 110 45 5 0 40 21 21 6 0 10 5 0 5 2 0 13 3 0 0 1 0 4 18 39 34
0 3 2 8 0 2 19 22 20 17 19 12 2 1 2 58 85 61 24 57 118 59 153 77 10 3 39 76 187 116 22 2 7 14 27 8 1 1 1 0 4 20 17 28 0 0 6 16 21 16 13 19 37 43
0 0 0 0 5 8 2 19 11 13 9 30 25 0 15 42 10 0 2 50 16 79 72 76 164 155 90 137 17 0 0 0 9 19 9 2 0 2 5 11 21 50 45 52 6 15 25 20 25 9 13 0 4 4
0 1 0 19 3 12 24 5 6 9 23 24 19 33 0 6 12 0 16 69 89 103 144 157 98 19 0 8 18 0 7 0 0 14 1 2 2 2 29 38 15 28 44 36 21 10 20 19 19 16 27 19 5 4
0 2 10 25 20 37 26 18 18 25 5 2 2 0 0 0 0 19 127 122 93 65 43 9 12 5 32 12 0 0 4 4 9 15 18 18 19 31 25 13 10 11 25 36 24 29 19 15 10 33 10 22 16 29
2 11 4 4 7 5 7 5 0 0 8 19 7 9 9 12 22 33 31 2 8 3 1 1 0 7 7 2 0 0 0 0 7 27 25 1 9 23 4 21 37 3 11 0 4 16 2 9 11 23 33 43 11 6
10 5 19 10 8 12 18 9 7 12 2 4 6 15 13 14 6 5 0 0 0 12 0 7 1 0 0 0 1 0 8 34 55 42 27 33 37 11 18 27 17 0 0 0 0 0 0 0 0 0 0 0 3 9
6 0 2 10 6 6 38 32 23 13 2 0 0 0 0 3 3 0 0 1 3 4 0 0 0 1 2 3 7 17 26 39 34 14 33 34 31 3 13 32 46 11 0 4 0 0 0 0 0 0 0 14 11 15
15 1 2 3 2 9 1 0 16 19 8 7 0 0 1 0 0 1 0 8 20 11 4 1 6 8 8 5 4 27 11 8 10 21 50 57 19 30 43 69 81 73 41 37 25 37 15 3 19 11 11 13 5 11
0 0 1 0 8 9 0 0 0 0 0 0 0 1 0 0 7 0 0 6 9 11 10 1 3 32 35 23 31 11 9 23 14 0 4 7 13 1 1 8 35 26 28 8 1 39 28 37 22 21 42 54 15 6
0 0 0 0 4 4 0 0 0 1 0 0 0 1 9 1 1 5 7 13 5 0 12 18 13 18 20 32 61 12 3 0 0 0 0 0 0 0 0 3 9 2 2 9 1 23 1 2 0 0 0 0 0 0

GFSWCAN_con_mlcape_054.txt.gz
CAPE
1 2 2 2 2 1 1 0 0 0 0 0 0 0 0 0 0 0 0 0 0 0 0 0 0 0 0 0 0 0 9 2 2 8 4 0 0 0 0 25 75 13 14 0 0 0 0 540 776 294 101 167 119 6
1 2 2 2 2 1 1 0 0 0 0 0 0 0 0 0 0 0 0 0 0 0 0 0 0 0 0 0 0 0 0 0 5 0 0 0 72 14 74 107 0 69 3 13 220 301 0 50 39 0 13 59 71 97
0 2 2 2 2 2 0 0 0 0 0 0 0 0 0 0 0 0 0 0 0 0 0 0 0 0 0 0 0 0 0 0 0 0 0 0 2 0 0 0 0 0 5 0 0 0 0 0 0 0 0 0 0 14
0 1 2 2 2 2 0 0 0 0 0 0 0 0 0 0 0 0 0 0 0 0 0 0 0 0 0 0 0 0 0 0 0 0 0 0 0 6 20 0 0 0 0 0 0 0 0 0 0 0 0 0 74 289
0 1 2 2 2 2 0 0 0 0 0 0 0 0 0 0 0 0 0 0 0 0 0 0 0 0 0 0 0 0 0 0 0 0 0 0 6 0 1 4 2 0 0 0 0 0 0 0 0 0 0 0 0 10
0 1 2 2 2 2 1 0 0 0 0 0 0 0 0 0 0 0 0 0 0 0 0 0 0 0 0 0 0 0 0 0 0 0 0 0 0 0 0 0 25 0 0 0 0 0 0 0 0 0 0 0 0 0
1 1 2 2 2 2 0 0 0 0 0 0 0 0 0 0 0 0 0 0 0 0 0 0 0 0 0 0 0 0 0 0 0 0 0 0 0 0 0 0 33 0 0 9 0 0 0 0 0 0 0 0 0 0
1 1 2 2 2 3 0 0 0 0 0 0 0 0 0 0 0 0 0 0 0 0 0 0 0 0 0 0 0 0 0 0 0 0 0 0 0 0 0 0 0 0 5 3 0 0 0 0 0 0 0 0 0 31
1 2 2 3 3 0 1 2 0 0 0 0 0 0 0 0 0 0 0 0 0 0 0 0 0 0 0 0 0 0 0 0 0 0 0 0 0 0 0 0 0 0 0 0 0 0 0 0 0 20 0 0 0 7
2 2 3 2 1 3 5 0 0 0 0 0 0 0 0 0 0 0 0 0 0 0 0 0 0 0 0 0 0 0 0 0 0 0 0 0 0 0 0 0 0 6 17 0 3 2 8 78 10 23 7 8 17 0
7 3 2 0 6 23 1 0 0 0 0 0 0 0 0 0 0 0 0 0 0 0 0 0 0 0 0 2 0 0 0 0 0 0 0 1 20 30 6 0 29 1 109 217 202 48 2 92 61 62 71 47 7 0
9 12 2 3 31 29 0 0 0 0 0 0 0 0 0 0 0 0 0 0 0 0 0 0 0 0 0 0 0 0 0 0 0 0 0 10 20 9 52 35 6 11 42 47 127 239 202 189 72 14 15 58 49 20
2 26 4 12 26 11 0 0 0 0 0 0 0 0 0 0 0 0 0 0 0 0 0 0 0 0 0 0 0 0 0 0 0 0 0 0 0 0 3 47 60 48 42 75 77 146 210 183 33 98 47 36 19 2
7 15 15 7 1 0 0 0 0 0 0 0 0 0 0 0 0 0 0 0 0 0 0 0 0 0 0 0 0 0 7 7 0 0 0 0 0 0 0 0 39 37 54 90 148 149 99 186 110 116 106 43 15 7
40 4 6 2 2 0 0 0 0 0 0 0 0 0 0 0 0 0 0 0 0 0 0 0 0 0 0 3 3 0 0 3 2 0 0 60 31 0 0 1 47 54 72 46 49 40 68 94 106 76 54 23 7 0
17 6 15 2 3 0 0 0 0 0 0 0 0 0 0 0 0 0 2 6 0 9 5 12 28 17 37 8 19 6 12 2 3 0 1 0 1 16 21 36 33 41 37 24 22 21 17 70 15 3 9 2 0 0
0 1 6 6 3 0 0 0 0 0 0 0 0 0 0 0 12 0 2 16 17 7 45 42 49 56 1 12 8 3 13 0 1 0 9 1 0 15 28 25 17 6 18 25 18 2 28 115 169 122 41 0 0 0
0 3 3 2 0 0 0 0 0 0 0 0 0 0 4 4 9 9 5 53 55 52 54 46 53 27 1 0 0 0 0 0 0 0 0 0 20 33 0 0 0 1 68 31 11 30 91 49 20 3 2 0 0 0
3 6 0 0 0 0 0 0 0 0 0 0 0 0 1 2 2 7 22 32 65 48 45 53 24 3 0 0 0 0 0 0 5 8 0 3 11 12 1 0 0 0 0 0 0 0 2 1 0 7 9 0 0 0
2 2 4 0 0 0 0 0 0 0 0 0 0 1 0 0 6 11 33 34 2 19 4 4 0 0 0 0 0 0 7 16 10 0 4 8 18 17 3 0 0 0 0 8 8 0 7 5 0 2 0 0 1 2
1 2 0 0 0 0 0 0 0 0 0 4 3 7 0 0 0 5 2 6 1 0 8 0 0 0 0 0 0 0 10 0 0 0 0 0 1 15 7 0 0 3 2 3 7 10 13 17 21 11 24 6 2 9
0 0 0 0 0 0 1 2 2 1 6 0 0 0 6 0 0 0 2 33 46 45 5 1 8 1 0 37 57 6 0 0 0 0 0 0 0 0 0 0 0 0 1 3 8 14 13 26 34 44 40 30 22 17
0 0 0 0 0 0 0 1 1 0 0 0 0 0 0 0 0 0 9 25 30 74 95 79 20 0 99 118 3 0 5 0 0 0 0 0 0 0 0 0 11 4 8 10 21 28 25 22 4 3 10 13 11 27
0 0 0 0 0 0 0 0 0 0 0 0 0 0 0 3 4 15 9 28 31 8 15 23 7 3 1 9 33 62 17 0 0 0 0 0 0 1 2 0 1 4 14 15 2 0 1 4 11 17 13 10 11 12
0 0 0 0 0 0 0 0 0 0 0 0 0 0 0 0 0 0 2 9 0 32 63 51 1 0 1 13 4 0 0 0 0 3 12 11 0 4 5 13 24 25 34 39 17 3 13 13 3 2 0 0 14 23
0 0 0 0 0 0 0 0 0 0 4 4 0 0 0 1 3 0 9 8 16 17 19 0 0 0 0 0 0 0 0 0 0 4 4 2 7 9 34 33 37 32 29 48 45 27 23 10 7 10 13 24 11 10
0 6 0 0 1 1 0 1 3 3 1 0 0 0 0 0 0 11 20 21 12 3 0 0 0 0 0 0 0 0 0 0 10 7 13 4 7 13 21 37 21 15 9 11 8 18 6 15 13 20 8 15 9 17
0 1 1 1 0 0 0 0 0 7 21 5 2 1 2 3 0 2 0 0 0 0 0 0 0 0 7 15 5 0 2 2 1 10 30 38 32 12 12 13 10 3 0 0 0 0 2 7 13 17 17 13 3 4
0 0 0 0 2 5 21 4 3 3 0 5 4 1 2 0 0 0 3 0 0 0 0 0 0 0 0 0 11 1 0 0 22 43 41 39 40 36 11 7 7 1 0 0 0 0 0 0 1 4 0 0 1 5
0 0 0 0 0 0 0 1 0 0 0 0 0 0 0 0 0 0 0 0 0 0 0 0 0 0 1 3 0 2 2 4 22 22 22 19 11 11 13 22 23 21 0 0 0 0 0 0 0 0 0 0 2 8
0 0 0 0 0 0 0 0 0 0 0 0 0 0 0 0 0 0 0 0 2 1 2 0 0 0 7 12 19 16 8 0 1 3 13 11 21 14 10 5 6 16 16 2 1 0 0 0 0 0 14 11 1 10
0 0 0 0 0 0 0 0 0 0 0 0 0 0 0 0 0 0 0 0 0 0 0 9 2 1 10 10 17 33 34 18 18 0 0 0 0 0 0 7 5 10 3 1 0 0 5 3 1 6 10 11 15 14
0 0 0 0 0 0 0 0 1 1 1 0 0 0 2 7 0 0 0 0 0 0 0 0 3 17 15 35 26 33 29 10 0 0 0 0 0 0 0 0 4 1 13 12 2 4 0 0 0 0 0 0 0 0

GFSWCAN_con_mlcape_057.txt.gz
CAPE
1 0 1 2 2 2 1 0 0 0 0 0 0 0 0 0 0 0 0 0 0 0 0 0 0 0 0 0 0 0 0 3 1 0 0 0 0 0 0 0 19 9 0 0 0 0 0 72 392 255 15 0 34 18
0 0 1 1 2 2 1 0 0 0 0 0 0 0 0 0 0 0 0 0 0 0 0 0 0 0 0 0 0 0 0 0 0 0 0 0 26 0 15 47 0 82 31 45 105 75 0 2 0 0 0 0 50 77
0 0 1 1 2 2 2 0 0 0 0 0 0 0 0 0 0 0 0 0 0 0 0 0 0 0 0 0 0 0 0 0 0 0 0 0 1 0 0 0 0 6 0 0 2 10 0 0 0 0 0 0 0 47
0 0 0 1 2 2 2 1 0 0 0 0 0 0 0 0 0 0 0 0 0 0 0 0 0 0 0 0 0 0 0 0 0 0 0 0 0 2 39 0 0 0 0 0 0 0 0 0 0 0 0 0 0 0
0 0 0 1 2 2 2 1 0 0 0 0 0 0 0 0 0 0 0 0 0 0 0 0 0 0 0 0 0 0 0 0 0 0 0 0 0 18 3 26 26 0 0 0 0 0 0 0 0 0 0 0 0 0
0 0 0 1 1 2 2 1 0 0 0 0 0 0 0 0 0 0 0 0 0 0 0 0 0 0 0 0 0 0 0 0 0 0 0 0 0 0 0 2 43 1 0 0 0 0 0 0 0 0 0 0 0 0
0 1 0 1 2 2 2 1 0 0 0 0 0 0 0 0 0 0 0 0 0 0 0 0 0 0 0 0 0 0 0 0 0 0 0 0 0 0 0 0 38 0 0 0 0 0 0 0 0 0 0 0 0 0
0 0 1 1 2 2 2 0 0 0 0 0 0 0 0 0 0 0 0 0 0 0 0 0 0 0 0 0 0 0 0 0 0 0 0 0 0 0 0 0 0 0 0 0 0 0 0 0 0 0 1 0 0 0
0 1 1 2 2 2 2 0 0 0 0 0 0 0 0 0 0 0 0 0 0 0 0 0 0 0 0 0 0 0 0 0 0 0 0 0 0 0 0 0 0 0 10 9 0 0 0 0 9 6 14 0 0 0
0 3 1 2 2 2 2 1 0 0 0 0 0 0 0 0 0 0 0 0 0 0 0 0 0 0 0 0 0 0 0 0 0 0 0 0 0 0 0 0 0 0 7 0 3 24 33 1 54 20 34 34 19 42
0 4 3 2 2 1 0 1 0 0 0 0 0 0 0 0 0 0 0 0 0 0 0 0 0 0 0 0 0 0 0 0 0 0 0 0 0 0 0 0 0 1 43 99 72 39 88 112 107 35 17 30 3 1
0 10 6 5 1 1 5 0 0 0 0 0 0 0 0 0 0 0 0 0 0 0 0 0 0 0 0 0 0 0 0 0 0 0 0 0 0 0 0 0 0 1 11 25 43 122 172 169 20 0 24 15 11 7
0 9 8 2 1 13 1 0 0 0 0 0 0 0 0 0 0 0 0 0 0 0 0 0 0 0 0 0 0 0 0 0 0 0 0 0 0 0 0 1 6 6 8 12 55 50 61 97 106 91 47 5 0 0
0 0 10 0 11 7 0 0 0 0 0 3 17 0 0 0 0 0 0 0 0 0 0 0 0 0 0 0 0 0 0 0 0 0 0 0 0 0 0 0 29 35 42 40 10 5 5 61 78 59 33 4 1 0
1 2 17 19 22 14 0 0 0 0 0 5 13 0 0 0 0 0 0 0 0 0 0 0 0 0 0 0 0 0 0 0 0 0 0 0 0 0 0 2 13 28 10 5 0 0 0 2 21 19 0 0 0 0
15 27 5 32 5 1 0 0 0 0 0 0 0 0 0 0 0 0 0 0 0 0 0 0 0 0 0 0 0 0 0 0 0 0 0 0 0 0 6 1 14 0 0 0 0 0 0 0 0 0 0 0 0 0
4 20 14 0 0 0 0 0 0 0 0 0 0 0 0 0 0 0 0 0 0 0 0 0 0 0 0 0 0 0 0 0 0 0 0 0 0 0 2 8 0 0 0 0 0 0 0 0 0 0 0 0 0 0
7 7 5 0 0 0 0 0 0 0 0 0 0 0 0 0 8 5 0 0 1 2 0 0 4 2 0 0 0 0 0 0 0 0 0 0 0 0 0 0 0 0 0 0 0 0 0 0 0 0 0 0 0 0
4 2 1 0 0 0 6 0 0 0 0 0 0 0 0 0 0 0 0 0 2 3 10 2 0 0 0 0 0 0 0 0 0 0 0 0 0 0 0 0 0 0 0 0 0 0 0 0 0 0 0 0 0 0
7 7 0 0 0 0 0 0 0 0 0 0 0 0 0 1 0 0 0 3 0 0 0 0 0 0 0 0 0 0 0 0 0 0 0 0 0 0 7 0 0 0 0 0 0 0 0 0 0 0 0 0 0 0
0 1 0 0 0 0 0 0 0 0 0 4 0 0 0 0 0 0 0 0 0 0 12 0 0 0 0 0 0 0 0 0 0 0 0 0 0 0 0 0 0 0 0 0 0 2 2 7 6 0 0 0 0 0
0 0 0 0 0 0 0 0 0 0 3 1 0 0 0 0 0 0 0 0 3 9 0 0 0 0 0 0 0 0 0 0 0 0 0 0 0 0 0 0 0 1 1 0 5 18 17 12 20 30 22 17 7 6
0 0 0 0 0 0 0 0 0 0 0 0 0 0 0 0 0 0 2 4 11 6 1 0 0 0 0 6 0 0 0 0 0 0 0 0 0 0 0 0 7 29 19 7 6 15 35 41 60 44 35 15 21 46
0 0 0 0 0 0 0 0 0 0 0 0 0 0 5 4 0 0 4 6 1 0 0 23 9 4 0 0 0 0 0 0 0 0 0 0 0 0 4 1 5 14 6 0 2 4 13 9 2 14 29 29 19 23
0 0 0 0 0 0 0 0 0 0 0 0 0 0 0 0 0 0 0 0 0 0 0 6 0 0 0 0 0 0 0 0 0 0 0 1 0 2 3 0 0 3 2 9 12 6 13 17 19 12 11 0 13 19
0 0 0 0 0 0 0 0 0 0 0 0 0 0 0 0 0 0 0 0 1 3 1 1 0 0 0 0 0 0 0 0 0 6 14 12 2 0 2 13 24 29 17 39 46 38 28 20 18 18 20 11 12 16
0 0 0 0 0 0 0 0 0 0 0 0 0 0 0 0 0 0 0 0 1 0 0 0 0 0 0 0 0 0 0 0 0 2 4 1 1 0 2 7 19 18 9 15 26 41 46 30 23 24 21 17 17 12
0 0 0 0 0 0 0 0 0 0 0 0 0 0 0 0 0 0 4 0 0 0 0 0 0 0 0 0 0 0 0 0 0 0 10 14 14 14 12 13 9 14 6 2 0 13 14 16 17 21 17 14 13 6
0 0 0 0 0 0 0 0 0 0 0 0 0 0 0 0 1 0 0 0 0 0 0 0 0 0 0 0 0 0 0 0 2 15 29 34 37 30 6 13 9 10 0 0 0 0 6 7 6 4 11 4 0 0
0 0 0 0 0 0 0 0 0 0 0 0 0 0 0 0 0 0 0 0 0 0 0 0 0 0 0 0 0 0 0 0 0 7 11 17 21 19 7 0 0 7 14 19 0 0 0 0 0 0 0 0 0 1
0 0 0 0 0 0 0 0 0 0 0 0 0 0 0 0 0 0 0 0 0 0 0 0 0 0 0 0 2 13 10 0 0 10 13 14 8 3 8 13 8 4 13 34 19 12 0 0 0 0 0 0 1 1
0 0 0 0 0 0 0 0 0 0 0 0 0 0 0 0 0 0 0 0 0 0 0 2 1 5 3 4 9 6 25 23 27 26 21 0 0 0 0 0 0 6 9 3 1 0 10 0 3 1 3 27 13 8
0 0 0 0 0 0 0 0 4 10 4 11 15 2 1 1 0 0 0 0 2 6 8 1 0 0 13 18 25 40 37 43 49 23 0 0 0 0 0 0 0 6 5 5 3 0 4 4 3 7 8 0 0 0

GFSWCAN_con_mlcape_060.txt.gz
CAPE
0 2 1 1 1 2 2 2 0 0 0 0 0 0 0 0 0 0 0 0 0 0 0 0 0 0 0 0 0 0 0 3 0 0 0 0 0 0 0 0 6 0 0 0 0 0 0 8 52 210 10 0 0 35
2 0 1 2 1 1 2 1 1 0 0 0 0 0 0 0 0 0 0 0 0 0 0 0 0 0 0 0 0 0 0 0 0 0 0 0 46 0 16 52 0 57 36 37 75 24 0 0 0 0 0 0 0 8
0 1 0 2 1 1 1 1 1 0 0 0 0 0 0 0 0 0 0 0 0 0 0 0 0 0 0 0 0 0 0 0 0 0 0 0 19 3 20 1 0 15 0 0 0 0 0 0 0 0 0 0 0 0
0 1 0 0 1 1 1 1 1 0 0 0 0 0 0 0 0 0 0 0 0 0 0 0 0 0 0 0 0 0 0 0 0 0 0 0 0 3 33 13 4 1 0 0 0 0 0 0 0 0 0 0 0 0
0 0 1 0 0 1 1 1 1 0 0 0 0 0 0 0 0 0 0 0 0 0 0 0 0 0 0 0 0 0 0 0 0 0 0 0 0 27 4 24 35 9 0 0 0 0 0 0 0 0 0 0 0 0
1 0 0 0 0 1 1 1 1 0 0 0 0 0 0 0 0 0 0 0 0 0 0 0 0 0 0 0 0 0 0 0 0 0 0 0 0 0 0 18 21 0 0 0 0 0 0 0 0 0 0 0 0 0
1 1 0 0 0 1 1 1 1 0 0 0 0 0 0 0 0 0 0 0 0 0 0 0 0 0 0 0 0 0 0 0 0 0 0 0 0 0 0 0 47 10 0 0 0 0 0 0 0 0 0 0 0 0
0 0 0 1 1 1 1 1 1 0 0 0 0 0 0 0 0 0 0 0 0 0 0 0 0 0 0 0 0 0 0 0 0 0 0 0 0 0 0 0 0 28 0 0 0 0 0 0 0 0 0 0 0 0
1 1 0 1 1 2 1 1 1 0 0 0 0 0 0 0 0 0 0 0 0 0 0 0 0 0 0 0 0 0 0 0 0 0 0 0 0 0 0 0 0 4 3 16 0 0 0 0 0 0 0 2 2 2
0 1 1 1 1 1 1 2 1 0 0 0 0 0 0 0 0 0 0 0 0 0 0 0 0 0 0 0 0 0 0 0 0 0 0 0 0 0 0 0 0 0 0 7 0 0 0 0 1 0 0 0 0 10
0 0 1 1 2 2 2 2 0 0 0 0 0 0 0 0 0 0 0 0 0 0 0 0 0 0 0 0 0 0 0 0 0 0 0 0 0 0 0 0 0 0 10 21 28 61 91 76 39 13 16 2 0 0
0 0 4 2 4 2 2 0 0 0 0 0 0 0 0 0 0 0 0 0 0 0 0 0 0 0 0 0 0 0 0 0 0 0 0 0 0 0 0 0 3 1 1 18 65 130 78 18 0 25 21 6 2 1
0 0 5 6 3 2 0 0 0 0 0 0 0 16 0 0 2 0 0 0 0 0 0 0 0 0 0 0 0 0 0 0 0 0 0 0 0 0 0 0 0 1 27 52 37 30 48 54 60 31 25 14 7 1
0 0 4 13 2 1 1 0 0 0 0 11 22 6 0 0 0 0 0 0 0 0 0 0 0 0 0 0 0 0 0 0 0 0 0 0 0 0 0 0 15 19 21 16 28 16 48 74 63 15 4 0 0 0
0 0 0 21 3 6 0 0 0 0 0 28 35 7 0 0 0 0 0 0 0 0 0 0 0 0 0 0 0 0 0 0 0 0 0 0 0 0 0 2 14 15 7 2 1 11 12 26 6 0 0 0 0 0
0 1 0 31 6 5 2 0 0 0 1 6 6 12 0 0 0 0 0 0 0 0 0 0 0 0 0 0 0 0 0 0 0 0 0 0 0 0 0 13 13 7 4 0 0 0 2 5 1 0 0 0 0 0
8 1 22 3 2 3 0 0 0 0 0 8 7 0 0 0 0 0 0 0 0 0 0 0 0 0 0 0 0 0 0 0 0 0 0 0 0 0 0 1 0 2 0 0 0 0 0 0 0 0 0 0 0 0
19 47 2 0 6 0 0 0 1 0 0 0 0 0 0 0 0 0 0 0 0 0 0 0 0 0 0 0 0 0 0 0 0 0 0 0 0 0 0 0 0 0 0 0 0 0 2 1 1 0 0 0 0 0
15 1 0 0 0 0 0 0 0 0 0 0 0 0 0 0 0 0 0 0 0 0 2 0 0 0 0 0 0 0 0 0 0 0 0 0 0 0 0 0 0 0 0 0 0 0 0 0 0 0 0 0 0 0
5 3 3 3 2 0 1 0 0 0 0 0 0 0 0 0 0 0 0 0 0 0 0 0 0 0 0 0 0 0 0 0 0 0 0 0 0 0 0 0 0 0 0 0 0 0 0 0 1 0 0 0 0 0
5 1 2 0 0 0 0 0 2 0 0 0 0 0 0 0 0 0 0 0 0 0 0 0 0 0 0 0 0 0 0 0 0 0 0 0 0 0 0 0 0 0 0 0 0 0 3 5 3 0 0 0 0 0
0 0 0 0 0 0 0 0 0 0 0 0 0 0 0 0 0 0 0 0 0 0 0 0 0 0 0 0 0 0 0 0 0 0 0 0 0 0 0 0 0 0 0 0 0 2 7 10 6 0 0 0 0 6
0 0 0 0 0 1 0 0 0 0 0 0 0 0 0 0 0 0 0 0 0 0 0 0 0 0 0 0 0 0 0 0 0 0 0 0 0 0 0 0 0 0 6 10 2 4 15 1 0 16 23 28 30 43
0 0 1 1 0 0 0 0 0 0 0 0 0 0 0 0 0 0 0 0 0 0 1 4 5 6 0 0 0 0 0 0 0 0 0 0 0 0 0 3 2 4 15 3 1 1 20 27 30 11 2 7 13 19
0 0 0 0 0 0 0 0 0 0 0 0 0 0 0 0 0 0 0 0 0 0 0 0 0 0 0 0 0 0 0 0 0 0 0 0 0 0 4 4 0 4 3 8 3 0 4 8 15 10 2 2 2 1
0 0 0 0 0 0 0 0 0 0 0 0 0 0 0 0 0 0 0 0 0 0 0 0 0 0 0 0 0 0 0 0 0 3 21 21 8 0 0 4 11 13 0 8 23 24 33 21 10 9 16 21 1 19
0 0 0 0 0 0 0 0 0 0 0 0 0 0 0 0 0 0 0 0 0 0 0 0 0 0 0 0 0 0 0 0 0 1 3 1 3 2 8 13 21 11 0 16 18 18 39 60 45 27 32 26 20 15
0 0 0 0 0 0 0 0 0 0 0 0 0 0 0 0 0 0 0 0 0 0 0 0 0 0 0 0 0 0 0 0 0 0 2 5 7 15 14 15 16 17 18 15 21 0 0 15 25 26 27 23 16 6
0 0 0 0 0 0 0 0 0 0 0 0 0 0 0 0 0 0 0 0 0 0 0 0 0 0 0 0 0 0 0 0 0 0 13 18 24 8 0 0 0 3 4 1 1 0 0 0 2 0 0 0 0 0
0 0 0 0 0 0 0 0 0 0 0 0 0 0 0 0 0 0 0 0 0 0 0 0 0 0 0 0 0 0 0 0 0 0 8 14 26 26 3 0 2 17 13 17 27 11 0 0 0 0 0 0 0 0
0 0 0 0 0 0 0 0 0 0 0 0 0 0 0 0 0 0 0 0 0 0 0 0 0 0 0 0 0 0 0 0 0 1 3 13 21 5 0 0 0 1 6 14 21 23 16 0 0 0 0 0 0 0
0 0 0 0 0 0 0 0 0 0 0 0 0 0 0 0 0 0 0 0 0 0 0 0 0 0 4 5 6 8 2 3 7 22 35 35 15 0 0 0 0 0 0 0 0 6 11 5 0 0 2 5 5 20
0 0 0 0 0 1 0 0 3 29 20 27 15 4 0 0 0 0 0 0 0 0 0 0 0 0 1 4 14 13 3 14 21 14 16 20 1 0 0 0 0 0 0 0 0 2 1 3 7 11 8 18 24 33

GFSWCAN_con_mlcape_063.txt.gz
CAPE
1 2 0 2 6 1 1 1 1 1 0 0 0 0 0 0 0 0 0 0 0 0 0 0 0 0 0 0 0 0 42 60 51 14 0 0 0 0 0 0 4 0 0 0 0 0 0 28 43 312 101 12 4 46
0 1 0 3 2 3 1 1 1 1 0 0 0 0 0 0 0 0 0 0 0 0 0 0 0 0 0 0 0 0 0 0 0 70 4 28 91 12 68 13 0 56 125 168 172 25 0 39 0 0 0 0 0 0
0 0 2 2 0 3 1 1 1 1 0 0 0 0 0 0 0 0 0 0 0 0 0 0 0 0 0 0 0 0 0 0 0 0 0 16 81 13 37 13 54 21 0 18 0 0 0 19 22 0 0 0 0 1
0 0 0 0 0 2 1 1 1 1 1 0 0 0 0 0 0 0 0 0 0 0 0 0 0 0 0 0 0 0 0 0 0 0 0 0 16 10 41 25 18 31 3 0 0 0 0 0 0 0 0 0 0 0
1 0 0 0 0 0 1 1 1 1 1 0 0 0 0 0 0 0 0 0 0 0 0 0 0 0 0 0 0 0 0 0 0 0 0 0 0 43 25 38 70 34 1 0 0 0 0 0 0 0 0 0 0 3
0 1 1 0 0 0 1 1 1 1 0 0 0 0 0 0 0 0 0 0 0 0 0 0 0 0 0 0 0 0 0 0 0 0 0 0 0 0 33 45 79 19 0 0 0 3 0 6 0 0 0 0 0 5
0 0 2 0 0 0 1 1 1 1 0 0 0 0 0 0 0 0 0 0 0 0 0 0 0 0 0 0 0 0 0 0 0 0 0 0 0 0 0 0 102 27 3 0 6 14 0 0 0 0 0 0 0 3
0 0 0 0 0 1 1 1 1 1 0 0 0 0 0 0 0 0 0 0 0 0 0 0 0 0 0 0 0 0 0 0 0 0 0 0 0 0 0 0 0 51 39 16 27 68 10 4 0 0 7 11 14 14
0 1 0 1 0 1 1 1 1 2 0 0 0 0 0 0 0 0 0 0 0 0 0 0 0 0 0 0 0 0 0 0 0 0 0 0 0 0 0 0 0 0 49 70 7 0 4 14 21 19 74 59 39 73
0 0 0 1 0 1 1 1 1 0 0 0 0 0 0 0 0 0 0 0 0 0 0 0 0 0 0 0 0 0 0 0 0 0 0 0 0 0 0 4 0 0 0 0 7 73 73 136 116 90 67 30 28 64
0 0 0 2 1 1 1 1 1 0 0 0 0 0 0 0 0 0 0 0 0 0 0 0 0 0 0 0 0 0 0 0 0 0 0 0 0 0 0 19 25 20 27 30 28 276 236 204 113 114 64 47 46 31
0 0 0 8 2 1 1 0 0 0 0 0 0 0 0 17 15 0 1 0 0 0 0 0 0 0 0 0 0 0 0 0 0 0 0 0 0 0 0 7 44 90 125 128 298 312 182 126 181 111 32 20 16 7
0 0 0 8 1 1 0 0 0 0 0 0 0 19 15 0 1 2 1 0 0 0 0 0 0 0 0 0 0 0 0 0 0 0 0 0 0 0 0 24 81 111 177 154 150 122 172 210 195 198 139 79 9 0
0 0 0 12 14 2 0 0 0 0 0 0 13 5 0 0 0 0 0 0 0 0 0 0 0 0 0 0 0 0 0 0 0 0 0 0 0 0 1 42 57 35 51 101 115 115 124 167 141 68 23 5 0 0
0 0 0 28 7 2 0 0 0 0 0 0 0 0 0 0 0 0 0 0 0 0 0 0 0 0 0 0 0 0 0 0 0 0 0 0 0 0 9 20 6 4 8 10 1 38 71 100 86 5 0 0 0 0
0 1 0 16 2 0 0 0 0 0 0 1 0 2 0 0 0 0 0 0 0 0 0 0 0 0 0 0 0 0 0 0 0 0 0 0 0 0 4 12 2 2 4 6 13 11 12 41 29 0 0 0 0 0
16 0 0 2 2 0 0 0 0 0 1 18 1 0 2 0 0 0 0 0 0 0 0 0 0 0 0 0 0 0 0 0 0 0 0 24 8 0 2 1 0 0 0 0 1 24 21 20 0 0 0 0 0 0
10 0 35 1 0 0 0 1 0 0 0 0 0 0 0 0 0 0 0 0 0 0 0 0 0 0 0 0 0 0 0 0 0 0 0 0 0 11 4 0 0 0 0 0 0 0 40 53 7 1 0 0 0 0
0 7 3 0 0 0 2 0 0 1 0 0 0 0 0 0 1 0 0 0 0 0 4 0 0 0 0 0 0 0 0 0 0 0 0 0 4 67 34 0 0 3 0 0 0 0 5 10 13 1 0 0 0 0
36 6 0 0 1 0 0 0 0 0 0 0 0 5 0 5 2 2 1 0 5 10 5 2 0 0 0 0 0 0 0 0 0 0 1 0 0 1 21 11 30 0 0 0 7 0 8 1 15 1 0 0 0 0
3 10 4 2 5 0 0 0 0 0 0 3 8 0 0 0 0 0 8 2 8 7 17 0 0 0 0 0 0 0 0 0 0 0 0 0 0 0 0 0 0 1 7 15 25 17 8 21 25 33 16 3 0 0
14 11 5 0 3 0 0 1 0 0 1 5 4 0 0 0 2 0 1 31 26 9 1 0 0 0 0 0 0 0 0 0 0 0 0 0 0 0 0 14 24 18 9 22 18 9 16 13 10 21 30 52 27 33
7 1 2 8 2 0 0 0 0 2 0 0 0 0 0 0 1 0 1 7 17 0 0 0 0 0 12 0 0 0 0 0 0 0 0 0 0 0 0 2 10 25 30 32 20 23 31 16 23 44 46 35 52 63
0 5 3 6 4 1 0 0 0 0 0 0 0 0 0 1 0 0 8 38 23 5 17 5 10 15 0 0 0 0 0 0 0 0 0 0 0 1 2 15 13 9 35 55 27 30 42 15 45 74 98 100 85 77
0 0 0 0 0 0 0 0 0 0 0 0 0 0 0 0 0 0 5 23 6 6 4 5 1 0 0 0 0 0 0 0 0 0 0 0 6 6 18 9 9 29 45 27 16 5 32 59 62 50 36 42 53 59
0 0 0 0 0 0 0 0 0 0 0 0 0 0 0 0 0 0 1 10 10 10 9 0 0 0 0 0 0 0 0 0 0 2 27 24 14 6 9 12 9 24 8 10 19 9 16 32 37 36 40 34 17 6
0 0 0 0 0 0 0 0 0 0 0 0 0 0 0 0 0 0 0 0 10 0 0 0 0 0 0 0 0 0 0 0 0 8 5 15 32 20 23 36 46 58 19 36 32 27 37 49 50 71 53 54 51 51
0 0 0 0 0 0 0 0 0 0 0 0 0 0 0 0 0 0 0 0 0 0 0 0 0 0 0 0 0 0 0 0 0 0 9 20 32 38 43 47 49 21 34 54 59 62 17 14 46 66 49 56 66 70
0 0 0 0 0 0 0 0 0 0 0 0 0 0 0 0 0 0 0 0 0 0 0 0 0 0 0 0 0 3 0 0 0 15 24 34 45 39 4 9 20 59 57 58 14 4 15 4 26 29 50 54 51 62
0 0 0 0 0 0 0 0 0 0 0 0 0 0 0 0 0 0 0 0 0 0 0 0 0 0 0 0 0 9 10 2 1 0 17 28 66 67 68 19 6 26 34 40 43 53 8 0 1 0 0 0 6 10
0 0 0 0 0 0 0 0 0 0 0 0 0 0 0 0 0 0 0 0 0 0 0 1 5 3 4 4 5 11 11 10 3 3 6 18 44 77 40 0 0 0 1 5 14 34 51 53 27 3 0 0 0 1
0 0 0 0 0 0 0 0 2 4 5 0 0 0 0 0 3 6 6 0 3 6 6 4 10 20 17 16 14 20 14 25 34 66 76 96 108 115 44 0 0 0 0 0 0 0 1 21 33 22 11 38 70 22
0 0 0 0 0 1 0 4 12 32 26 19 10 9 8 0 3 3 0 0 6 13 12 10 13 13 10 15 19 50 38 55 32 2 0 0 0 0 22 3 0 0 0 0 0 0 0 0 7 16 27 44 66 75

GFSWCAN_con_mlcape_069.txt.gz
CAPE
0 0 0 0 1 1 0 2 0 1 1 0 0 0 0 0 0 0 0 0 0 0 0 0 0 0 0 0 1 0 22 75 1 41 81 23 15 0 34 54 37 48 83 51 23 52 71 637 473 958 885 763 610 665
0 0 0 0 0 0 0 5 0 1 1 0 0 0 0 0 0 0 0 0 0 0 0 0 0 0 0 0 0 0 425 6 227 161 168 118 17 6 12 26 475 6 16 760 819 610 893 550 444 289 192 308 298 319
0 0 0 0 0 1 3 1 0 1 1 0 0 0 0 0 0 0 0 0 0 0 0 0 0 0 0 0 0 0 169 29 195 92 150 49 136 35 66 105 10 423 736 58 126 498 531 553 310 149 120 150 120 151
0 0 0 0 0 2 0 0 1 1 1 1 0 0 0 0 0 0 0 0 0 0 0 0 0 0 0 0 0 0 0 0 2 15 47 60 34 5 58 175 165 223 1 275 378 28 36 100 133 127 86 133 142 167
0 0 0 0 0 0 0 0 1 1 1 0 0 0 0 0 0 0 0 0 0 0 0 0 0 0 0 0 0 0 0 0 0 0 7 33 35 56 70 3 33 112 298 221 160 229 81 422 163 66 61 128 158 191
0 0 0 0 0 0 0 0 1 1 1 1 0 0 0 0 0 0 0 0 0 0 0 0 0 0 0 0 0 0 0 0 0 0 0 0 12 57 0 95 221 168 3 83 323 48 71 41 68 18 0 59 230 308
0 0 0 0 0 0 1 1 1 1 1 1 0 0 0 0 0 0 0 0 0 0 0 0 0 0 0 0 0 0 0 0 0 0 0 0 0 0 0 31 232 165 76 58 24 0 0 19 12 0 2 22 185 407
0 0 0 0 0 0 0 1 1 1 1 1 0 0 0 0 0 0 0 0 0 0 0 0 0 0 0 0 0 0 0 0 0 0 0 0 5 0 0 197 273 81 47 0 0 0 0 0 3 15 11 118 166 206
0 0 0 0 0 0 0 0 0 1 1 1 0 0 0 0 0 0 0 0 0 0 0 0 0 26 0 0 4 0 0 0 0 0 0 0 0 8 16 111 70 52 5 21 35 26 54 77 121 133 110 92 232 408
0 0 0 0 0 1 0 1 1 1 0 0 0 0 0 0 0 0 0 0 0 0 0 0 0 38 0 0 1 0 0 1 1 0 0 0 0 106 13 15 0 0 1 3 36 39 152 105 165 180 286 387 334 284
0 0 0 0 0 2 1 1 1 0 0 0 0 0 0 0 0 1 2 0 0 0 0 0 0 7 4 20 9 9 30 22 11 40 0 22 10 48 102 3 92 134 39 31 112 285 263 304 198 333 400 173 34 54
0 0 0 0 0 1 1 1 0 0 0 0 0 0 0 0 6 1 0 1 0 0 0 0 0 0 48 56 82 14 32 36 26 101 2 5 444 518 232 248 418 442 407 411 493 487 368 435 360 304 207 164 11 14
0 0 0 0 0 1 1 0 0 0 0 0 0 2 13 12 3 0 0 0 0 0 0 0 0 4 76 45 43 45 25 37 43 6 4 357 697 534 495 360 462 582 583 552 504 440 348 310 350 158 128 124 172 198
0 0 0 0 0 1 0 0 0 0 0 0 6 2 6 1 0 0 0 0 3 5 0 0 0 20 111 51 95 56 40 55 17 8 12 165 395 372 425 352 434 468 543 484 491 470 372 259 189 188 190 184 106 86
0 0 0 0 0 1 1 0 0 0 0 3 11 0 0 1 12 8 4 6 7 1 6 0 1 100 92 70 50 36 19 2 7 14 47 570 506 581 609 550 435 418 438 476 554 627 568 407 375 371 342 215 134 53
0 0 0 0 3 2 0 0 0 0 0 6 9 1 12 15 19 11 12 11 1 7 25 6 38 65 42 44 43 28 6 3 19 17 99 645 640 563 503 411 342 329 296 388 295 218 304 328 373 485 399 171 53 18
0 0 0 1 2 2 0 0 0 0 1 15 5 11 17 13 16 5 3 0 0 33 46 2 29 54 30 20 21 19 29 39 61 44 91 373 578 560 427 246 0 1 30 19 93 236 343 353 374 298 181 97 31 6
0 9 15 2 2 2 2 2 0 2 3 0 16 25 18 26 13 13 0 7 45 45 69 24 67 47 29 4 20 39 70 74 40 62 193 543 555 433 386 102 40 38 108 47 1 2 2 77 297 238 201 127 15 10
0 2 3 0 0 0 1 0 7 11 5 23 14 19 34 19 30 50 66 130 56 120 68 84 40 18 12 66 81 58 44 61 98 118 354 525 496 459 394 249 160 171 230 244 91 1 25 475 459 303 177 13 6 4
16 0 6 0 0 7 11 14 4 13 17 14 18 40 35 38 110 191 193 125 95 158 207 124 36 82 25 110 63 74 94 156 114 128 194 302 270 420 500 437 236 318 269 212 90 18 8 271 309 305 149 4 4 4
22 25 3 0 24 55 26 6 4 10 26 12 26 34 39 103 140 172 137 118 103 142 108 31 18 192 192 214 197 164 240 171 211 213 339 264 288 247 349 484 435 253 107 38 32 22 10 33 346 468 229 14 4 2
23 9 3 3 12 5 11 25 22 15 18 24 25 3 21 47 102 193 190 194 126 101 170 152 227 294 345 322 328 260 315 182 141 0 0 0 0 3 11 23 48 41 39 13 7 28 24 158 308 453 373 103 4 0
13 6 0 0 2 0 0 16 2 12 23 22 0 0 3 41 69 128 46 50 64 259 261 289 352 333 283 283 202 103 81 78 59 53 75 40 27 32 38 25 26 13 14 29 16 30 75 213 235 120 167 76 26 2
11 0 1 1 0 1 0 12 0 1 9 4 0 2 15 5 18 11 4 92 171 232 251 295 178 144 109 116 101 115 62 36 9 10 24 69 63 25 14 36 33 21 38 47 15 67 195 327 133 60 79 51 33 21
0 0 0 0 1 3 8 2 2 3 5 1 3 6 5 37 29 34 67 117 135 95 124 130 98 63 32 24 10 21 122 0 14 36 94 61 44 93 112 140 74 92 111 141 64 59 152 221 37 1 2 26 17 33
0 0 0 0 3 1 1 5 2 5 18 27 33 45 68 36 29 31 73 142 133 134 131 109 96 50 41 27 20 40 96 20 89 176 232 88 74 79 29 44 52 58 33 47 35 14 11 7 1 0 2 15 8 31
13 21 26 15 31 31 24 18 22 22 23 28 29 25 14 17 30 106 210 237 178 170 117 81 41 25 30 35 31 35 31 78 256 239 166 64 51 58 55 81 33 80 75 21 15 13 3 10 16 24 13 23 49 28
58 104 55 52 40 30 21 17 24 28 26 22 20 8 9 13 30 161 203 154 87 52 43 37 31 26 25 34 35 36 23 32 32 43 54 59 86 73 101 60 55 2 10 41 32 56 40 25 33 43 76 88 54 63
45 45 42 49 49 40 35 35 31 40 28 15 28 17 21 34 60 68 73 61 40 35 38 17 20 24 24 13 12 15 30 37 10 21 37 19 9 19 52 97 109 102 149 129 88 40 21 19 33 50 65 62 72 58
31 23 11 2 1 6 10 14 4 1 0 0 1 6 18 23 12 3 20 27 26 16 36 46 31 41 44 45 55 64 42 51 64 52 34 35 42 70 66 54 27 26 31 48 64 85 19 12 41 61 65 39 5 18
15 4 2 5 8 8 2 2 1 6 47 28 37 11 18 13 12 14 29 43 48 66 36 21 76 81 91 54 57 14 4 3 18 108 175 159 133 99 124 148 99 169 108 34 43 57 65 57 54 43 52 57 66 70
1 10 56 19 14 7 61 63 46 46 16 13 16 27 20 21 29 82 109 98 37 67 24 67 80 101 85 82 102 140 65 141 178 157 142 121 77 79 76 42 37 15 1 14 57 55 47 37 40 30 35 30 30 31
8 17 2 7 23 21 44 11 8 13 37 51 67 40 16 50 59 109 95 135 160 135 137 135 118 85 137 169 127 123 82 104 115 37 20 12 0 0 0 15 29 29 17 31 43 61 79 74 67 76 66 59 61 55

GFSWCAN_con_mlcape_072.txt.gz
CAPE
0 0 0 0 0 2 1 0 0 2 1 0 0 0 0 0 0 0 0 0 0 0 0 0 0 0 0 0 0 0 1 100 111 154 10 9 39 201 79 0 137 215 45 19 0 0 45 542 866 1186 1171 686 622 580
0 0 0 0 0 0 1 1 0 1 1 1 0 0 0 0 0 0 0 0 0 0 0 0 0 0 0 0 0 0 0 0 146 35 297 38 1 169 4 2 0 51 0 78 854 878 832 374 326 305 426 391 294 343
0 0 0 0 0 0 0 0 3 0 1 1 0 0 0 0 0 0 0 0 0 0 0 0 0 0 0 0 0 0 0 0 42 90 30 153 40 0 38 28 55 104 129 418 68 847 626 391 119 94 127 134 164 212
0 0 0 0 0 0 0 0 1 1 1 1 0 0 0 0 0 0 0 0 0 0 0 0 0 0 0 0 0 0 0 0 0 15 0 0 24 7 0 0 54 0 0 0 190 428 165 338 268 118 149 243 244 151
0 0 0 0 0 0 2 0 0 1 1 1 0 0 0 0 0 0 0 0 0 0 0 0 0 0 0 0 0 0 0 0 0 0 3 0 1 8 35 7 146 0 0 95 88 78 146 458 158 9 23 41 60 31
0 0 0 0 0 0 0 0 0 1 1 1 0 0 0 0 0 0 0 0 0 0 0 0 0 0 0 0 0 0 0 0 0 0 0 0 5 4 0 1 85 174 22 0 147 1 2 6 48 3 0 0 0 3
0 0 0 0 0 0 0 0 1 1 1 1 0 0 0 0 0 0 0 0 0 0 0 0 0 0 0 0 0 0 0 0 0 0 0 0 0 0 7 0 300 58 131 112 181 49 0 9 0 0 0 0 0 29
0 0 0 0 0 0 0 0 2 1 1 0 0 0 0 0 0 0 0 0 0 0 0 0 4 0 0 0 0 0 0 0 0 0 0 0 0 0 0 8 310 206 136 24 3 1 0 0 14 24 19 19 20 195
0 0 0 0 0 0 0 0 0 0 0 1 0 0 0 0 0 0 0 0 0 0 0 0 0 21 0 0 0 3 0 0 0 0 0 0 0 0 34 6 209 93 48 1 26 4 8 44 40 51 127 444 491 459
0 0 0 0 0 0 0 0 0 0 0 0 0 0 0 0 0 0 0 0 0 0 0 0 0 0 0 0 22 15 0 0 4 1 0 0 0 97 165 215 183 41 0 0 0 3 30 9 28 270 376 495 510 235
0 0 0 0 0 0 0 1 1 0 0 0 0 0 0 0 0 0 2 1 0 0 0 0 0 0 0 22 33 0 79 9 13 19 6 2 20 5 158 133 51 0 0 0 0 4 40 198 324 330 237 140 78 0
0 0 0 0 0 1 4 1 0 0 0 0 0 0 0 0 5 9 1 3 1 1 0 0 0 0 11 44 109 42 51 126 43 212 152 31 367 518 171 113 47 0 5 39 65 262 204 292 364 298 412 255 26 0
0 0 0 0 0 0 1 0 0 0 0 0 0 0 7 4 5 7 1 6 3 3 0 0 0 0 15 84 207 39 6 122 55 71 28 630 945 582 316 74 40 136 131 51 105 218 318 340 338 343 232 312 363 167
0 0 0 0 0 1 1 0 0 0 0 0 2 0 10 5 1 0 1 14 29 7 0 0 0 0 8 44 23 17 41 36 101 28 76 822 865 599 144 1 17 119 129 172 347 382 374 464 337 224 218 203 193 231
0 0 0 0 0 0 1 0 0 0 0 8 19 1 0 0 23 16 23 29 26 17 1 0 0 0 36 15 17 0 69 68 20 47 482 839 638 380 211 324 266 51 227 364 372 380 483 285 0 55 300 256 194 42
0 0 0 0 0 1 2 0 0 0 0 0 9 29 26 27 22 26 28 49 36 16 5 0 0 1 2 13 36 4 0 0 21 562 867 770 646 556 455 323 319 297 339 386 352 408 390 433 107 233 467 329 72 136
0 0 0 0 3 1 0 0 0 0 0 1 10 18 51 49 58 48 35 35 21 12 16 4 1 6 0 24 19 23 0 81 57 192 622 787 701 584 551 268 0 1 10 0 0 32 124 260 319 315 131 172 83 1
0 0 0 0 1 0 0 0 0 0 5 0 25 32 19 27 41 35 24 0 0 4 17 9 46 4 9 27 23 11 26 50 135 124 739 742 655 486 261 203 33 11 61 51 62 17 38 21 25 273 425 342 27 13
0 32 1 0 0 0 1 0 1 3 0 0 0 7 52 46 49 16 22 18 28 38 10 34 34 79 26 3 1 46 45 43 72 70 645 623 374 289 233 275 183 110 133 103 125 52 5 225 357 462 337 190 22 10
1 15 0 0 0 1 10 0 0 12 23 5 1 2 19 14 19 7 12 0 11 80 52 40 7 79 130 26 19 78 132 101 30 155 255 355 283 388 485 451 313 240 384 332 246 220 93 139 416 466 387 74 13 12
25 19 9 0 2 1 41 5 0 0 12 33 33 48 31 32 34 23 15 25 100 51 33 91 29 1 283 533 233 172 354 582 206 284 160 115 248 212 315 531 614 275 91 37 113 39 27 98 295 452 512 219 16 9
19 37 15 13 12 35 31 44 22 25 11 30 82 64 25 28 20 67 62 83 120 79 2 9 0 167 251 447 539 369 277 239 24 0 0 0 0 7 23 123 142 143 191 26 14 13 35 440 591 639 480 414 8 13
20 8 4 22 31 1 10 92 44 38 14 32 22 11 11 0 2 13 24 28 24 3 0 0 0 511 396 298 177 121 55 51 63 47 66 9 53 32 108 58 38 54 26 18 30 33 49 95 279 140 371 241 97 19
4 13 34 24 1 1 3 4 14 18 15 6 0 0 0 0 4 10 0 0 0 81 262 343 392 253 121 127 215 281 146 30 19 8 40 40 25 69 70 39 14 58 12 9 32 24 158 229 154 209 138 133 60 13
0 0 0 0 1 2 9 15 9 3 4 3 1 2 2 3 0 0 4 0 10 119 102 214 41 62 33 24 32 68 59 11 19 50 144 55 34 21 113 168 121 90 77 120 128 105 258 291 321 140 111 12 10 13
0 1 0 2 1 5 6 2 0 0 6 0 0 15 0 6 1 9 85 90 5 42 64 95 47 22 22 18 46 63 36 33 47 90 94 36 9 26 13 6 21 145 58 64 39 32 25 20 14 13 16 9 0 0
0 0 0 0 12 5 1 2 0 0 0 0 15 46 33 38 30 86 85 91 81 29 24 28 31 31 21 33 41 43 37 17 29 127 112 36 21 33 56 70 45 65 41 62 16 11 16 20 23 14 24 40 25 11
1 0 0 0 0 0 5 22 15 26 55 51 33 30 60 45 28 161 115 32 34 29 32 30 32 18 13 14 39 41 21 24 31 31 29 24 40 21 4 31 25 24 40 50 52 38 41 28 39 62 64 62 23 33
78 69 61 58 29 22 32 42 47 21 38 24 4 4 24 23 35 28 31 33 33 19 19 18 28 9 10 7 10 15 22 11 15 4 0 2 3 0 0 0 26 1 4 57 63 44 60 23 1 0 0 9 34 41
39 37 50 35 15 18 28 19 8 21 20 3 13 17 17 20 26 28 19 21 18 27 27 17 40 27 25 32 20 17 17 4 8 19 9 35 80 30 84 21 6 1 0 12 1 1 0 13 53 29 33 78 121 132
50 51 21 24 23 28 19 84 54 64 142 59 37 0 6 19 26 31 62 35 26 9 21 17 11 37 5 19 32 70 42 15 71 4 0 0 18 8 0 0 9 74 47 17 0 0 17 62 115 94 51 33 42 55
25 5 14 36 106 106 48 15 11 11 5 4 5 3 13 24 33 47 19 0 12 6 0 19 13 15 15 17 0 23 20 68 53 64 6 24 47 25 5 9 28 54 38 30 38 40 40 41 55 38 44 32 19 67
20 42 38 47 91 42 40 48 27 79 54 24 9 47 55 66 19 1 18 16 2 54 63 7 15 2 9 30 22 15 1 17 0 0 0 0 0 0 0 0 0 0 0 0 2 19 59 56 58 67 83 59 29 0

GFSWCAN_con_mlcape_075.txt.gz
CAPE
0 0 0 0 0 0 0 1 0 0 6 2 0 0 0 0 0 0 0 0 0 0 0 0 0 0 0 0 0 0 0 1 7 39 37 8 53 92 219 68 8 308 157 235 307 47 29 408 510 931 623 529 539 391
0 0 0 0 0 0 0 1 0 1 3 1 1 0 0 0 0 0 0 0 0 0 0 0 0 0 0 0 0 0 0 0 2 85 86 4 0 1 1 97 0 103 212 28 9 169 385 283 413 341 201 198 195 254
0 0 0 0 0 0 0 0 0 1 2 1 1 0 0 0 0 0 0 0 0 0 0 0 0 0 0 0 0 0 0 0 0 0 39 54 14 0 0 1 2 1 0 195 56 297 155 192 199 193 108 182 178 179
0 0 0 0 0 0 0 0 0 4 2 1 1 0 0 0 0 0 0 0 0 0 0 0 0 0 0 0 0 0 0 0 0 0 0 6 14 13 11 13 11 27 4 0 122 218 232 15 143 328 330 263 170 82
0 0 0 0 0 0 0 0 0 5 1 1 1 0 0 0 0 0 0 0 0 0 0 0 0 0 0 0 0 0 0 0 0 0 12 3 0 35 5 0 90 38 0 37 34 14 0 0 0 10 2 17 80 9
0 0 0 0 0 0 0 0 0 0 2 1 1 0 0 0 0 0 0 0 0 0 0 0 0 0 0 0 0 0 0 0 0 0 0 0 0 10 0 19 177 11 1 28 173 38 2 0 8 27 0 0 0 0
0 0 0 0 0 0 0 1 0 1 1 1 1 0 0 0 0 0 0 0 0 0 0 0 0 0 0 0 0 0 0 0 0 0 0 0 0 0 0 41 136 1 17 71 75 41 80 4 1 0 0 0 3 83
0 0 0 0 0 0 0 0 1 2 1 0 1 0 0 0 0 0 0 0 0 0 0 0 0 0 0 0 0 0 0 0 0 0 0 0 0 0 0 241 98 29 12 0 1 8 0 1 41 86 247 311 294 342
0 0 0 0 0 0 0 0 1 0 0 0 0 0 0 0 0 0 0 0 0 0 0 0 0 0 0 2 0 0 0 0 0 0 0 0 0 0 102 196 284 126 96 16 3 0 20 34 37 31 44 81 14 11
0 0 0 0 0 0 0 0 0 0 0 0 0 0 0 0 0 0 0 0 0 0 0 0 0 0 0 6 4 31 1 0 0 0 0 0 0 86 234 241 119 4 14 0 0 0 3 31 27 65 17 2 28 17
0 0 0 0 0 0 0 1 0 0 0 0 0 0 0 0 0 0 0 0 0 0 0 0 0 0 0 0 0 1 72 9 6 31 1 7 150 312 220 118 19 0 0 0 0 0 77 201 108 13 80 23 0 0
0 0 0 0 0 0 5 0 0 0 0 0 0 0 0 0 0 2 0 0 0 0 0 0 0 0 0 0 0 139 7 98 170 268 52 63 368 199 75 71 0 0 0 5 45 60 130 141 96 176 114 119 43 0
0 0 0 0 0 1 2 0 0 0 0 0 0 0 0 0 1 5 0 0 0 0 0 0 0 0 1 15 112 93 76 114 74 240 20 416 452 407 215 87 2 4 23 68 166 183 216 233 210 27 57 69 308 127
0 0 0 0 0 0 1 0 0 0 0 0 0 1 1 1 0 0 0 3 7 11 0 0 0 0 2 0 61 1 0 50 28 4 114 591 715 406 128 130 85 50 68 107 182 303 256 145 13 2 0 17 40 247
0 0 0 0 0 0 1 0 0 0 0 4 10 1 0 0 0 1 6 8 14 22 1 0 0 0 1 73 105 48 10 47 61 165 653 753 496 227 195 195 44 67 55 64 66 156 215 61 0 0 0 0 0 112
0 0 0 0 0 0 2 0 0 0 0 0 5 1 7 11 3 7 11 4 12 22 0 0 0 0 20 21 12 29 0 4 149 731 825 611 525 507 321 198 52 39 33 21 17 31 78 263 216 44 0 99 1 140
0 0 0 0 0 1 0 0 0 0 10 1 0 38 27 12 55 28 13 9 44 18 0 0 0 0 7 4 10 0 39 250 773 787 783 694 482 447 185 1 0 0 0 0 0 0 0 0 20 184 132 131 81 20
0 0 0 0 1 0 0 0 0 0 2 0 0 45 50 52 32 8 46 31 0 0 12 18 25 1 4 0 20 46 170 343 759 646 596 591 547 302 257 0 0 0 9 6 2 0 1 15 36 179 183 218 113 19
1 0 0 1 0 0 0 0 3 9 0 0 0 0 0 4 47 21 10 41 37 70 46 36 11 22 16 11 30 4 54 100 149 468 543 443 265 114 106 104 85 41 48 15 21 5 73 1 142 209 300 208 116 19
3 2 3 0 3 23 18 3 4 5 10 0 0 0 6 2 38 18 24 21 2 14 21 34 13 45 38 48 3 30 157 263 353 269 281 268 231 187 165 68 151 50 36 120 258 269 213 262 343 396 319 147 6 0
9 22 22 8 4 10 40 1 0 0 0 27 44 14 15 5 0 2 23 45 29 8 24 66 59 0 0 1 0 0 0 134 390 345 220 93 87 385 320 308 353 380 257 36 22 21 27 110 205 516 253 128 77 19
15 21 4 5 11 13 28 11 5 11 0 14 65 86 31 20 54 30 35 37 3 2 15 21 0 1 0 0 57 259 187 280 30 0 59 4 0 213 283 303 216 91 71 22 31 15 25 263 358 281 162 363 305 70
14 4 2 7 3 3 2 40 5 10 14 25 37 28 16 10 26 8 1 13 11 14 0 0 0 0 0 6 26 230 98 46 112 84 60 18 17 74 102 70 26 23 60 33 21 32 54 94 101 120 147 185 228 101
0 3 0 1 3 1 7 39 32 16 12 3 1 1 0 3 0 0 0 2 10 21 24 1 0 0 0 0 4 291 347 195 23 54 44 60 58 52 19 81 57 63 45 76 83 54 21 131 84 74 149 189 13 14
16 11 1 0 3 1 9 7 6 10 5 2 3 2 11 1 0 0 14 14 5 0 0 6 0 0 0 23 240 304 92 101 78 87 62 53 18 17 8 26 18 17 116 60 76 84 173 144 95 60 46 26 27 0
0 0 0 1 1 0 6 4 3 4 3 0 0 17 5 9 2 0 0 0 0 0 13 46 69 63 59 34 88 164 76 70 48 74 46 29 20 12 13 19 36 52 56 44 78 47 43 37 21 17 17 29 21 1
0 0 0 0 7 1 0 0 0 0 0 0 0 0 0 3 15 14 8 0 4 21 75 49 46 53 43 88 76 56 28 22 95 72 72 63 13 17 28 51 39 26 8 3 3 9 24 31 29 24 22 18 10 5
0 1 0 1 3 0 2 7 7 3 0 0 6 15 42 39 5 63 35 30 45 46 38 35 29 30 22 14 29 27 26 36 32 35 19 34 23 18 22 1 25 18 32 1 0 0 1 8 49 32 26 34 9 12
3 0 1 0 0 1 0 1 16 28 71 66 54 38 64 103 118 82 85 64 53 41 37 30 32 33 20 19 18 10 26 15 28 24 29 38 24 16 10 14 3 18 82 21 0 1 0 3 12 14 11 27 24 16
31 0 5 0 11 13 32 82 89 40 6 5 1 18 37 38 16 32 40 50 44 54 19 9 33 28 41 28 38 40 9 8 28 24 13 4 2 0 15 6 27 21 11 0 5 52 15 7 8 19 47 95 11 26
70 154 106 93 60 63 104 91 77 58 43 19 30 30 36 50 13 1 6 16 10 13 9 17 8 26 83 37 28 68 35 9 29 27 8 18 20 33 36 39 39 10 11 21 25 33 98 45 10 28 55 8 2 19
65 64 68 41 56 69 44 16 21 13 14 10 27 39 5 0 0 0 7 8 9 42 8 46 53 30 19 26 1 6 19 20 27 40 25 0 0 0 0 0 0 7 14 33 46 46 69 21 2 2 11 7 0 0
34 21 24 24 36 68 83 43 42 44 38 48 43 67 24 14 8 27 31 19 22 28 49 37 36 25 48 44 0 4 4 4 0 0 0 0 0 0 0 0 0 0 0 0 0 0 0 0 0 0 0 0 0 0

GFSWCAN_con_mlcape_078.txt.gz
CAPE
0 0 0 0 0 0 0 0 1 0 1 4 5 1 0 0 0 0 0 0 0 0 0 0 0 0 0 0 0 0 0 0 45 0 0 0 0 0 3 5 0 49 64 18 18 166 96 420 371 544 530 129 74 78
0 0 0 0 0 0 0 0 1 1 0 5 4 1 0 0 0 0 0 0 0 0 0 0 0 0 0 0 0 0 0 0 6 0 0 0 0 0 0 3 0 12 63 38 0 107 50 177 380 273 216 322 163 170
0 0 0 0 0 0 0 0 0 1 3 6 3 2 0 0 0 0 0 0 0 0 0 0 0 0 0 0 0 0 0 0 2 0 0 13 2 0 0 0 7 3 0 218 146 43 8 55 120 211 131 145 136 222
0 0 0 0 0 0 0 0 0 1 2 1 2 1 0 0 0 0 0 0 0 0 0 0 0 0 0 0 0 0 0 0 0 0 0 0 4 0 0 0 1 3 5 0 259 100 23 18 0 10 142 142 169 278
1 0 0 0 0 0 0 0 0 0 5 2 2 1 0 0 0 0 0 0 0 0 0 0 0 0 0 0 0 0 0 0 0 0 0 1 0 0 0 1 0 20 4 0 2 131 30 0 2 0 2 14 37 126
0 0 0 0 0 0 0 0 0 1 8 3 1 1 0 0 0 0 0 0 0 0 0 0 0 0 0 0 0 0 0 0 0 0 0 0 0 0 0 3 15 92 3 29 12 0 0 0 0 0 7 0 29 0
0 0 0 0 0 0 0 0 0 1 1 6 1 0 0 0 0 0 0 0 0 0 0 0 0 0 0 0 0 0 0 0 0 0 0 0 0 0 0 0 0 23 3 1 4 20 2 1 0 0 9 116 181 377
0 0 0 0 0 0 0 0 0 1 4 3 0 0 0 0 0 0 0 0 0 0 0 0 0 0 0 0 0 0 0 0 0 0 0 0 0 0 0 0 29 0 0 4 15 22 3 1 131 221 208 167 106 65
0 0 0 0 0 0 0 0 1 1 0 0 0 0 0 0 0 0 0 0 0 0 0 0 0 0 0 0 0 0 0 0 0 0 0 0 0 0 0 12 67 9 2 3 15 41 48 80 74 51 22 7 8 49
0 0 0 0 0 0 0 1 1 0 0 0 0 0 0 0 0 0 0 0 0 0 0 0 0 0 0 0 0 0 0 0 0 0 0 0 0 0 3 151 127 89 38 19 0 18 5 4 21 20 11 0 0 8
0 0 0 0 0 0 0 1 0 0 0 0 0 0 0 0 0 0 0 0 0 0 0 0 0 0 0 0 0 0 15 5 0 2 0 0 13 193 196 221 134 16 0 0 0 0 2 51 23 30 13 0 0 0
0 0 0 0 0 0 1 0 0 0 0 0 0 0 0 0 0 0 0 0 0 0 0 0 0 0 0 0 0 29 94 0 68 161 41 117 282 99 4 3 2 41 47 28 34 76 134 29 30 31 7 0 0 0
0 0 0 0 0 4 1 0 0 0 0 0 0 0 0 0 0 0 0 0 0 0 1 0 0 0 0 0 7 7 27 15 0 112 38 193 233 106 92 9 35 66 45 41 131 72 20 16 9 4 12 1 1 23
0 0 0 0 0 1 0 0 0 0 0 0 0 0 0 0 0 0 0 0 0 0 0 0 0 0 0 0 40 25 0 0 77 2 120 313 212 143 64 71 58 20 43 42 12 15 13 4 0 0 0 0 0 4
0 0 0 0 0 0 1 1 0 0 0 4 0 0 0 0 0 0 0 0 0 0 0 0 0 0 0 74 32 5 0 0 73 142 133 433 221 70 104 75 37 12 9 22 8 0 0 0 0 0 0 0 0 1
0 0 0 0 0 0 3 1 0 0 0 2 0 0 0 0 0 0 0 0 0 0 2 0 0 0 3 50 29 21 5 0 13 440 653 410 249 206 137 62 24 0 0 0 0 0 0 0 0 0 0 3 0 1
0 0 0 0 0 0 0 0 0 2 1 2 0 0 0 0 0 0 0 0 0 0 1 0 0 0 2 10 1 0 3 0 71 532 531 310 171 81 34 9 0 0 0 0 0 0 0 0 0 4 13 24 25 15
0 0 0 0 5 4 0 0 6 0 1 0 0 0 0 0 2 0 12 0 0 0 1 3 9 0 5 1 31 41 0 0 35 367 414 372 314 75 25 0 0 0 0 0 0 0 1 1 0 13 28 12 14 0
0 0 0 2 0 1 6 1 1 0 0 0 0 0 0 0 0 1 12 5 5 0 0 4 5 0 32 57 41 44 12 55 8 89 201 285 254 120 30 3 17 8 3 3 9 7 39 22 25 14 27 92 52 10
0 0 0 8 9 10 13 3 1 4 7 0 0 0 0 0 0 2 15 3 0 0 0 0 7 30 49 34 18 2 0 3 25 49 27 82 90 61 48 31 21 7 5 24 56 10 15 110 135 226 135 51 17 44
8 17 29 18 27 21 24 0 0 0 0 0 3 9 0 0 0 0 0 6 0 0 0 0 0 14 12 1 4 0 0 0 42 22 50 35 74 183 160 148 137 179 54 19 15 8 13 6 15 248 222 107 12 14
12 36 5 15 22 13 6 8 8 2 0 0 4 28 29 24 21 8 1 7 11 6 0 0 9 11 12 7 0 0 0 1 7 72 51 14 14 36 80 118 126 51 75 17 14 17 14 204 310 318 183 184 149 57
29 25 14 10 7 2 0 34 14 10 22 13 25 0 3 0 11 2 0 0 0 0 0 0 0 6 7 0 1 0 4 23 37 81 47 35 15 21 31 29 20 19 22 13 2 0 2 48 41 77 88 80 75 64
13 4 0 0 0 0 0 23 11 6 0 2 2 2 0 0 0 0 0 0 13 8 0 0 0 0 0 0 0 0 12 5 48 42 55 39 35 20 6 9 26 12 12 8 11 10 24 38 67 75 46 15 9 15
13 0 0 0 4 4 2 2 7 18 0 1 0 0 0 0 0 0 0 1 1 0 0 0 0 0 0 0 0 0 7 22 63 55 34 26 15 7 6 8 16 27 14 24 33 11 14 19 38 49 35 21 17 10
0 0 1 0 0 0 7 1 0 0 2 2 0 12 3 8 7 3 0 0 3 0 0 0 1 0 0 0 0 1 49 75 30 18 22 23 21 17 25 33 38 35 14 6 1 3 2 14 15 20 13 29 32 26
0 0 0 0 1 7 3 2 1 3 5 4 0 0 1 3 2 0 0 0 6 15 29 27 39 30 18 26 10 25 62 46 57 39 36 18 25 29 40 44 24 31 18 13 6 1 0 0 0 12 7 15 29 30
0 0 1 0 0 0 0 0 0 2 10 13 0 4 2 9 0 2 1 11 0 11 27 21 19 23 28 24 29 29 21 21 22 14 22 23 23 22 3 2 0 0 5 20 7 0 0 0 0 4 13 4 16 17
1 0 5 2 0 3 2 4 0 0 0 1 13 12 17 1 8 29 23 28 11 37 24 39 30 22 20 25 17 25 13 27 37 47 36 4 0 0 3 2 1 1 3 9 21 2 1 0 2 4 3 0 0 0
0 1 2 0 0 0 4 0 25 42 47 27 0 0 0 0 5 10 21 17 12 2 19 20 14 24 6 23 32 13 22 26 6 8 4 1 0 0 8 19 9 8 11 15 4 6 20 18 18 14 11 16 16 3
0 0 1 0 49 41 41 55 71 64 34 20 18 0 2 0 1 1 3 4 6 18 39 40 26 17 12 3 2 4 2 11 27 12 1 2 0 0 0 0 0 0 3 10 18 12 4 0 0 12 10 5 0 0
23 31 24 8 37 34 29 32 38 34 30 7 1 0 0 0 0 1 4 15 26 21 18 21 30 26 25 5 0 0 0 1 1 0 0 0 0 0 0 0 0 0 0 0 0 0 0 0 0 0 0 0 0 0
27 25 23 20 21 23 29 3 14 13 6 18 16 1 1 2 10 11 14 25 27 16 5 0 15 8 0 0 0 0 0 0 0 0 0 0 0 0 0 0 0 0 0 0 0 0 0 0 0 0 0 0 0 0

GFSWCAN_con_mlcape_081.txt.gz
CAPE
1 1 0 0 0 0 0 0 0 0 2 0 3 11 4 0 0 0 0 0 0 0 0 0 0 0 0 0 0 0 0 0 0 0 0 0 0 0 0 21 0 11 81 31 11 124 76 387 499 540 489 552 638 671
2 1 0 0 0 0 0 0 0 0 0 0 0 15 4 0 0 0 0 0 0 0 0 0 0 0 0 0 0 0 0 0 0 0 0 0 0 0 0 0 0 4 32 35 9 237 177 188 342 411 503 520 445 439
3 0 0 1 0 0 0 0 0 1 0 0 5 17 1 0 0 0 0 0 0 0 0 0 0 0 0 0 0 0 0 0 0 0 0 0 0 0 0 0 0 0 0 206 86 197 95 283 294 275 209 233 299 368
3 0 0 1 0 0 0 0 0 0 2 7 13 10 4 0 0 0 0 0 0 0 0 0 0 0 0 0 0 0 0 0 0 0 0 0 0 0 0 0 1 21 7 0 163 177 63 97 160 60 50 130 238 377
3 0 0 0 0 0 0 0 0 0 1 5 9 7 5 0 0 0 0 0 0 0 0 0 0 0 0 0 0 0 0 0 0 0 0 0 0 0 1 0 0 30 9 1 4 97 8 51 62 1 0 37 6 0
2 0 1 0 0 0 0 0 0 0 2 3 4 7 0 0 0 0 0 0 0 0 0 0 0 0 0 0 0 0 0 0 0 0 0 0 0 0 0 0 0 48 25 15 52 36 3 0 0 0 0 0 6 14
3 1 1 0 0 0 0 0 0 0 14 4 7 2 0 0 0 0 0 0 0 0 0 0 0 0 0 0 0 0 0 0 0 0 0 0 0 0 0 0 0 29 24 1 40 69 37 1 0 0 0 37 33 30
0 1 0 0 0 0 0 0 0 2 4 5 6 1 0 0 0 0 0 0 0 0 0 0 0 0 0 0 0 0 0 0 0 0 0 0 0 0 0 0 0 49 18 12 21 40 29 7 144 159 292 73 9 16
1 0 0 0 0 0 0 0 1 0 12 11 0 0 0 0 0 0 0 0 0 0 0 0 0 0 0 0 0 0 0 0 0 0 0 0 0 0 0 0 55 15 14 1 0 0 6 36 212 32 5 4 0 0
1 0 0 0 0 0 0 0 0 0 0 0 0 0 0 0 0 0 0 0 0 0 0 0 0 0 0 0 0 0 0 0 0 0 0 0 0 0 0 0 71 36 19 25 0 62 98 191 27 5 0 0 0 0
0 0 0 0 0 0 0 0 1 0 0 0 0 0 0 0 0 0 0 0 0 0 0 0 0 0 0 0 0 0 7 3 0 0 0 0 0 0 7 56 129 131 92 11 0 3 61 17 0 0 0 0 0 0
0 0 0 0 0 0 4 2 0 0 0 0 0 0 0 0 0 0 0 0 0 0 0 0 0 0 0 0 0 33 84 54 6 0 30 96 141 166 165 175 70 4 0 0 0 0 2 38 14 10 0 0 0 0
2 0 0 0 0 0 4 0 0 0 0 0 0 0 0 0 0 0 0 0 0 0 0 0 0 0 0 0 0 9 25 27 0 21 27 102 174 62 0 44 114 157 182 190 139 84 23 21 47 42 14 0 0 0
0 0 0 0 1 1 0 0 0 0 0 7 5 0 0 0 0 0 0 0 0 0 0 0 0 0 0 0 11 15 6 0 6 20 50 185 128 21 11 69 104 121 164 140 70 10 10 5 0 0 0 0 0 0
2 0 0 0 0 2 1 0 0 0 0 0 0 0 0 0 0 0 0 0 0 0 0 0 0 0 0 20 7 8 2 0 0 47 54 180 100 77 42 50 36 25 16 1 0 0 0 0 0 0 0 0 0 0
0 0 0 0 0 4 0 0 0 0 0 0 0 0 0 0 0 0 0 0 0 0 0 0 0 0 0 19 37 47 6 0 3 0 24 70 12 26 34 19 32 20 4 0 0 0 0 0 0 0 0 0 0 0
0 0 0 0 2 0 0 0 0 1 1 0 0 0 0 0 0 0 0 0 0 0 0 0 0 0 0 6 11 18 15 0 0 0 18 12 61 39 3 6 0 0 0 0 0 0 0 0 0 0 0 0 0 0
0 0 0 13 14 3 0 0 6 0 1 0 0 0 0 0 0 0 0 0 0 0 0 0 0 0 4 3 22 32 20 22 1 0 1 28 1 13 1 0 0 0 0 0 0 0 0 1 0 0 0 0 0 0
0 0 3 7 3 3 5 0 2 0 0 0 0 0 0 0 0 0 0 0 0 0 0 0 4 0 8 35 15 9 7 1 6 0 0 0 0 41 5 0 0 0 0 8 15 16 20 31 18 16 4 4 2 0
0 0 14 9 13 6 2 0 0 0 0 0 0 0 0 0 0 0 0 0 0 0 0 0 0 1 9 12 3 1 0 0 15 14 18 9 4 29 40 32 22 1 4 14 13 2 15 27 47 17 15 42 32 13
4 14 26 9 15 15 5 0 0 0 0 0 0 0 0 0 0 0 0 0 0 0 0 0 0 0 0 5 5 0 9 0 0 0 0 1 4 14 24 40 39 59 52 37 37 22 13 10 1 9 26 151 118 42
2 30 12 4 4 0 0 0 0 0 0 0 0 1 0 0 0 0 0 0 0 0 0 0 0 0 0 0 0 0 0 0 0 0 0 0 23 20 65 64 94 58 62 27 22 22 13 5 10 49 118 196 117 116
22 11 4 1 0 0 0 0 0 0 0 0 0 0 0 0 0 0 0 0 0 0 0 0 0 1 0 0 0 0 0 0 1 9 6 20 24 26 43 26 11 6 8 4 3 15 10 4 12 15 28 20 67 80
10 4 1 0 0 0 0 5 0 0 0 2 0 0 0 0 0 0 0 0 0 1 0 0 0 0 0 0 0 0 0 0 2 20 10 25 36 11 5 8 5 5 9 19 19 20 10 15 16 41 39 18 9 9
1 0 0 0 0 4 1 8 11 11 0 0 0 0 5 0 0 0 0 0 1 3 5 2 0 0 0 0 0 0 0 14 40 68 22 21 24 1 1 2 13 22 17 9 9 21 18 16 31 40 40 25 19 22
0 0 0 0 0 1 15 8 0 0 0 0 0 0 15 1 1 3 5 2 3 0 0 0 0 0 0 0 2 0 35 14 8 26 10 0 0 6 24 35 25 24 19 24 3 7 3 6 2 5 7 6 14 15
0 0 0 0 0 2 5 4 0 0 0 2 30 13 4 1 1 0 0 2 0 12 9 6 10 10 10 4 0 0 4 6 4 10 4 9 11 12 14 10 5 4 5 7 11 4 0 0 0 0 3 5 2 1
0 0 0 0 0 0 1 0 5 1 0 11 2 5 4 2 5 17 4 3 0 7 0 8 14 16 12 7 11 5 3 3 8 14 8 2 0 0 1 0 0 0 0 0 0 2 0 0 0 2 4 0 0 0
0 0 0 0 0 3 2 16 4 0 0 5 2 22 48 14 17 15 5 7 13 16 20 24 15 11 7 8 1 3 4 11 23 15 3 0 0 0 0 0 0 0 3 2 7 4 0 0 0 3 0 0 2 10
0 0 2 0 0 0 0 0 0 0 0 5 1 0 6 19 29 14 3 6 11 5 7 2 2 2 11 23 27 20 10 1 0 1 0 1 0 0 0 0 0 0 0 0 0 0 0 4 18 14 14 14 3 9
0 0 3 0 0 0 0 3 6 2 0 1 1 6 5 14 6 2 5 5 0 0 0 10 8 1 1 3 2 9 14 5 0 0 0 0 0 0 0 0 0 0 0 0 0 0 0 0 0 0 1 0 0 0
0 0 0 17 24 21 22 19 16 9 0 0 0 0 4 2 0 10 7 0 0 0 0 2 0 0 0 3 4 0 0 0 0 0 0 0 0 0 0 0 0 0 0 0 0 0 0 0 0 0 0 0 0 0
0 5 10 8 18 17 5 0 4 4 2 5 3 2 3 0 0 0 0 0 0 0 0 0 0 0 0 0 0 0 0 0 0 0 0 0 0 0 0 0 0 0 0 0 0 0 0 0 0 0 0 0 0 0

GFSWCAN_con_mlcape_084.txt.gz
CAPE
2 0 0 3 1 0 0 0 0 0 0 0 0 4 18 6 0 0 0 0 0 0 0 0 0 0 0 0 0 0 0 0 0 0 0 0 0 0 0 0 2 0 8 8 1 93 71 340 583 487 391 441 347 372
1 1 0 5 1 0 0 0 0 0 0 2 1 0 16 12 0 0 0 0 0 0 0 0 0 0 0 0 0 0 0 0 0 0 0 0 0 0 0 0 0 6 4 28 0 56 105 98 356 349 366 455 397 434
2 0 0 4 0 0 0 0 0 0 0 1 0 1 14 7 0 0 0 0 0 0 0 0 0 0 0 0 0 0 0 0 0 0 0 0 6 0 0 0 0 0 0 31 44 76 177 240 249 203 138 210 361 362
2 1 0 3 0 0 0 0 0 0 0 0 0 13 26 2 0 0 0 0 0 0 0 0 0 0 0 0 0 0 0 0 0 0 0 0 0 0 0 0 0 0 0 0 7 69 119 130 119 3 22 105 322 220
2 0 0 2 0 0 0 0 0 0 0 1 9 19 17 2 0 0 0 0 0 0 0 0 0 0 0 0 0 0 0 0 0 0 0 0 0 0 0 0 1 9 0 6 18 39 33 21 10 0 1 5 15 36
1 0 0 1 0 0 0 0 0 0 2 2 10 24 10 3 0 0 0 0 0 0 0 0 0 0 0 0 0 0 0 0 0 0 0 0 0 0 0 0 0 0 20 14 70 59 20 0 0 0 0 0 0 16
0 0 1 0 1 0 0 0 0 0 3 3 9 11 3 0 0 0 0 0 0 0 0 0 0 0 0 0 0 0 0 0 0 0 0 0 0 0 0 0 0 0 54 51 65 87 74 38 6 16 0 149 51 57
0 0 2 1 0 0 0 0 0 0 3 10 14 1 0 0 0 0 0 0 0 0 0 0 0 0 0 0 0 0 0 0 0 0 0 0 0 0 0 0 0 0 23 32 100 110 54 31 129 136 319 67 7 2
0 1 0 1 0 0 0 0 3 2 13 5 0 0 0 0 0 0 0 0 0 0 0 0 0 0 0 0 0 0 0 0 0 0 0 0 0 0 0 0 0 5 30 37 53 49 12 15 209 245 6 7 0 0
1 2 1 0 0 0 0 0 0 4 0 0 0 1 10 0 0 0 0 0 0 0 0 0 0 0 0 0 0 0 0 0 0 0 0 0 0 0 0 0 0 5 15 19 27 7 31 36 122 10 6 0 0 0
3 1 1 0 0 0 0 0 1 0 0 0 3 0 0 0 0 0 0 0 0 0 0 0 0 0 0 0 0 0 2 3 2 0 0 0 0 0 0 0 0 11 18 52 0 0 89 29 65 8 16 4 0 0
2 2 0 0 0 0 0 2 0 0 0 0 0 0 0 0 0 0 0 0 0 0 0 0 0 0 0 0 0 3 73 60 31 0 15 42 51 100 54 105 123 155 81 0 0 0 15 123 56 12 9 4 1 0
2 0 0 0 0 0 0 0 12 0 0 0 0 0 0 0 0 0 0 0 0 0 0 0 0 0 0 0 0 27 28 51 2 20 54 18 158 75 74 85 59 47 109 58 7 0 0 22 15 6 1 0 0 0
0 0 0 0 0 4 6 16 0 0 0 16 4 0 0 0 0 0 0 0 0 0 0 0 0 0 0 0 0 31 23 9 33 36 21 17 35 22 78 140 159 158 168 141 100 57 29 16 0 0 0 0 0 0
3 0 2 5 10 17 16 2 0 0 0 0 0 0 0 0 0 0 0 0 0 0 0 0 0 0 0 1 44 23 24 18 11 0 0 0 9 8 56 123 122 145 110 82 20 1 0 0 0 0 0 0 0 0
0 1 0 4 6 6 1 0 0 0 0 0 0 0 0 0 0 0 0 0 0 0 0 0 0 0 0 5 30 31 32 8 0 0 0 25 1 1 0 67 63 30 10 1 0 0 0 0 0 0 0 0 0 0
0 0 6 9 10 0 0 0 0 6 3 0 0 0 0 0 0 0 0 0 0 0 0 0 0 0 0 0 3 4 23 17 12 0 2 16 24 0 0 0 3 6 0 0 0 0 0 0 0 0 0 0 0 0
0 0 11 6 5 0 0 0 4 0 0 0 0 0 0 0 0 0 0 0 0 0 0 0 0 0 0 0 14 15 7 3 0 0 0 0 0 0 0 0 0 0 0 0 0 0 0 0 0 0 1 7 16 16
0 0 29 30 12 0 0 2 0 0 0 0 0 0 0 0 0 0 0 0 0 0 0 0 0 0 0 2 1 0 0 0 14 3 0 0 0 0 0 1 0 0 0 3 6 6 8 6 11 26 18 23 41 36
10 44 17 13 1 0 0 0 0 0 0 0 0 0 0 0 0 0 0 0 0 0 0 0 0 0 0 0 0 0 0 0 6 15 0 0 0 0 0 8 16 6 13 10 5 0 11 16 11 9 8 11 18 47
32 34 30 17 8 2 0 0 0 0 0 0 0 0 0 0 0 0 0 0 0 0 0 0 0 0 0 0 0 0 1 0 1 0 0 0 2 9 21 20 22 26 35 33 41 35 18 14 11 16 24 22 15 29
12 12 3 0 1 0 0 0 0 0 0 0 0 0 0 0 0 0 0 0 0 0 0 0 0 0 0 0 0 0 0 0 0 0 0 2 11 32 33 25 35 26 8 13 3 2 0 0 0 0 2 5 8 11
1 1 0 0 0 0 0 0 0 0 0 0 0 0 0 0 0 0 0 0 0 0 0 0 0 0 0 0 0 0 0 0 0 0 4 14 17 4 2 1 5 3 0 0 2 13 14 14 1 11 41 33 12 2
3 0 0 0 0 0 0 0 0 0 0 0 0 0 0 0 0 0 0 0 0 0 0 0 0 0 0 0 0 0 0 0 0 0 0 28 31 4 0 0 4 4 5 2 18 35 25 15 6 16 37 31 15 9
0 0 0 0 0 1 0 0 0 2 0 0 0 0 0 0 0 0 0 0 1 6 6 5 0 0 0 0 0 0 0 1 10 20 5 1 0 0 0 4 21 22 14 22 26 27 6 7 3 4 8 4 6 7
0 0 0 0 1 8 24 6 0 0 0 0 0 0 8 0 0 1 1 0 1 1 1 0 0 0 0 0 0 36 20 1 0 13 0 1 4 16 26 24 20 22 17 20 20 22 15 1 0 0 0 0 0 0
0 0 0 0 0 5 14 7 0 0 0 0 7 3 0 0 0 0 1 2 0 0 0 0 0 0 0 0 0 0 4 12 15 6 1 1 0 0 4 18 8 5 2 3 0 1 8 3 6 6 6 6 0 0
0 0 0 0 0 0 2 8 11 2 0 2 0 2 2 1 5 35 8 8 16 8 6 0 1 7 7 8 0 10 8 1 5 3 0 0 0 0 0 0 0 0 0 0 0 4 12 13 10 12 27 30 12 0
0 0 0 0 0 0 0 0 0 0 0 0 0 0 12 31 8 6 2 4 7 10 8 8 8 3 4 3 5 6 0 1 0 12 8 0 0 0 0 0 0 0 0 0 0 0 0 0 0 0 0 1 0 2
0 0 10 3 1 0 1 0 0 1 0 0 4 14 6 0 0 0 0 0 5 7 9 6 2 1 10 24 14 15 0 0 4 1 0 0 0 0 0 0 0 0 0 0 0 0 0 0 0 0 0 0 0 0
0 0 1 0 0 0 0 0 1 5 5 5 7 0 0 0 0 0 0 0 0 10 1 0 1 3 9 11 8 9 0 0 0 0 0 0 0 0 0 0 0 0 0 0 0 0 0 0 0 0 0 0 0 0
0 0 1 4 35 14 6 4 3 3 3 1 2 9 0 0 0 0 0 0 0 0 0 0 0 0 0 0 0 0 0 0 0 0 0 0 0 0 0 0 0 0 0 0 0 0 0 0 0 0 0 0 0 0
0 0 5 20 25 16 10 6 15 14 3 1 0 0 0 0 0 0 0 0 0 0 0 0 0 0 0 0 0 0 0 0 0 0 0 0 0 0 0 0 0 0 0 0 0 0 0 0 0 0 0 0 0 0

GFSWCAN_con_mlcape_087.txt.gz
CAPE
1 2 2 0 0 1 0 0 0 0 0 0 0 0 5 15 0 0 0 0 0 0 0 0 0 0 0 0 0 0 0 0 0 0 0 0 6 0 0 0 6 7 10 98 67 53 110 242 295 249 280 634 482 508
2 2 2 0 1 0 2 0 0 0 0 0 0 0 3 17 1 0 0 0 0 0 0 0 0 0 0 0 0 0 0 0 0 0 0 0 1 3 0 0 0 6 2 39 117 166 229 111 219 204 398 534 711 768
4 1 2 1 1 0 1 0 0 0 0 0 0 0 0 25 1 0 0 0 0 0 0 0 0 0 0 0 0 0 0 0 0 0 0 0 0 0 0 0 0 2 2 5 64 145 365 198 195 59 123 594 651 541
3 3 2 0 0 0 1 0 0 0 0 0 0 1 1 27 1 0 0 0 0 0 0 0 0 0 0 0 0 0 0 0 0 0 0 0 0 0 0 0 0 7 10 22 47 99 247 286 108 58 247 492 551 648
3 4 1 0 0 0 1 0 0 0 0 0 0 2 22 24 1 0 0 0 0 0 0 0 0 0 0 0 0 0 0 0 0 0 0 0 0 0 0 0 0 18 0 1 56 116 157 187 88 103 116 47 198 215
3 5 1 0 0 1 2 0 0 0 0 0 0 7 29 4 1 0 0 0 0 0 0 0 0 0 0 0 0 0 0 0 0 0 0 0 0 0 0 0 0 0 0 6 136 254 126 114 67 35 32 39 134 211
3 5 2 0 0 3 0 0 0 0 0 0 3 13 14 0 0 0 0 0 0 0 0 0 0 0 0 0 0 0 0 0 0 0 0 0 0 0 0 0 0 0 0 21 84 182 213 88 117 153 74 377 366 284
5 4 1 0 0 1 0 0 0 0 1 2 18 5 1 0 0 1 0 0 0 0 0 0 0 0 0 0 0 0 0 0 0 0 0 0 0 0 0 0 0 0 0 55 104 257 167 176 414 272 485 126 7 4
6 4 0 0 2 1 0 0 0 0 3 12 0 0 0 0 4 0 0 0 0 0 0 0 0 0 0 0 0 0 0 0 0 0 0 0 0 0 0 0 0 0 14 109 129 183 188 146 290 467 64 29 1 6
4 0 0 1 1 0 0 0 5 24 11 0 0 3 9 0 0 0 0 0 0 0 0 0 0 0 0 0 0 0 0 0 0 0 0 0 0 0 0 0 0 0 42 100 151 107 74 72 177 330 22 11 7 5
7 0 0 1 1 0 0 1 15 13 0 5 4 12 0 0 0 0 0 0 0 0 0 0 0 0 0 0 0 0 5 13 7 0 0 0 0 19 48 7 5 0 6 139 98 11 79 144 238 121 26 15 21 27
5 0 3 0 0 0 0 10 5 4 3 7 2 0 0 0 0 0 0 0 0 0 0 0 0 0 0 0 0 0 44 65 35 8 48 79 61 94 136 164 141 125 155 199 94 12 39 358 317 54 38 18 21 1
1 3 2 0 0 0 2 2 7 0 0 0 2 0 0 0 0 0 0 0 0 0 0 0 0 0 0 0 0 1 17 47 34 39 46 42 13 77 125 180 177 169 131 120 48 0 90 161 103 71 23 1 5 6
1 2 0 0 0 2 8 5 12 0 0 4 1 0 0 0 0 0 0 0 0 0 0 0 0 0 0 0 0 7 40 48 41 14 2 2 3 52 147 227 350 257 222 168 144 131 117 117 38 2 0 0 0 0
1 2 0 0 0 7 2 0 6 1 0 7 0 0 0 0 0 0 0 0 0 0 0 0 0 0 0 0 51 45 53 19 23 0 0 3 21 18 2 10 39 54 74 74 31 8 0 0 0 0 0 0 0 0
0 0 0 2 24 11 1 0 1 0 2 1 0 0 0 0 0 0 0 0 0 0 0 0 0 0 0 12 46 22 37 12 1 0 0 1 8 0 0 1 0 8 13 0 0 0 0 0 0 0 0 0 0 0
0 0 0 12 35 40 18 0 3 0 0 0 0 0 0 0 0 0 0 0 0 0 9 0 0 0 0 7 10 19 16 8 31 8 0 30 4 0 0 0 1 0 0 0 0 0 0 0 0 0 0 9 12 8
0 17 40 44 35 12 8 3 8 0 0 0 0 0 0 0 0 0 0 0 0 6 9 9 0 0 0 0 4 1 22 7 0 17 1 0 0 0 0 3 6 2 0 0 0 3 4 11 19 25 16 1 19 35
0 27 31 24 8 0 1 0 0 0 0 0 0 0 0 0 0 0 0 0 0 0 0 1 0 0 4 33 8 0 0 0 0 13 8 0 0 0 0 1 6 4 0 1 9 25 37 14 13 26 45 36 25 29
52 20 15 0 0 0 0 0 0 0 0 0 0 0 0 0 0 0 0 0 0 0 0 0 0 0 0 0 0 0 0 0 0 5 17 0 8 11 17 31 40 51 27 25 30 3 20 25 9 3 25 34 23 40
7 8 11 2 1 0 0 0 0 0 0 0 0 0 0 0 0 0 0 0 3 3 0 0 0 0 0 0 0 0 8 0 11 8 1 0 17 4 7 6 29 55 96 107 68 75 13 9 13 20 26 20 19 40
10 0 3 0 0 0 0 0 0 0 0 0 0 0 0 0 0 0 0 0 6 14 1 0 0 0 0 0 0 0 0 0 0 0 0 0 2 26 47 41 79 70 43 22 21 21 16 19 21 24 17 31 41 48
0 0 0 0 0 0 0 0 0 0 0 0 0 0 0 0 2 0 0 0 0 0 0 0 0 0 0 0 0 0 0 2 0 0 0 29 34 39 35 36 31 29 25 31 19 22 38 26 23 11 19 38 56 80
0 0 0 0 0 0 0 0 0 1 2 0 0 0 0 0 1 0 0 0 0 0 0 0 0 0 0 0 0 0 0 0 0 2 12 26 49 31 8 9 6 18 28 26 46 40 19 41 10 22 29 29 33 37
0 0 0 0 0 0 0 0 0 0 0 0 0 0 3 0 0 0 0 0 9 9 13 8 2 0 0 1 0 6 13 3 1 9 26 23 18 20 44 45 38 40 44 48 43 42 49 37 32 37 41 29 20 37
0 0 0 1 0 0 7 0 0 0 0 0 0 3 7 4 0 1 0 7 5 9 31 38 22 13 5 0 23 20 55 0 0 23 1 1 11 24 39 37 32 30 15 13 16 16 25 41 35 28 34 35 40 27
0 0 0 0 0 4 5 1 0 0 0 0 10 0 0 0 1 0 0 9 16 11 2 2 6 1 1 5 0 0 0 0 1 17 12 12 0 0 0 0 0 0 0 0 5 6 7 35 41 23 21 30 97 91
0 1 0 0 0 0 5 9 5 0 1 0 0 2 3 2 1 26 35 7 8 4 2 1 5 12 22 25 22 15 12 31 29 0 0 1 0 0 0 0 0 0 0 0 0 0 3 8 14 18 42 112 123 150
0 0 0 0 0 0 0 0 0 0 0 0 1 0 1 27 7 7 3 8 2 13 29 29 14 11 0 1 2 4 5 19 25 14 6 0 0 0 0 0 0 0 0 0 0 0 0 0 0 0 0 0 0 0
0 0 4 0 0 0 0 0 0 0 1 0 0 0 0 0 0 0 0 0 0 0 3 10 11 27 35 3 0 0 0 0 0 0 0 0 0 0 0 0 0 0 0 0 0 0 0 0 0 0 0 0 0 0
3 3 6 3 1 0 0 0 0 1 5 8 0 0 0 0 0 0 0 0 0 0 0 0 0 0 0 0 0 0 0 0 0 0 0 0 0 0 0 0 0 0 0 0 0 0 0 0 0 0 0 0 0 0
0 1 1 14 7 1 17 0 16 12 9 10 3 0 0 0 0 0 0 0 0 0 0 0 0 0 0 0 0 0 0 0 0 0 0 0 0 0 0 0 0 0 0 0 0 0 0 0 0 0 0 0 0 1
3 12 13 16 20 10 4 0 1 1 2 0 0 0 0 0 0 0 0 0 0 0 0 0 0 0 0 0 0 0 0 0 0 0 0 0 0 0 0 0 0 0 0 0 0 0 0 0 0 0 0 0 0 0

GFSWCAN_con_mlcape_093.txt.gz
CAPE
2 2 2 3 5 3 2 0 0 0 1 0 0 0 0 0 0 0 0 1 0 0 0 0 0 0 0 0 0 0 0 0 0 0 0 0 40 53 91 56 174 63 210 167 228 157 145 327 393 222 594 424 158 52
3 3 2 2 3 3 2 0 0 0 2 0 0 0 0 0 0 0 0 1 0 0 0 0 0 0 0 0 0 0 0 0 0 0 45 31 33 50 51 38 110 162 131 121 193 228 441 447 599 612 560 88 83 324
8 5 2 2 2 3 1 0 0 0 2 1 0 0 0 0 1 2 2 6 1 0 0 0 0 0 0 0 0 0 0 0 0 0 0 16 35 21 54 161 212 102 267 214 138 362 395 491 436 545 178 392 276 304
11 8 4 2 2 1 2 0 0 0 2 0 0 0 0 0 2 3 11 12 0 0 0 1 0 0 0 0 0 0 0 0 0 0 0 0 10 36 5 7 20 97 95 160 20 68 318 479 369 396 285 182 88 83
11 8 6 2 1 1 3 0 0 0 2 0 0 0 0 0 0 8 23 0 12 4 0 2 0 0 0 0 0 0 0 0 0 0 0 0 0 0 1 7 35 151 171 77 17 361 420 316 126 183 13 225 178 20
23 19 5 4 2 1 3 0 0 0 1 0 0 0 0 5 0 1 17 9 19 0 7 0 2 0 0 0 0 0 0 0 0 0 0 0 0 0 0 3 72 211 146 38 1 351 372 23 0 0 24 42 27 0
27 26 10 4 2 2 2 0 0 1 1 0 0 0 6 0 3 9 10 0 1 7 7 1 1 0 0 0 0 0 0 0 0 0 0 0 0 0 0 0 0 0 38 26 13 722 377 713 213 1 19 81 16 49
19 15 3 3 1 1 1 0 0 1 0 0 1 0 0 1 1 8 21 0 0 15 13 3 0 0 0 0 0 0 0 0 0 0 0 0 0 0 0 0 0 0 0 13 96 780 424 115 474 205 186 39 40 56
23 14 5 3 2 1 0 0 1 0 0 0 0 3 1 1 18 14 0 0 0 6 2 2 0 32 0 5 4 0 0 0 0 0 0 0 6 7 14 20 2 49 61 429 495 629 353 232 272 255 141 84 71 95
20 15 15 9 3 1 0 0 1 0 9 0 27 5 5 16 0 0 1 16 2 24 20 0 1 0 0 2 10 2 0 0 17 2 3 27 8 238 585 655 604 185 76 250 530 250 348 317 275 495 243 124 94 124
22 20 16 7 1 0 0 2 0 11 27 26 33 7 0 0 4 0 5 10 12 14 3 0 0 2 0 3 18 33 45 31 29 38 14 27 185 570 866 745 755 656 412 109 600 632 319 299 159 648 202 117 209 248
18 15 10 4 1 0 1 0 3 27 22 17 9 6 4 36 23 13 8 8 5 4 0 0 0 0 2 0 4 31 34 87 77 0 60 126 153 323 961 875 861 454 105 155 255 641 319 308 119 116 152 251 396 466
9 2 3 3 0 0 0 0 4 5 15 2 14 13 27 26 8 8 6 3 7 0 4 0 5 2 0 0 1 28 129 37 61 147 191 306 371 689 810 838 1029 876 735 636 460 407 469 311 337 401 543 527 498 322
7 6 3 0 1 1 0 0 8 0 0 1 10 7 13 5 4 3 7 7 41 42 43 56 38 7 0 0 18 33 32 53 4 49 17 264 623 726 737 673 786 955 769 668 536 453 428 491 568 493 387 270 55 0
5 0 0 2 1 2 11 10 0 21 8 15 15 1 1 0 14 17 21 31 22 51 70 46 68 38 3 24 27 49 43 26 90 152 180 198 395 439 620 538 616 537 486 362 287 243 197 134 78 20 3 2 2 14
0 3 1 1 9 20 15 24 28 6 3 6 14 12 14 19 15 25 19 53 62 86 72 118 52 37 21 37 97 42 37 65 80 100 125 416 271 251 155 109 283 334 211 66 150 59 20 26 30 42 36 27 34 24
0 4 2 0 0 0 0 16 7 5 5 17 13 30 50 36 33 25 76 54 76 62 38 60 32 17 29 40 97 26 111 11 99 49 106 347 344 224 232 138 242 72 35 22 61 75 75 59 55 55 54 38 45 25
1 0 4 1 9 9 0 0 0 5 12 11 16 39 24 17 43 50 83 106 120 29 44 116 53 16 50 43 75 59 70 35 30 35 24 215 210 150 121 59 115 6 2 4 7 98 75 138 106 46 52 132 94 23
4 0 26 9 5 0 2 0 0 12 8 35 17 41 39 33 11 28 72 113 123 123 81 96 101 70 132 61 24 17 15 12 9 13 99 355 81 8 7 18 31 52 86 65 123 97 80 78 70 56 33 39 41 20
0 1 9 0 0 19 10 14 2 11 7 24 15 33 31 14 29 65 55 86 89 76 76 69 60 75 21 6 0 2 24 15 14 50 203 72 39 29 34 65 44 8 28 25 54 89 70 84 4 17 25 22 13 27
10 0 0 0 17 4 9 9 8 3 0 20 21 22 11 35 50 40 29 46 65 85 52 59 14 110 102 57 11 44 177 128 228 213 144 22 18 52 3 2 6 42 6 18 23 51 27 7 13 24 38 40 31 33
6 7 2 0 14 8 15 0 2 0 6 8 2 17 14 19 20 29 33 29 26 51 64 76 51 68 14 107 107 157 224 228 237 217 91 14 9 1 3 11 27 171 94 47 51 30 32 35 29 28 40 41 41 11
0 0 11 4 1 0 0 12 6 5 6 10 7 15 18 18 26 26 17 29 18 106 91 40 100 125 74 82 97 115 156 250 106 257 236 124 33 2 17 90 87 83 44 23 7 17 35 31 31 34 29 35 45 38
0 11 7 6 0 0 2 9 12 17 16 16 11 10 14 22 30 22 17 24 35 59 57 106 59 20 76 115 28 93 126 115 48 28 24 16 10 32 202 66 56 55 48 45 45 13 52 29 27 35 12 33 73 36
0 0 0 0 2 6 7 10 9 10 7 10 11 6 24 19 18 11 18 46 14 3 8 130 84 40 45 70 86 196 250 283 24 60 82 80 46 6 27 14 8 3 9 17 9 18 26 35 28 49 37 44 54 101
0 0 2 8 5 7 10 8 9 6 12 10 12 29 22 6 0 0 0 0 0 2 4 60 150 121 270 281 279 209 254 189 163 236 83 14 4 10 9 4 8 2 0 6 2 2 9 10 10 10 22 33 41 115
1 5 8 4 15 16 11 7 10 8 12 17 21 10 0 1 1 0 7 33 18 54 191 266 100 91 146 173 183 200 225 264 218 180 35 18 11 6 8 4 0 0 0 0 0 0 0 0 1 3 7 18 18 18
8 13 8 15 23 15 10 9 14 12 8 13 10 1 1 1 1 9 104 257 171 171 99 62 91 109 145 169 206 77 161 156 199 84 49 13 6 0 0 0 0 0 0 0 0 0 0 0 0 0 0 0 1 1
14 16 17 16 18 20 9 15 8 7 5 0 0 2 3 1 1 4 19 12 84 329 140 19 49 25 0 0 0 1 0 0 2 2 10 8 1 0 0 0 0 0 0 0 0 0 0 0 0 0 0 0 0 0
10 4 10 6 9 6 15 9 3 5 2 2 1 1 1 0 0 0 55 64 117 169 81 21 1 0 0 3 0 0 1 0 0 0 0 0 0 0 0 0 0 0 0 0 0 0 0 0 0 0 0 0 0 0
4 6 9 16 5 8 0 0 4 2 0 0 0 0 0 0 0 0 1 0 2 12 7 10 11 6 7 6 0 2 1 0 0 0 0 0 0 0 0 0 0 0 0 0 0 0 0 0 0 0 0 0 0 0
0 0 6 3 4 0 0 0 6 16 3 1 2 0 0 5 4 0 0 6 9 12 0 4 5 0 0 0 0 0 0 0 0 0 0 0 0 0 0 0 0 0 0 0 0 0 0 0 0 0 0 0 0 0
5 8 2 5 2 6 15 9 7 12 21 34 25 9 1 0 6 8 5 1 1 1 1 0 0 0 0 0 0 0 0 0 0 0 0 0 0 0 0 0 0 0 0 0 0 0 0 0 0 0 0 0 0 0

GFSWCAN_con_mlcape_096.txt.gz
CAPE
3 1 2 2 4 4 3 3 2 0 0 0 3 0 0 0 0 0 0 1 0 0 0 0 0 0 0 0 0 0 0 0 0 0 0 0 0 98 108 204 72 215 154 155 168 139 69 300 239 199 167 405 203 183
14 9 5 2 3 3 2 3 2 0 0 0 2 0 0 0 0 0 0 0 0 0 0 0 0 0 0 0 0 0 0 0 0 0 0 65 199 103 145 61 245 125 58 55 148 174 462 465 518 538 461 552 286 317
6 13 13 5 2 2 1 2 2 0 0 0 2 0 0 0 0 0 0 0 0 0 0 0 0 0 0 0 0 0 0 0 0 0 0 16 165 71 89 57 139 2 0 75 260 183 233 414 375 444 548 440 167 0
0 6 16 8 3 2 3 1 3 0 0 0 2 0 0 0 0 0 0 1 5 0 0 0 0 0 0 0 0 0 0 0 0 0 0 0 2 13 24 10 0 31 220 223 216 43 167 366 606 397 92 82 124 118
4 22 26 14 6 3 2 1 2 0 0 0 1 0 0 0 0 0 1 3 11 0 0 0 0 0 0 0 0 0 0 0 0 0 0 0 0 0 0 0 4 118 68 37 41 52 501 538 449 57 0 0 0 24
15 33 28 20 5 3 5 3 3 0 0 0 1 0 0 0 0 9 3 0 1 9 0 0 0 0 0 0 0 0 0 0 0 0 0 0 0 0 0 0 16 9 70 47 28 7 626 74 129 19 1 0 4 71
31 35 27 28 12 3 3 1 1 0 0 2 0 0 0 0 11 4 0 0 0 9 5 1 1 0 0 0 0 0 0 0 0 0 0 0 0 0 0 0 0 0 49 76 6 213 631 273 233 124 16 2 29 47
30 25 18 22 21 4 1 1 0 0 1 0 0 1 2 0 12 1 7 0 1 21 17 1 0 1 0 0 0 0 0 0 0 0 0 0 0 0 0 0 0 0 0 0 0 57 557 311 225 11 47 109 85 42
10 13 11 18 13 4 0 1 0 0 0 0 10 4 4 4 6 7 0 0 1 3 12 1 0 18 0 0 5 0 0 0 0 0 0 0 0 3 0 4 0 0 78 11 202 117 332 237 34 0 52 69 173 42
6 2 14 17 5 3 1 0 0 2 0 2 40 31 5 2 0 2 2 32 27 16 7 0 0 5 3 22 28 25 0 0 1 0 0 0 0 378 747 688 512 342 110 116 77 357 252 126 204 21 17 75 84 84
11 16 19 13 7 5 2 0 1 0 7 35 18 7 22 1 10 10 3 9 7 6 1 0 0 0 14 16 20 17 33 96 67 25 23 12 110 211 278 1026 1124 516 349 114 131 41 0 17 25 176 5 179 119 104
26 24 13 15 6 4 0 0 0 11 7 13 31 0 0 7 7 6 6 8 3 1 9 0 0 0 5 0 14 46 55 0 0 6 29 162 22 0 1 356 1070 531 230 167 40 0 0 5 2 127 234 562 564 340
23 18 18 17 6 2 0 1 0 23 6 15 9 10 7 15 7 3 4 4 2 6 12 0 11 0 0 0 5 9 71 102 47 84 0 116 435 263 364 367 1019 978 528 302 69 3 1 0 572 574 520 489 312 98
13 9 10 4 2 0 0 0 2 19 4 10 14 2 9 5 3 0 2 18 27 31 10 11 45 24 19 4 0 30 45 112 12 9 0 186 537 638 692 584 696 731 549 107 176 406 338 204 175 180 62 2 0 0
11 5 2 2 0 1 1 0 7 4 0 8 47 3 3 30 38 48 22 122 97 135 116 196 197 72 21 21 12 39 77 84 137 107 19 199 555 460 448 405 443 521 475 417 340 214 108 25 9 8 7 0 3 8
14 11 14 0 3 4 0 11 13 14 3 3 32 53 74 68 72 61 68 57 32 99 132 168 206 39 27 35 148 96 90 118 51 0 53 221 417 388 287 161 124 215 301 319 80 172 112 36 23 3 8 25 27 44
0 4 4 1 3 1 12 11 10 0 0 10 5 40 62 95 84 25 41 72 135 149 54 5 69 31 24 45 135 112 76 41 6 121 126 480 382 292 308 220 95 46 51 23 17 43 51 52 64 96 139 60 17 33
3 4 4 1 5 14 15 11 5 2 5 6 15 9 51 89 167 160 13 62 35 9 21 76 154 16 60 83 109 64 38 84 52 24 493 435 376 230 149 99 177 36 0 0 0 8 40 84 130 62 11 41 40 22
2 2 3 1 1 0 0 1 0 11 25 3 7 9 0 48 81 120 129 188 1 0 0 67 123 133 15 12 0 8 22 6 1 81 323 392 287 180 183 129 26 54 8 0 0 0 7 6 116 43 40 30 32 22
0 0 13 1 0 27 5 5 0 13 3 6 8 14 64 77 80 92 81 65 77 1 0 127 109 45 37 6 2 22 49 11 19 112 327 156 17 94 84 105 2 4 2 0 0 0 1 23 16 31 32 38 12 35
9 3 0 0 3 19 5 8 2 4 19 35 22 30 47 27 45 74 50 59 81 133 78 55 78 118 163 148 87 53 178 30 169 387 160 53 5 59 0 2 13 13 13 31 0 9 13 61 54 34 25 37 23 30
0 0 0 0 19 19 14 15 11 16 23 13 32 37 67 50 53 8 53 68 66 53 130 68 151 109 35 198 65 54 155 292 390 373 59 30 1 0 6 6 0 10 17 16 25 15 37 35 12 26 26 25 28 20
0 0 12 6 0 0 6 60 18 27 13 20 26 20 24 43 43 57 27 50 67 169 39 55 120 59 50 10 63 132 112 170 99 357 242 60 26 15 21 41 74 63 39 40 32 23 9 7 2 0 9 2 8 26
0 2 10 16 0 1 5 26 23 21 23 11 14 19 26 46 55 12 22 55 116 150 143 136 39 15 119 205 113 191 162 21 15 23 7 6 9 9 6 39 13 2 14 30 15 20 9 12 12 25 31 12 1 13
0 0 0 0 4 4 2 2 4 6 17 23 12 29 24 37 13 28 24 91 51 21 39 92 96 124 88 133 167 230 390 28 1 7 6 28 12 14 28 7 1 0 1 6 0 0 10 8 11 14 16 8 5 6
0 0 2 15 12 5 7 8 15 12 19 24 19 24 0 0 0 0 0 3 0 0 38 179 208 295 255 230 194 107 17 75 68 45 53 57 47 33 14 3 0 0 0 0 0 0 0 0 0 0 6 2 6 5
0 2 10 24 14 25 26 36 30 33 28 15 9 0 0 1 2 0 0 1 24 59 52 31 58 192 174 75 196 35 55 152 80 29 2 1 1 0 0 0 0 0 0 0 0 0 0 0 0 0 0 0 0 0
11 22 19 35 34 17 19 34 32 10 6 4 0 3 3 3 6 0 7 79 49 36 71 127 11 7 127 13 35 0 0 1 218 69 78 21 4 0 0 0 0 0 0 0 0 0 0 0 0 0 0 0 0 0
15 17 24 20 13 24 19 12 5 2 2 1 2 2 7 0 0 10 43 59 61 196 84 27 37 19 3 7 7 13 3 1 10 6 3 5 0 0 0 0 0 0 0 0 0 0 0 0 0 0 0 0 0 0
23 15 19 30 15 6 9 9 3 2 3 0 0 3 4 3 0 2 33 63 34 20 17 5 1 0 8 11 8 10 2 0 0 0 0 0 0 0 0 0 0 0 0 0 0 0 0 0 0 0 0 0 0 0
12 16 18 6 9 2 0 1 6 4 3 7 3 2 0 9 9 3 0 12 12 9 8 10 6 2 5 5 0 1 0 0 0 0 0 0 0 0 0 0 0 0 0 0 0 0 0 0 0 0 0 0 0 0
5 6 6 1 2 1 4 0 0 0 0 0 5 11 11 12 5 8 5 7 12 13 1 7 9 1 0 0 0 0 0 0 0 0 0 0 0 0 0 0 0 0 0 0 0 0 0 0 0 0 0 0 0 0
13 5 0 0 1 4 14 23 12 22 23 13 15 17 21 9 9 10 11 1 0 0 2 6 2 0 0 0 0 0 0 0 0 0 0 0 0 0 0 0 0 0 0 0 0 0 0 0 0 0 0 0 0 0

GFSWCAN_con_mlcape_102.txt.gz
CAPE
18 21 16 13 6 5 4 3 3 2 2 3 2 0 0 5 1 0 0 0 0 0 0 0 0 0 0 0 0 0 0 0 0 0 0 0 0 0 14 53 98 63 42 39 21 0 0 280 413 94 7 221 189 8
8 10 20 13 23 12 6 2 3 3 2 2 3 0 3 3 1 0 0 0 0 0 0 0 0 0 0 0 0 0 0 0 0 0 0 0 0 0 32 3 0 36 3 22 12 9 129 71 283 337 362 241 215 105
20 14 13 17 25 16 9 5 6 5 3 2 4 0 4 4 8 0 0 0 0 0 0 0 0 0 0 0 0 0 0 0 0 0 0 0 0 0 0 1 0 9 10 0 5 72 69 169 44 183 246 193 97 57
14 17 18 23 33 25 15 9 5 4 4 2 2 0 0 10 4 0 0 0 0 0 0 0 0 0 0 0 0 0 0 0 0 0 0 0 0 0 0 0 0 16 34 61 0 0 0 176 322 352 104 215 50 35
1 3 12 16 19 16 14 18 9 5 4 2 2 0 0 6 0 0 0 0 0 0 0 0 0 0 0 0 0 0 0 0 0 0 0 0 0 0 0 0 0 117 25 9 0 43 68 393 212 89 0 2 54 46
0 0 6 1 11 5 4 9 13 7 6 2 0 0 0 2 0 0 0 0 0 0 0 0 0 0 0 0 0 0 0 0 0 0 0 0 0 0 0 0 0 0 3 0 7 113 94 505 229 92 0 0 1 1
2 1 2 1 1 2 2 11 10 7 4 3 0 0 1 0 0 0 0 0 0 0 7 0 0 0 0 0 0 0 0 0 0 0 0 0 0 0 0 0 0 0 0 0 12 394 483 376 193 145 29 39 45 17
2 3 2 0 2 6 8 17 10 5 4 0 0 2 3 1 0 0 0 0 0 6 13 0 0 0 0 0 0 0 0 0 0 0 0 0 0 0 0 0 0 0 32 144 166 297 351 312 281 133 140 62 18 40
5 9 6 3 4 9 7 25 11 6 0 0 3 3 3 0 0 0 0 1 0 6 7 1 0 0 0 0 0 0 0 0 0 0 0 0 0 0 24 204 274 567 516 347 215 192 294 298 51 0 17 11 49 61
4 5 4 3 6 9 15 14 6 3 0 5 19 18 7 0 4 9 7 28 11 2 0 0 0 0 0 0 1 0 0 0 0 0 0 0 0 0 47 168 180 220 262 313 251 191 147 57 0 0 0 0 31 51
5 6 4 4 6 4 13 8 4 1 4 3 30 1 5 25 31 30 16 12 4 0 0 0 0 0 0 0 1 11 8 12 7 9 4 0 13 30 19 87 8 0 0 37 113 160 50 0 1 7 3 0 7 2
5 2 5 3 4 5 8 3 2 2 0 6 12 17 10 24 9 3 2 0 0 0 0 0 0 0 0 1 65 22 1 1 0 0 1 30 42 136 0 0 0 0 0 0 1 85 107 0 16 0 0 7 0 27
0 2 2 0 1 8 4 1 0 0 3 20 33 7 4 1 9 2 1 0 0 0 0 0 0 0 0 0 1 3 0 0 24 17 1 1 3 56 0 0 0 3 0 0 0 3 45 33 11 67 61 22 41 117
1 0 0 5 5 3 1 0 0 0 2 14 2 0 0 0 0 0 0 0 0 1 8 1 0 0 0 0 2 38 5 51 25 12 12 7 65 80 1 0 0 22 0 0 1 0 6 27 65 55 5 95 97 48
4 16 15 5 2 6 0 0 0 0 8 6 1 1 0 0 0 0 0 0 0 1 6 17 22 17 4 9 0 0 37 16 14 10 11 26 2 24 34 69 63 10 15 25 104 105 46 62 83 62 44 7 22 29
26 15 3 2 5 2 0 1 3 9 0 1 2 0 12 34 20 0 14 11 7 13 26 50 115 67 30 10 54 32 22 0 0 0 0 0 6 2 56 103 95 76 40 4 1 4 12 66 93 115 72 46 36 33
1 0 4 5 1 0 4 0 1 7 0 2 1 0 2 19 36 36 4 102 41 26 15 13 15 11 8 23 7 6 1 14 3 0 0 2 21 49 37 35 74 1 0 0 0 0 0 0 0 6 0 23 20 62
20 0 3 2 1 6 10 1 0 0 2 0 0 0 0 0 1 1 0 0 5 18 0 6 17 6 42 0 0 2 22 57 19 11 18 16 5 0 0 14 2 0 0 0 0 0 0 0 26 17 0 2 21 20
0 2 0 0 1 0 0 0 0 0 0 0 0 0 0 0 0 0 0 0 0 3 0 2 4 0 0 5 27 41 63 53 97 45 24 49 0 0 0 3 14 0 0 0 0 0 0 1 0 0 3 6 1 0
6 2 4 1 1 8 0 0 0 0 3 2 0 0 0 0 6 0 3 0 0 0 0 0 0 0 24 36 22 26 112 130 21 0 0 0 0 0 0 0 0 1 1 3 0 1 4 4 7 11 4 7 1 0
9 2 1 0 0 0 2 3 1 0 0 0 0 0 1 0 0 0 3 0 0 0 0 0 8 33 29 24 129 83 60 0 0 0 0 0 0 9 15 11 15 13 28 28 26 24 8 2 23 8 6 3 0 1
0 0 0 0 0 1 0 4 0 7 9 0 0 0 34 21 7 24 3 6 0 0 3 22 25 53 37 16 60 139 54 3 0 0 0 0 3 18 0 2 27 36 40 43 23 16 7 2 6 20 15 8 4 0
0 0 0 0 1 0 0 0 6 16 4 1 10 43 35 21 31 22 17 30 35 32 43 43 66 57 1 43 94 101 59 15 8 0 3 7 14 15 18 1 0 0 0 2 3 3 0 1 0 0 0 0 0 0
0 0 0 0 0 0 0 2 4 2 3 6 3 9 39 30 11 4 4 41 13 15 22 17 41 35 53 29 21 22 1 14 10 15 34 5 12 0 1 0 0 0 0 0 0 0 0 0 0 0 0 0 0 0
0 0 0 0 0 0 0 1 2 10 9 16 1 3 0 0 1 0 0 1 0 0 16 39 39 15 1 7 6 16 11 14 22 31 46 43 28 31 0 0 0 0 0 0 0 0 0 0 0 0 0 0 0 0
0 0 2 0 2 5 1 7 7 21 21 4 1 0 0 0 0 0 0 0 0 0 9 26 0 0 0 0 1 1 7 21 25 34 34 20 6 0 0 0 0 0 0 0 0 0 0 0 0 0 0 0 0 0
0 0 1 2 6 12 35 30 14 3 0 0 0 0 0 1 0 0 0 0 3 4 3 16 4 0 0 1 0 0 4 24 35 48 4 0 0 0 0 0 0 0 0 0 0 0 0 0 0 0 0 0 0 0
0 2 15 27 7 0 0 0 0 0 0 0 1 3 3 1 0 9 0 0 5 16 12 17 22 36 34 23 13 2 0 0 9 0 0 0 0 0 0 0 0 0 0 0 0 0 0 0 0 0 0 0 0 0
6 15 6 0 1 0 0 0 0 0 0 0 0 1 6 0 5 11 16 19 39 51 43 52 29 48 26 0 0 0 0 0 0 0 0 0 0 0 0 0 0 0 0 0 0 0 0 0 0 0 0 0 0 0
0 0 0 0 0 0 1 1 10 1 0 0 0 0 0 0 0 10 15 38 46 40 17 0 2 0 0 0 0 0 0 0 0 0 0 0 0 0 0 0 0 0 0 0 0 0 0 0 0 0 0 0 0 0
3 0 0 0 0 1 0 2 12 23 28 21 25 11 6 6 11 12 4 1 4 3 1 0 0 0 0 0 0 0 0 0 0 0 0 0 0 0 0 0 0 0 0 0 0 0 0 0 0 0 0 0 0 0
0 0 0 0 0 0 0 0 2 6 11 24 31 27 4 0 0 2 0 0 0 0 0 0 0 0 0 0 0 0 0 0 0 0 0 0 0 0 0 0 0 0 0 0 0 0 0 0 0 0 0 0 0 0
0 0 0 0 0 1 1 11 13 14 26 24 9 14 7 0 1 6 0 0 0 0 0 0 0 0 0 0 0 0 0 0 0 0 0 0 0 0 0 0 0 0 0 0 0 0 0 0 0 0 0 0 0 0

GFSWCAN_con_mlcape_105.txt.gz
CAPE
8 6 2 12 25 17 14 4 4 3 3 2 1 1 1 0 1 0 0 0 0 0 0 0 0 0 0 0 0 0 0 0 0 0 0 0 0 0 0 0 0 2 0 11 11 15 0 194 383 110 36 71 216 225
15 10 10 8 14 19 13 11 6 5 2 2 2 0 1 0 4 2 0 0 0 0 0 0 0 0 0 0 0 0 0 0 0 0 0 0 0 0 0 0 0 0 0 6 18 39 39 159 329 201 101 33 19 215
17 21 26 25 27 25 21 13 12 6 5 3 3 0 2 0 0 3 0 0 0 4 0 0 0 0 0 0 0 0 0 0 0 0 0 0 0 0 0 0 0 0 23 25 15 9 56 123 312 242 8 107 264 151
17 20 19 22 22 24 26 14 13 10 9 5 5 2 2 0 0 17 7 0 0 0 0 0 0 0 0 0 0 0 0 0 0 0 0 0 0 0 0 0 0 0 0 48 37 11 4 50 3 245 194 353 266 62
7 9 1 5 18 17 27 32 16 17 8 6 5 1 0 0 0 12 1 0 0 0 0 0 0 0 0 0 0 0 0 0 0 0 0 0 0 0 0 0 0 0 1 94 0 0 0 97 252 350 253 15 155 51
1 2 6 5 1 5 25 26 26 15 10 10 5 3 0 0 5 0 0 0 0 0 0 0 0 0 0 0 0 0 0 0 0 0 0 0 0 0 0 0 0 0 0 0 0 0 4 72 463 292 19 0 35 18
0 6 4 5 2 6 3 10 11 3 9 9 5 0 0 0 5 0 0 0 0 0 0 0 0 0 0 0 0 0 0 0 0 0 0 0 0 0 0 0 0 0 0 0 0 0 73 368 319 264 28 114 25 13
0 0 0 2 0 4 3 7 3 3 5 7 2 0 3 6 7 0 0 0 0 0 15 0 0 0 0 0 0 0 0 0 0 0 0 0 0 0 0 0 0 79 217 83 233 160 282 456 230 145 101 83 43 60
0 1 2 6 5 2 2 12 1 4 8 1 0 10 4 1 0 0 0 0 1 15 12 1 0 0 0 0 0 0 0 0 0 0 0 0 0 0 0 34 104 162 390 351 159 181 273 358 237 127 139 85 59 30
2 0 4 8 9 5 6 11 4 3 0 0 20 1 23 0 0 17 1 1 1 8 3 0 0 0 0 0 0 0 0 0 0 0 0 0 0 0 1 64 50 93 254 246 270 254 211 244 185 15 11 42 64 68
0 2 5 6 11 11 3 3 7 3 8 5 28 13 2 4 8 23 33 18 8 0 0 0 0 0 0 0 1 4 1 0 4 0 0 0 0 2 30 5 0 1 92 157 136 150 64 0 4 0 0 3 8 46
2 10 5 8 10 2 6 11 4 0 0 14 2 20 17 28 2 6 3 0 3 0 0 0 0 0 0 0 11 19 11 1 0 0 0 18 34 43 0 2 0 0 0 3 36 122 49 9 3 9 0 3 0 1
1 4 5 7 1 4 0 7 0 0 0 16 11 3 15 18 8 4 12 2 0 0 0 0 0 0 0 0 4 4 12 0 0 3 1 0 5 7 0 0 0 0 0 0 0 0 11 15 14 0 13 47 19 28
2 4 4 6 1 0 5 7 4 3 1 22 5 1 1 2 0 0 0 0 0 0 0 0 0 0 0 0 2 53 0 11 27 7 10 0 6 0 0 0 0 6 0 0 0 10 7 51 128 67 12 56 19 39
2 3 2 1 3 7 6 7 1 2 12 4 3 0 0 0 0 0 0 0 0 0 0 2 5 7 0 6 3 1 31 3 4 0 1 12 0 0 1 27 30 41 25 9 23 47 16 34 58 45 54 11 4 21
3 5 1 11 5 9 0 0 3 0 9 1 1 0 4 29 26 12 7 22 0 3 1 8 41 29 19 26 30 10 19 2 0 0 0 0 0 8 17 53 56 25 0 0 0 0 6 16 35 37 26 11 4 9
5 1 8 5 11 4 6 3 1 7 2 0 1 0 0 1 0 0 0 2 0 4 0 6 23 37 15 38 35 18 12 10 0 0 0 0 0 0 0 0 19 4 0 0 0 0 0 0 6 9 3 3 11 0
15 7 8 11 10 15 6 4 0 0 0 0 0 0 0 4 0 0 0 0 0 0 0 3 6 2 23 3 14 1 26 2 0 7 0 8 0 0 0 5 5 0 0 0 0 0 0 0 5 3 3 3 0 0
0 0 1 1 2 0 0 0 0 0 0 0 0 0 0 0 0 0 0 0 0 0 0 0 0 6 1 9 21 23 18 10 54 5 0 0 0 0 0 1 6 0 0 0 0 1 3 0 0 0 3 0 0 0
1 0 0 0 1 0 0 0 0 0 1 11 0 0 0 0 0 0 0 0 0 0 0 0 0 1 2 6 1 16 34 74 2 0 0 0 0 0 0 1 5 4 5 5 5 1 3 2 5 1 4 7 7 5
5 12 8 0 0 0 1 0 0 1 0 0 0 0 0 0 0 14 1 0 0 0 8 2 0 4 7 11 0 0 0 0 0 0 0 2 11 20 7 1 1 19 14 20 9 6 1 0 0 0 0 0 2 4
0 2 0 0 0 1 9 0 0 3 0 0 1 4 4 7 18 18 5 9 1 9 4 7 4 0 0 0 8 2 0 0 0 0 0 1 0 0 1 1 3 12 9 5 4 4 5 1 0 0 0 0 0 0
0 0 0 0 5 3 2 11 7 0 0 0 0 0 0 3 6 0 0 0 1 0 0 5 1 0 9 1 17 6 8 4 5 5 17 16 3 0 0 0 0 0 0 0 0 0 0 0 0 0 0 0 0 0
0 0 0 2 0 0 0 0 0 0 0 4 2 6 5 0 0 0 0 0 0 0 0 5 7 14 9 5 0 0 10 14 27 30 5 0 0 0 0 0 0 0 0 0 0 0 0 0 0 0 0 0 0 0
0 0 0 0 0 0 0 0 0 2 0 2 0 0 0 0 0 0 0 0 0 0 0 0 2 4 6 2 7 18 8 16 36 41 37 33 0 0 0 0 0 0 0 0 0 0 0 0 0 0 0 0 0 0
0 0 1 1 1 3 12 13 15 10 3 0 0 0 0 0 0 0 0 0 2 3 3 0 0 10 15 7 11 13 11 32 34 14 3 5 0 0 0 0 0 0 0 0 0 0 0 0 0 0 0 0 0 0
4 4 0 3 7 14 7 6 4 0 0 0 1 0 0 0 0 2 0 9 5 8 6 9 5 7 3 4 1 0 8 11 2 0 0 0 0 0 0 0 0 0 0 0 0 0 0 0 0 0 0 0 0 0
0 2 11 3 0 0 0 0 0 0 0 3 1 0 0 0 0 5 10 3 8 14 25 30 39 29 0 0 0 0 0 0 0 0 0 0 0 0 0 0 0 0 0 0 0 0 0 0 0 0 0 0 0 0
3 1 0 0 0 0 2 4 8 1 0 0 0 3 10 8 5 4 11 3 21 37 9 9 0 0 0 0 0 0 0 0 0 0 0 0 0 0 0 0 0 0 0 0 0 0 0 0 0 0 0 0 0 0
0 0 0 0 0 7 7 12 4 1 1 0 0 0 0 0 3 8 7 14 1 0 0 0 0 0 0 0 0 0 0 0 0 0 0 0 0 0 0 0 0 0 0 0 0 0 0 0 0 0 0 0 0 0
0 0 0 0 0 2 13 18 22 21 20 14 11 2 1 0 0 0 0 0 0 0 0 0 0 0 0 0 0 0 0 0 0 0 0 0 0 0 0 0 0 0 0 0 0 0 0 0 0 0 0 0 0 0
0 0 0 0 0 4 1 8 13 22 34 30 15 0 0 0 0 0 0 0 0 0 0 0 0 0 0 0 0 0 0 0 0 0 0 0 0 0 0 0 0 0 0 0 0 0 0 0 0 0 0 0 0 0
0 0 0 0 0 2 8 14 15 25 31 17 10 6 0 0 0 0 0 0 0 0 0 0 0 0 0 0 0 0 0 0 0 0 0 0 0 0 0 0 0 0 0 0 0 0 0 0 0 0 0 0 0 0

GFSWCAN_con_mlcape_108.txt.gz
CAPE
4 5 6 9 7 7 15 19 12 4 4 1 2 0 0 2 0 9 2 0 0 0 0 0 0 0 0 0 0 0 0 0 0 0 0 0 0 0 0 0 0 0 0 0 0 16 12 93 256 96 31 70 2 119
13 14 11 12 13 14 14 17 16 12 5 4 3 2 2 3 0 5 6 3 0 0 0 0 0 0 0 0 0 0 0 0 0 0 0 0 0 0 0 0 0 1 0 0 0 0 10 65 85 195 244 173 2 189
34 24 15 18 28 30 29 25 20 16 11 6 6 5 3 3 0 1 6 0 4 2 0 0 0 0 0 0 0 0 0 0 0 0 0 0 0 0 0 0 0 0 0 0 0 3 0 0 17 79 136 332 69 303
42 29 16 14 15 24 25 29 28 17 19 7 14 9 5 2 1 3 11 4 2 5 22 0 0 0 0 0 0 0 0 0 0 0 0 0 0 0 0 0 0 0 0 0 0 0 0 0 2 52 98 313 334 174
31 26 20 12 17 19 27 29 29 22 20 15 14 5 4 2 1 2 4 9 17 18 9 0 0 0 0 0 0 0 0 0 0 0 0 0 0 0 0 0 0 0 0 0 0 0 0 0 0 179 198 303 78 219
8 8 9 7 1 0 4 14 21 32 22 15 9 7 5 2 0 4 6 2 2 0 0 0 0 0 0 0 0 0 0 0 0 0 0 0 0 0 0 0 0 0 0 0 0 0 0 0 0 125 398 43 26 137
1 5 2 3 7 5 1 0 5 22 21 12 12 5 3 1 0 9 1 0 0 0 0 0 0 0 0 0 0 0 0 0 0 0 0 0 0 0 0 0 0 0 0 0 0 0 0 0 1 217 156 134 138 124
8 0 0 5 0 2 5 2 6 11 10 11 7 7 1 0 9 13 2 1 17 0 15 0 0 0 0 0 0 0 0 0 0 0 0 0 0 0 0 0 0 0 0 0 21 18 23 111 317 365 162 185 105 130
6 6 0 1 3 8 2 0 4 11 3 6 8 0 4 12 0 0 0 0 0 0 14 0 0 2 0 0 0 0 0 0 0 0 0 0 0 0 0 0 0 19 75 48 218 194 143 222 353 280 173 106 59 121
4 4 4 2 8 10 5 3 15 6 5 1 0 15 2 0 0 17 21 12 22 13 4 2 0 0 0 0 4 2 0 0 0 0 0 0 0 0 0 0 0 0 0 49 221 176 170 200 219 177 116 92 65 77
9 20 4 1 8 11 7 13 7 2 1 0 26 10 3 10 2 7 7 17 11 5 0 0 0 0 0 0 0 0 0 0 0 0 0 0 0 0 0 0 0 0 0 25 55 74 122 35 23 73 19 0 0 63
12 1 0 2 9 7 6 1 4 0 1 5 8 5 8 14 15 9 31 4 1 0 0 0 0 0 0 0 0 3 7 0 0 0 0 0 0 1 16 5 0 0 0 0 0 0 32 5 5 0 0 0 0 6
8 3 6 8 5 7 2 4 4 0 0 0 10 2 5 14 1 0 0 1 0 0 0 0 0 0 0 0 0 0 10 0 0 0 0 0 0 0 0 0 0 6 20 0 0 0 5 5 3 2 0 33 21 15
8 4 8 10 11 2 4 5 2 8 0 6 1 0 4 0 1 0 0 0 0 0 0 0 0 0 0 0 0 21 0 1 16 6 9 2 3 0 0 0 2 0 16 0 13 32 27 35 104 55 21 33 17 31
6 7 9 10 6 2 2 0 1 0 1 4 8 2 0 0 0 0 0 0 0 0 0 0 0 0 0 3 0 0 20 0 0 0 0 14 12 0 0 5 37 38 9 3 0 5 24 35 51 28 10 26 15 45
5 4 0 0 1 2 3 0 0 1 12 4 4 1 10 7 24 13 1 1 0 0 0 0 7 7 3 5 9 2 4 2 5 0 0 0 1 0 2 4 8 0 0 0 0 0 1 8 34 27 16 8 8 16
2 0 3 9 6 2 0 13 5 1 4 1 0 3 0 0 10 2 3 2 1 0 2 1 18 21 5 9 7 8 14 12 2 1 0 0 0 0 0 0 1 0 0 0 0 0 0 6 1 0 0 0 1 0
8 9 8 7 4 12 25 4 1 0 0 0 0 0 0 0 0 2 1 0 0 0 1 3 6 14 13 17 20 15 29 0 0 0 0 0 0 0 0 1 0 0 0 0 0 0 0 0 1 1 0 0 0 0
9 7 5 1 15 1 0 0 0 0 0 0 0 0 7 0 3 13 2 0 0 0 0 0 0 0 12 4 9 15 7 21 14 0 0 0 0 0 3 4 0 0 1 0 4 8 8 3 0 1 0 0 0 0
3 0 0 8 0 0 0 0 0 0 0 3 0 0 2 5 0 1 0 0 0 0 0 1 10 6 15 3 0 0 11 2 0 0 0 0 0 0 5 14 11 7 11 11 15 5 3 0 0 0 0 0 1 0
0 1 0 0 0 0 1 0 0 1 0 0 0 0 0 1 9 6 0 0 3 0 7 2 0 36 15 0 0 0 0 0 0 0 5 17 24 1 1 17 17 18 24 6 10 3 0 0 0 0 8 15 0 0
2 16 0 0 0 0 8 1 0 0 0 0 0 2 3 16 20 11 3 5 6 12 4 6 2 0 0 2 0 0 0 0 0 0 0 0 0 1 0 0 1 0 0 0 4 14 2 0 0 0 1 0 0 0
1 0 3 0 3 0 0 4 0 0 6 2 0 4 10 2 1 0 0 1 4 0 0 0 0 0 2 1 3 7 2 9 11 14 12 1 0 0 0 0 0 0 0 0 0 0 0 0 0 0 0 0 0 0
0 0 9 9 2 1 1 1 1 0 0 1 0 1 0 0 0 8 0 0 0 0 0 0 4 9 0 0 5 11 25 24 26 10 2 0 0 0 0 0 0 0 0 0 0 0 0 0 0 0 0 0 0 0
0 0 0 0 0 0 0 0 0 1 0 0 0 0 0 0 0 0 0 0 0 0 0 0 0 0 12 10 4 3 9 6 1 8 0 0 0 0 0 0 0 0 0 0 0 0 0 0 0 0 0 0 0 0
0 0 0 0 1 0 1 8 4 0 0 0 0 0 0 0 0 0 0 5 6 2 1 1 0 9 21 18 14 28 27 22 22 18 5 0 0 0 0 0 0 0 0 0 0 0 0 0 0 0 0 0 0 0
1 4 0 0 0 0 0 0 0 0 0 0 0 0 0 0 0 3 3 7 15 11 7 5 4 8 1 0 0 0 2 2 0 0 0 0 0 0 0 0 0 0 0 0 0 0 0 0 0 0 0 0 0 0
2 1 0 0 0 0 0 0 0 0 3 8 0 0 0 1 3 2 6 4 8 26 24 1 0 0 0 0 0 0 0 0 0 0 0 0 0 0 0 0 0 0 0 0 0 0 0 0 0 0 0 0 0 0
0 0 0 0 0 1 5 6 8 4 0 0 4 3 5 2 7 3 18 8 7 32 20 0 0 0 0 0 0 0 0 0 0 0 0 0 0 0 0 0 0 0 0 0 0 0 0 0 0 0 0 0 0 0
0 0 0 0 0 2 2 2 6 3 0 0 0 0 2 1 1 1 7 0 11 13 1 0 0 0 0 0 0 0 0 0 0 0 0 0 0 0 0 0 0 0 0 0 0 0 0 0 0 0 0 0 0 0
0 0 0 0 4 9 9 5 6 6 4 1 1 0 0 0 0 0 0 0 0 0 0 0 0 0 0 0 0 0 0 0 0 0 0 0 0 0 0 0 0 0 0 0 0 0 0 0 0 0 0 0 0 0
0 0 0 0 13 8 13 35 35 35 29 12 2 3 1 0 0 0 0 0 0 0 0 0 0 0 0 0 0 0 0 0 0 0 0 0 0 0 0 0 0 0 0 0 0 0 0 0 0 0 0 0 0 0
0 0 0 0 3 27 34 35 28 37 27 10 6 4 0 0 0 0 0 0 0 0 0 0 0 0 0 0 0 0 0 0 0 0 0 0 0 0 0 0 0 0 0 0 0 0 0 0 0 0 0 0 0 0

GFSWCAN_con_mlcape_111.txt.gz
CAPE
17 14 12 14 16 16 11 8 19 20 17 8 5 1 3 4 2 0 8 9 21 4 0 0 0 0 0 0 0 0 0 0 0 0 0 0 0 0 0 0 0 0 0 0 1 9 5 44 161 60 89 151 121 114
42 36 26 23 22 14 23 14 14 14 12 8 7 3 5 8 3 7 4 26 14 14 5 0 0 0 0 0 0 0 0 0 0 0 0 0 0 0 0 0 0 0 0 0 0 2 1 32 10 68 77 123 335 215
42 46 47 43 28 22 29 28 20 29 22 24 12 7 7 7 2 5 0 8 25 30 9 0 0 0 0 0 0 0 0 0 0 0 0 0 0 0 0 0 0 0 0 0 0 0 0 0 0 17 70 227 283 415
44 43 44 52 32 16 14 31 24 22 34 21 17 7 7 4 3 4 2 9 33 34 7 0 0 0 0 0 0 0 0 0 0 0 0 0 0 0 0 0 0 0 0 0 0 0 0 0 0 0 24 236 338 494
22 32 37 38 32 20 17 21 31 34 29 22 20 13 7 6 4 9 8 0 4 21 11 0 0 0 0 0 0 0 0 0 0 0 0 0 0 0 0 0 0 0 0 0 0 0 0 0 0 0 0 100 413 333
10 5 8 15 14 15 9 9 14 27 22 23 29 19 7 5 6 3 10 0 15 34 8 0 0 0 0 0 0 0 0 0 0 0 0 0 0 0 0 0 0 0 0 0 0 0 0 0 0 0 0 384 338 330
10 7 8 12 8 5 2 4 1 2 8 25 15 8 8 5 3 1 10 1 2 34 4 13 0 0 0 0 0 0 0 0 0 0 0 0 0 0 0 0 0 0 0 0 0 0 0 0 0 216 246 373 204 450
12 11 7 0 0 2 5 0 1 2 9 19 15 7 9 6 9 0 0 0 0 7 15 14 0 1 0 0 0 0 0 0 0 0 0 0 0 0 0 0 0 0 0 0 113 52 0 0 39 271 460 476 389 469
0 6 2 3 0 1 4 7 0 1 10 10 9 14 2 3 13 1 0 15 2 2 14 31 1 38 0 0 0 0 0 0 0 0 0 0 0 0 0 0 0 0 69 41 7 170 305 292 337 537 518 457 443 417
0 2 0 6 3 5 6 0 1 4 4 6 1 1 10 3 0 35 7 13 1 15 8 20 1 0 0 0 1 16 3 35 10 0 0 0 0 0 0 0 0 0 0 21 33 108 280 364 374 471 451 475 426 461
0 5 2 1 4 3 9 2 4 6 3 3 12 6 4 20 0 32 50 1 2 2 7 0 2 7 0 0 20 3 15 0 6 0 1 0 0 2 18 1 18 38 0 1 32 50 33 165 211 195 301 276 220 279
6 3 7 9 3 4 10 8 8 0 2 2 7 1 28 22 11 22 0 23 7 9 0 0 0 0 0 0 2 89 63 10 11 0 1 9 56 50 106 16 1 52 43 44 13 5 9 125 123 90 112 130 130 168
3 5 4 4 6 6 7 4 3 5 0 0 9 2 27 12 0 2 1 7 1 6 5 1 0 0 0 0 0 19 27 27 7 34 6 5 36 0 0 0 0 2 11 7 3 35 33 51 87 82 75 155 186 141
10 8 3 11 9 5 7 1 5 3 0 2 1 0 0 2 0 0 1 14 5 0 7 0 0 0 0 0 10 1 0 30 7 2 23 40 6 0 0 0 4 35 56 37 13 36 37 81 88 96 185 139 102 61
7 8 12 14 13 4 1 1 10 0 1 4 1 0 0 0 0 0 1 0 0 0 0 0 0 0 2 19 0 5 18 5 8 10 2 17 3 11 5 3 50 47 1 3 0 10 40 70 84 29 21 25 70 13
9 9 4 13 2 0 0 4 5 0 1 3 3 3 16 17 20 20 27 14 11 0 0 0 16 7 18 15 5 0 4 6 22 12 8 12 33 36 29 30 73 0 0 0 0 1 36 82 83 25 6 17 27 6
0 0 3 0 0 0 0 9 2 1 5 8 3 2 2 1 1 0 5 15 12 20 38 27 17 0 9 2 0 42 34 22 38 47 45 22 2 6 47 60 0 0 0 0 0 1 2 35 17 8 0 1 0 0
0 0 0 3 0 0 0 1 1 7 1 1 1 2 0 0 1 1 12 13 12 2 17 34 98 27 11 9 27 65 71 36 59 32 0 0 10 28 7 1 0 0 1 3 1 0 0 0 0 0 3 2 0 0
7 11 10 3 5 3 6 0 0 0 1 3 0 1 5 1 1 7 11 6 0 0 27 12 3 57 80 102 72 57 44 111 65 0 0 0 3 11 6 9 12 5 13 18 25 34 13 6 4 0 0 0 0 0
13 10 1 4 2 2 0 0 0 0 0 6 5 5 0 3 1 12 0 0 0 13 43 8 0 7 9 10 12 41 37 29 0 1 8 11 19 19 25 8 7 7 18 39 29 38 36 35 49 26 13 14 8 2
0 0 0 3 0 0 0 2 0 0 0 0 0 1 6 0 12 14 5 0 1 3 0 5 1 21 29 17 0 19 0 0 5 20 18 15 0 2 6 9 32 18 24 32 55 31 39 42 45 59 44 6 0 0
0 4 4 2 0 0 2 9 0 0 0 0 3 0 4 30 20 9 15 17 4 40 16 18 7 10 23 10 1 0 1 7 7 1 0 0 1 1 0 0 0 0 0 0 20 20 0 14 26 27 0 0 0 0
10 6 2 0 1 0 0 0 0 0 0 0 3 7 0 0 0 1 0 7 5 2 2 0 0 1 27 14 14 20 29 14 21 11 12 0 0 0 0 0 0 0 0 0 0 0 0 0 0 0 0 0 0 0
0 8 5 2 0 0 2 6 0 2 2 1 2 2 0 1 0 0 0 1 1 3 0 0 14 38 38 28 37 43 33 39 38 15 2 0 0 0 0 0 0 0 0 0 0 0 0 0 0 0 0 0 0 0
5 1 2 0 0 1 0 0 0 0 0 0 0 0 0 0 0 0 0 4 8 2 0 4 23 25 28 28 31 32 19 0 33 5 0 0 0 0 0 0 0 0 0 0 0 0 0 0 0 0 0 0 0 0
0 0 0 0 0 0 1 4 0 0 0 0 0 0 0 0 1 1 6 19 18 16 12 34 36 41 19 23 29 28 29 23 41 31 0 0 0 0 0 0 0 0 0 0 0 0 0 0 0 0 0 0 0 0
4 2 0 0 0 0 0 0 0 0 0 0 0 0 0 0 1 3 20 37 34 22 8 8 12 2 0 0 0 0 6 0 1 4 0 0 0 0 0 0 0 0 0 0 0 0 0 0 0 0 0 0 0 0
0 0 0 0 0 0 0 0 0 4 4 1 0 1 0 2 1 11 39 37 35 18 0 0 0 0 0 0 0 0 0 0 0 0 0 0 0 0 0 0 0 0 0 0 0 0 0 0 0 0 0 0 0 0
0 0 1 7 4 7 6 4 9 16 4 2 1 5 10 3 5 11 28 28 24 0 0 0 0 0 0 0 0 0 0 0 0 0 0 0 0 0 0 0 0 0 0 0 0 0 0 0 0 0 0 0 0 0
0 0 0 3 3 3 5 0 3 0 0 0 0 2 3 1 0 0 1 7 26 0 0 0 0 0 0 0 0 0 0 0 0 0 0 0 0 0 0 0 0 0 0 0 0 0 0 0 0 0 0 0 0 0
0 0 3 6 13 9 2 3 6 2 0 0 0 0 0 0 0 0 0 0 0 0 0 0 0 0 0 0 0 0 0 0 0 0 0 0 0 0 0 0 0 0 0 0 0 0 0 0 0 0 0 0 0 0
0 0 3 12 25 30 48 37 34 25 14 8 4 4 3 0 0 0 0 0 0 0 0 0 0 0 0 0 0 0 0 0 0 0 0 0 0 0 0 0 0 0 0 0 0 0 0 0 0 0 0 0 0 0
0 0 0 10 25 31 33 28 26 25 10 5 9 6 0 0 0 0 0 0 0 0 0 0 0 0 0 0 0 0 0 0 0 0 0 0 0 0 0 0 0 0 0 0 0 0 0 0 0 0 0 0 0 0

GFSWCAN_con_mlcape_114.txt.gz
CAPE
8 5 14 24 19 17 19 15 12 8 9 8 7 6 2 5 5 8 2 16 12 5 0 0 0 1 2 3 0 15 0 0 0 0 0 0 0 0 0 0 0 0 1 13 10 15 25 91 120 100 120 146 158 355
6 22 14 20 31 23 22 24 11 8 8 7 5 5 5 5 5 5 2 16 41 18 0 0 0 0 0 1 2 5 0 1 5 0 0 0 0 2 0 0 0 0 0 2 6 62 134 34 41 41 85 155 284 419
26 14 18 28 43 38 28 22 23 4 9 7 8 6 7 1 5 2 12 5 12 12 1 0 0 0 0 0 0 0 21 14 4 0 1 8 0 6 8 0 0 13 10 0 0 0 2 48 13 9 62 245 407 432
3 4 8 21 21 15 27 18 24 27 21 10 4 6 8 7 2 2 9 6 21 17 2 0 0 0 0 0 0 8 0 7 0 0 4 18 20 5 0 2 10 4 16 0 9 0 30 30 2 14 6 48 178 643
9 8 9 22 21 13 17 17 21 29 22 12 8 13 2 10 4 7 7 7 5 14 6 0 0 0 0 0 0 0 0 5 30 23 18 34 29 24 2 2 0 0 0 0 0 0 0 0 0 0 0 0 29 557
16 10 14 9 12 16 22 19 23 18 26 28 22 22 15 4 5 9 14 1 1 31 15 0 0 0 0 0 0 2 49 23 35 43 51 52 49 11 12 4 0 0 0 0 0 0 0 0 0 0 4 302 258 754
3 7 5 8 9 15 12 10 3 2 6 10 19 12 5 2 9 6 5 1 0 6 13 4 0 3 5 0 0 2 16 43 50 57 30 55 62 2 9 0 0 0 0 0 0 0 0 0 0 0 69 180 514 677
0 3 6 12 1 4 2 1 3 2 1 7 13 11 4 3 2 0 0 0 0 12 4 6 0 0 113 109 0 0 6 29 34 45 86 72 77 35 15 0 0 0 0 0 0 184 45 69 158 27 224 694 757 830
0 0 5 7 9 0 1 1 2 0 0 6 14 6 10 12 17 10 0 12 29 7 15 16 0 30 202 211 77 10 62 9 62 29 89 112 66 36 0 0 0 0 33 128 127 14 164 463 632 696 939 972 916 859
0 0 0 0 4 2 0 3 0 0 1 2 13 21 5 22 6 5 1 10 14 9 1 4 25 12 13 114 98 87 63 55 86 78 136 73 43 18 0 1 0 3 43 42 52 10 261 271 449 597 940 1013 965 822
0 0 0 2 0 3 1 3 0 9 2 15 24 7 25 8 15 15 34 23 11 5 2 0 0 14 4 7 190 199 138 97 149 115 89 78 34 57 205 173 212 228 184 114 183 233 308 318 435 618 814 886 834 814
1 3 5 4 4 6 4 4 5 7 17 19 15 16 23 23 47 24 16 2 1 3 30 48 16 3 0 35 1 208 100 184 115 132 80 55 238 589 499 333 291 363 335 270 252 181 204 252 440 543 655 653 592 483
13 5 4 11 7 2 2 0 2 0 1 6 16 11 28 37 12 10 8 9 40 2 84 67 58 13 8 1 19 86 92 104 313 160 125 324 448 406 364 228 153 248 319 289 245 286 267 275 418 482 504 525 548 562
0 2 4 2 4 4 3 8 6 1 8 1 2 0 4 10 5 0 1 25 55 100 81 25 72 0 12 5 55 95 45 114 50 64 178 326 283 213 98 14 129 60 25 158 151 225 71 55 128 323 510 478 456 456
6 4 5 8 2 4 6 3 0 5 17 4 2 0 4 10 13 6 13 27 29 45 1 32 113 52 14 20 38 0 49 30 102 185 290 260 176 35 1 3 0 17 52 71 59 179 35 50 41 16 48 213 126 1
1 4 20 5 1 3 0 3 10 15 9 5 2 1 39 48 53 6 30 96 66 144 58 81 161 62 41 105 48 31 26 93 174 225 225 151 72 71 183 202 114 53 73 89 140 239 201 54 14 21 39 120 73 39
0 19 2 5 2 0 1 9 27 13 4 3 1 16 4 2 4 8 8 1 106 140 153 217 139 34 155 78 38 132 113 68 209 208 262 189 178 119 153 64 52 96 114 98 114 192 234 117 67 25 10 0 1 1
19 16 0 0 1 6 5 1 4 5 2 5 16 2 1 6 1 0 1 26 6 136 228 99 188 112 117 73 107 253 344 409 244 168 201 178 233 129 109 80 70 85 63 57 63 43 58 65 14 1 14 8 7 0
4 0 0 0 13 3 7 11 3 14 19 11 1 0 1 2 0 0 3 63 51 96 115 128 166 240 247 245 230 312 297 225 179 143 168 168 9 79 91 42 42 56 87 95 65 29 25 26 33 14 8 2 0 0
11 4 0 1 4 13 11 11 0 1 4 9 6 12 2 0 0 11 67 34 3 178 179 103 144 134 188 247 365 258 259 155 126 128 92 60 57 10 15 20 52 129 102 63 55 60 131 85 40 30 30 5 0 0
5 6 0 2 1 1 1 10 9 12 15 7 5 8 26 23 26 109 128 141 20 4 2 0 2 130 279 294 460 258 234 193 243 125 83 66 45 11 80 36 28 36 53 56 36 28 37 43 77 35 24 18 0 0
4 0 2 5 1 2 1 13 1 5 0 1 0 0 14 28 61 40 8 2 7 2 16 44 64 152 247 200 220 220 167 75 41 29 9 0 1 0 0 0 0 0 0 1 26 36 34 42 29 6 0 0 0 0
9 5 2 1 2 0 0 1 8 0 3 1 1 0 3 1 12 59 36 17 27 13 8 13 52 229 242 150 155 43 28 31 4 0 0 0 0 0 0 0 0 0 0 0 0 0 1 4 0 0 0 0 0 0
6 5 3 2 1 0 0 1 0 0 2 8 3 0 0 1 16 17 15 20 28 49 132 182 206 179 48 48 48 86 81 76 26 11 0 1 0 0 0 0 0 0 0 0 0 0 2 2 1 6 0 0 0 0
1 0 2 1 0 2 1 9 21 12 9 8 13 11 10 23 9 4 9 46 42 33 145 138 160 103 34 14 25 93 89 68 27 19 3 0 0 0 0 0 0 0 0 0 0 0 0 0 0 0 0 0 0 0
1 0 0 24 33 16 15 16 13 17 7 0 0 0 10 1 2 4 4 29 45 67 131 147 79 63 48 67 73 76 136 156 89 36 8 0 0 4 2 0 0 0 0 0 0 0 0 0 0 0 0 0 0 0
9 15 28 18 25 6 1 1 1 0 0 2 4 6 15 7 13 35 30 38 48 37 25 29 39 30 11 8 4 11 22 27 17 16 0 0 0 0 0 0 0 0 0 0 0 0 0 0 0 0 0 0 0 0
13 17 23 22 11 10 11 10 7 9 8 5 7 4 3 1 3 22 102 142 64 0 0 0 0 0 0 0 0 0 0 0 0 0 0 0 0 0 0 0 0 0 0 0 0 0 0 0 0 0 0 0 0 0
2 0 2 14 7 4 2 8 21 30 18 11 6 3 0 17 75 87 63 79 57 0 0 0 0 0 0 0 0 0 0 0 0 0 0 1 1 0 0 0 0 0 0 0 0 0 0 0 0 0 0 0 0 0
2 2 3 3 2 6 13 16 22 13 17 5 5 7 17 11 8 25 38 79 21 1 0 0 0 0 0 0 0 0 0 0 0 0 0 0 0 0 0 0 0 0 0 0 0 0 0 0 0 0 0 0 0 0
11 22 15 16 22 18 32 42 38 33 28 26 19 7 5 1 0 1 1 0 0 0 0 0 0 0 0 0 0 0 0 0 0 0 0 0 0 0 0 0 0 0 0 0 0 0 0 0 0 0 0 0 0 0
13 37 23 17 21 39 38 18 20 17 19 18 17 14 13 15 2 0 0 0 0 1 0 0 0 0 0 0 0 0 0 0 0 0 0 0 0 0 0 0 0 0 0 0 0 0 0 0 0 0 0 2 1 2
23 22 27 32 29 25 24 20 16 10 11 11 10 9 2 1 2 0 0 0 0 0 0 0 0 0 0 0 0 0 0 0 0 0 0 0 0 0 0 0 0 0 0 0 0 0 0 0 0 0 1 1 1 2

GFSWCAN_con_mlcape_117.txt.gz
CAPE
9 15 11 1 3 9 4 0 9 8 2 5 5 7 2 0 0 0 0 2 0 0 0 0 0 0 0 0 0 6 0 0 0 0 0 0 0 0 1 2 16 19 24 17 28 31 7 187 112 50 160 217 110 115
3 5 5 0 1 1 8 8 7 4 7 3 6 9 4 1 0 0 0 17 17 4 0 0 0 0 0 0 0 0 4 5 40 2 0 0 0 0 1 3 10 0 0 6 31 157 247 116 81 2 31 87 125 227
6 4 4 1 0 0 0 14 17 16 13 8 5 13 9 0 0 0 0 1 5 12 0 0 0 0 0 0 0 0 0 0 1 32 6 4 20 5 10 24 17 11 13 11 1 20 0 21 30 0 1 22 57 135
5 0 1 2 0 1 2 0 12 25 25 23 8 12 12 5 1 0 0 1 1 3 0 0 0 0 0 0 0 0 0 0 0 6 26 6 6 34 23 26 20 37 44 20 27 30 0 30 41 39 46 0 0 33
3 1 4 2 2 0 0 0 0 18 20 28 15 12 12 6 4 0 1 0 1 4 2 0 0 0 0 0 0 0 0 0 4 23 17 8 15 30 17 44 17 34 12 22 27 28 32 34 13 11 0 0 0 34
0 1 6 5 8 6 9 2 1 12 19 21 29 12 16 3 0 4 1 1 0 5 7 0 0 0 0 0 0 0 0 2 5 21 14 22 19 40 45 34 47 43 0 4 6 2 3 0 0 0 0 0 31 225
0 0 0 0 1 0 11 15 16 7 4 11 14 17 16 0 3 4 0 0 0 17 20 2 0 0 0 0 0 0 0 7 26 21 38 37 37 72 64 66 46 44 36 2 0 0 0 0 0 0 0 0 80 240
2 0 0 2 6 7 10 6 4 4 0 2 7 11 10 3 1 0 0 0 0 21 23 7 0 0 0 31 5 4 14 12 42 56 78 60 92 79 85 47 34 31 38 21 2 0 0 21 31 55 38 4 46 486
4 0 0 1 10 6 0 4 4 4 0 0 1 5 15 7 2 1 1 0 0 8 4 11 0 2 128 108 146 30 45 48 24 70 29 118 35 47 15 47 49 59 37 26 95 57 43 16 97 195 177 122 269 579
7 0 0 0 5 2 1 3 0 0 0 0 3 23 14 6 11 2 0 35 17 24 2 2 0 11 90 191 187 81 74 52 85 27 67 71 44 134 138 150 90 101 39 31 47 14 12 141 161 235 379 380 446 688
4 2 0 0 0 3 6 0 0 0 0 8 28 16 18 3 24 29 23 19 21 5 2 0 0 1 21 51 60 99 96 99 54 66 20 94 39 63 173 162 279 260 179 156 106 128 147 168 188 273 539 837 922 970
0 0 0 0 0 1 4 1 0 2 23 22 16 3 4 40 26 21 14 26 11 10 11 10 21 12 39 68 115 139 0 2 11 19 55 134 125 610 515 510 492 456 413 341 332 365 318 281 270 338 540 779 967 964
1 4 2 3 5 1 2 1 0 11 1 20 23 31 30 23 20 13 11 18 17 55 100 174 130 42 17 62 67 96 76 11 71 130 88 247 452 473 577 557 448 558 511 463 429 353 372 381 425 463 446 486 707 797
8 0 6 2 13 3 6 0 0 1 9 28 3 0 5 8 13 20 25 55 154 143 95 152 4 56 52 45 0 7 74 56 9 8 89 368 549 466 231 247 317 286 340 286 253 346 338 382 251 276 434 637 668 571
3 2 5 2 2 3 3 1 1 5 26 2 2 1 2 21 51 22 32 26 47 112 102 94 85 66 43 33 54 75 0 0 47 15 62 231 289 127 74 6 0 75 135 263 254 188 35 4 3 43 203 244 256 255
3 4 13 1 1 3 5 5 4 18 25 4 7 1 4 50 69 71 39 74 137 149 225 62 37 44 27 6 22 22 29 3 96 107 171 92 154 5 5 41 1 60 182 201 190 300 120 59 128 41 8 13 23 6
4 29 1 1 3 3 2 22 17 20 12 22 4 10 0 1 2 4 9 80 151 195 108 178 136 14 0 23 45 141 49 62 71 148 273 329 340 263 303 85 112 203 148 193 353 343 201 145 74 54 6 11 7 2
21 7 0 1 0 7 19 0 21 5 13 10 12 22 5 1 0 15 0 2 89 150 225 165 318 168 97 79 105 264 266 118 95 247 289 329 326 295 266 183 160 112 139 108 137 142 158 169 114 93 35 15 0 1
23 3 0 0 12 2 1 2 4 5 12 7 1 0 0 0 6 0 0 0 28 192 247 300 206 111 244 365 190 251 174 224 269 216 175 154 187 150 202 204 188 192 128 91 86 92 43 35 18 4 0 0 0 0
0 0 0 1 3 11 21 18 16 9 4 3 1 3 1 2 8 7 88 136 180 30 84 48 130 182 216 245 123 167 348 476 217 164 154 67 11 89 219 224 390 279 121 77 78 95 73 26 13 22 0 0 0 0
0 0 0 0 1 0 6 5 12 9 11 7 0 0 0 1 9 17 84 16 31 36 45 54 124 205 451 433 388 510 539 513 355 329 123 0 125 137 30 25 31 19 30 14 23 36 30 64 37 36 24 28 18 8
2 0 2 4 3 6 9 4 18 15 7 8 16 7 10 22 16 19 18 5 2 4 0 25 182 339 307 313 394 344 274 217 50 0 0 0 0 11 11 8 13 1 4 1 10 30 19 19 4 6 1 1 0 0
0 8 6 1 3 2 0 2 8 5 5 0 1 1 15 28 43 73 16 19 38 60 41 27 194 304 303 225 137 82 58 17 0 0 0 0 0 0 0 0 0 0 0 0 0 2 1 0 0 2 1 0 0 0
0 1 1 2 2 1 0 1 0 0 0 2 0 1 19 58 62 23 14 44 116 238 321 386 379 202 312 181 104 47 21 1 0 0 0 1 0 0 0 0 0 0 0 0 0 2 1 0 1 4 0 0 0 0
0 0 1 0 1 2 0 11 4 0 5 18 8 17 13 14 10 12 13 43 77 196 295 239 167 168 176 264 162 223 53 49 22 21 8 12 7 7 0 0 0 0 0 0 0 0 0 0 0 0 0 0 0 0
1 0 0 25 48 10 11 12 11 9 8 5 12 5 19 9 0 5 43 61 124 135 275 293 162 1 5 125 93 83 77 52 23 32 19 7 8 15 9 1 0 0 0 0 0 0 0 0 0 0 0 0 0 0
5 25 30 54 43 36 36 25 24 21 12 10 15 18 10 8 6 23 62 151 185 101 99 36 55 19 18 9 22 37 41 16 13 2 1 0 0 0 0 0 0 0 0 0 0 0 0 0 0 0 0 0 0 0
11 12 12 6 11 13 6 13 9 2 9 8 8 5 2 2 0 80 208 148 6 1 13 5 8 5 1 0 0 6 3 0 0 0 0 0 0 0 0 0 0 0 0 0 0 0 0 0 0 0 0 0 0 0
4 4 19 14 15 11 17 18 12 19 13 1 5 8 32 48 126 181 274 61 6 10 13 7 1 0 0 0 0 0 0 0 0 2 7 14 13 0 0 0 0 0 0 0 0 0 0 0 0 0 0 0 0 0
24 36 29 29 14 10 18 34 24 9 13 15 13 12 8 8 27 40 68 48 24 4 0 0 1 1 0 0 0 0 0 0 0 0 0 0 0 0 0 0 0 0 0 0 0 0 0 0 0 0 0 0 0 0
22 38 36 32 10 16 7 4 9 11 11 11 17 3 8 16 14 13 19 13 19 16 13 7 1 0 0 0 0 0 0 0 0 0 0 0 0 0 0 0 0 0 0 0 0 0 0 0 0 0 0 0 1 0
22 18 6 8 14 9 4 3 7 2 5 4 8 23 23 18 5 2 0 1 9 23 0 1 2 0 0 0 0 0 0 0 0 0 0 0 0 0 0 0 0 0 0 0 0 0 0 0 0 0 0 1 1 1
8 5 8 14 4 5 10 7 14 14 25 27 21 21 11 16 13 13 1 0 0 0 5 0 0 0 0 0 0 0 0 0 0 0 0 0 0 0 0 0 0 0 0 0 0 0 0 0 0 0 0 2 3 5

GFSWCAN_con_mlcape_123.txt.gz
CAPE
3 3 2 1 2 5 13 11 4 0 0 0 0 0 0 0 0 0 0 0 0 0 0 0 0 0 0 0 0 0 0 0 0 0 0 0 0 0 0 0 0 2 14 27 7 1 0 5 53 136 109 94 21 0
2 4 5 8 7 3 6 9 13 5 0 0 2 0 0 0 0 0 0 0 0 0 0 0 0 0 0 0 0 0 0 0 0 0 0 0 0 0 0 0 0 0 0 57 47 11 59 22 14 119 45 43 33 7
11 10 6 6 15 9 6 3 6 10 6 2 5 3 0 0 0 0 0 0 0 0 0 0 0 0 0 0 0 0 0 0 0 0 0 0 0 0 0 0 0 0 0 16 41 67 41 10 151 110 28 10 9 0
1 2 14 15 7 3 5 7 6 4 3 2 15 16 0 0 0 0 0 0 0 0 0 0 0 0 0 0 0 0 0 0 0 0 0 0 0 0 0 0 0 0 0 0 3 6 52 244 167 29 39 8 0 0
3 9 17 22 14 13 18 18 5 2 1 6 10 14 6 0 0 0 0 0 0 0 0 0 0 0 0 0 0 0 0 0 0 0 0 0 0 0 0 0 0 0 0 5 0 0 15 52 21 0 3 8 0 0
5 15 10 8 15 1 8 14 16 9 3 3 15 7 4 1 0 0 0 0 0 0 0 0 0 0 0 0 0 0 0 0 0 0 0 0 0 0 0 0 0 0 0 0 25 9 57 0 6 0 0 0 0 0
5 0 15 3 0 0 2 9 10 6 1 0 0 4 2 0 0 0 0 0 0 0 2 0 0 0 0 0 0 0 0 0 0 0 0 0 0 0 0 0 0 0 0 0 7 70 75 14 5 25 4 0 0 0
7 0 4 2 0 0 4 3 8 4 7 10 9 1 0 0 0 0 0 0 0 0 0 0 0 0 0 0 0 0 0 0 0 0 0 0 0 0 0 0 0 0 0 0 0 100 59 36 43 0 2 11 73 11
10 2 4 0 0 0 13 8 7 5 0 0 0 0 0 0 0 0 0 0 0 2 11 2 0 0 0 2 0 8 14 0 2 0 0 0 0 0 0 0 0 0 0 0 20 99 90 36 12 68 104 74 49 111
3 1 5 5 0 0 7 2 8 3 0 0 0 5 0 3 2 0 0 0 6 14 8 0 0 0 0 0 0 3 1 0 0 0 4 4 0 0 0 5 14 9 34 29 0 31 38 0 0 71 282 447 307 215
0 1 11 8 0 0 1 3 5 0 0 0 5 12 9 22 6 2 10 4 6 11 0 0 0 0 0 0 0 11 5 0 0 0 0 0 0 5 7 11 5 49 25 7 0 0 7 27 27 51 240 333 288 74
5 12 6 9 0 0 0 3 2 0 11 7 4 0 1 6 6 10 6 5 4 2 0 0 0 0 0 0 3 1 0 14 0 1 10 0 0 5 10 5 39 54 17 0 0 0 0 11 615 567 680 701 489 285
7 2 0 0 0 0 0 5 0 2 0 3 19 13 8 6 4 4 3 1 1 3 68 39 6 37 94 70 16 2 6 0 0 0 0 0 0 0 0 0 0 0 0 0 0 0 1 537 538 686 575 538 491 188
0 0 0 0 0 0 0 3 3 1 1 3 13 0 1 2 1 1 12 10 15 6 33 27 0 0 52 21 15 0 17 3 2 0 0 1 62 5 0 16 57 0 0 0 0 11 234 321 403 422 153 335 258 21
2 7 8 10 0 0 0 1 1 0 10 3 4 0 0 1 21 24 4 0 7 3 0 13 1 0 11 3 0 0 0 0 6 2 0 4 52 50 75 39 85 42 35 94 204 197 284 283 185 65 0 0 0 23
8 4 0 15 5 1 2 6 0 13 12 8 2 1 0 7 27 38 41 38 41 27 47 20 0 17 4 13 19 8 2 0 0 13 29 2 20 2 0 4 20 89 164 209 123 34 109 22 7 7 3 0 5 2
3 9 9 2 1 0 0 4 11 13 2 18 1 0 0 5 28 6 4 8 30 40 6 5 8 18 9 11 10 1 18 0 15 70 53 16 7 0 0 0 23 2 60 0 97 45 32 4 14 3 0 0 0 0
3 4 0 0 0 0 12 12 18 10 10 1 0 19 14 8 2 0 0 2 0 15 14 12 4 7 1 1 9 0 4 96 30 5 8 24 24 28 48 46 26 57 106 161 129 80 85 34 12 6 9 0 0 0
24 0 0 0 3 5 7 2 8 7 5 4 4 0 0 0 0 0 2 0 0 6 13 6 6 29 4 1 44 182 136 48 15 7 17 55 67 42 30 34 18 37 52 58 45 23 2 0 2 1 0 0 0 0
0 0 0 0 2 3 1 3 10 1 2 0 0 0 0 0 0 0 0 12 28 48 24 21 24 39 46 34 46 73 27 6 3 8 31 1 0 35 40 27 25 22 10 29 12 4 4 0 0 0 0 0 0 0
2 0 0 7 6 3 5 6 7 5 0 1 0 0 0 0 0 1 0 7 16 7 30 13 7 64 144 54 68 73 84 21 0 1 0 19 13 16 22 36 71 53 51 30 28 23 20 15 18 13 16 28 7 0
0 0 4 7 3 10 2 1 1 7 1 0 0 0 4 1 0 0 3 19 22 20 0 3 15 86 114 72 45 20 20 19 2 1 0 1 14 11 17 29 23 23 38 27 27 24 49 61 43 35 20 0 0 0
0 2 17 9 3 5 2 6 2 3 0 1 5 2 4 3 4 16 5 0 4 82 94 15 63 76 8 6 25 29 6 0 0 0 0 0 0 0 0 0 1 9 41 37 16 13 11 9 26 0 0 0 0 0
3 2 5 3 2 1 0 2 1 0 2 2 4 6 6 10 27 19 10 29 87 40 96 57 33 22 5 8 5 14 11 9 6 10 12 0 0 0 0 0 0 0 0 8 0 0 0 0 1 0 0 1 2 0
0 0 0 0 0 2 0 0 0 10 17 2 0 1 16 32 5 6 14 16 18 47 43 58 30 0 1 3 20 14 4 9 18 7 7 19 0 0 0 0 0 0 0 0 0 0 0 0 0 0 0 0 0 0
0 1 0 0 0 0 27 24 7 17 11 6 17 27 14 12 2 5 16 10 5 25 64 56 2 0 0 1 11 10 5 1 0 0 0 0 0 0 0 0 0 0 0 0 0 0 0 0 0 0 0 0 0 0
1 0 0 0 10 55 21 33 25 17 12 21 23 26 9 1 10 15 98 43 9 9 15 30 19 22 30 38 40 26 13 21 8 6 0 0 0 0 0 0 0 0 0 0 0 0 0 0 0 0 0 0 0 0
10 10 16 43 11 10 0 0 1 6 17 21 14 2 0 4 0 2 109 126 73 93 99 59 28 21 20 1 0 3 4 4 3 10 5 0 0 0 0 0 0 0 0 0 0 0 0 0 0 0 0 0 0 0
22 28 19 9 0 1 1 6 16 22 50 23 0 0 4 17 70 132 41 19 18 19 26 26 13 10 0 0 0 0 0 0 0 0 6 3 0 0 0 0 0 0 0 0 0 0 0 0 0 0 0 0 0 0
15 30 24 28 1 1 11 12 11 2 0 0 0 9 7 4 25 41 59 44 11 5 9 0 0 0 0 0 0 0 0 0 0 0 0 0 0 0 0 0 0 0 0 0 0 0 0 0 0 0 0 0 0 0
27 29 19 8 4 2 1 2 0 0 0 1 6 0 0 5 7 9 8 21 29 21 11 7 0 0 0 0 0 0 0 0 0 0 0 0 0 0 0 0 0 0 0 0 0 0 0 0 0 0 1 0 0 0
18 15 11 10 17 13 20 13 16 13 29 31 21 9 5 6 7 0 0 0 5 11 0 1 0 0 0 0 0 0 0 0 0 0 0 0 0 0 0 0 0 0 0 0 0 0 0 0 0 0 0 0 0 3
29 35 34 21 19 21 3 8 17 33 42 33 21 18 20 18 27 18 7 0 0 0 0 0 0 0 0 0 0 0 0 0 0 0 0 0 0 0 0 0 0 0 0 0 0 0 0 1 0 0 2 5 1 0

GFSWCAN_con_mlcape_129.txt.gz
CAPE
13 13 19 30 33 38 29 22 16 11 8 4 1 0 0 0 0 0 0 0 0 0 0 0 0 0 0 0 0 0 0 0 0 0 0 0 0 0 0 0 0 0 0 0 0 0 0 0 0 0 0 0 0 0
16 6 6 9 10 13 26 17 8 10 3 8 8 0 0 0 0 0 0 0 0 0 0 0 0 0 0 0 0 0 0 0 0 0 0 0 0 0 0 0 0 0 0 0 0 0 0 0 0 0 0 0 0 0
9 3 3 7 8 9 35 26 27 28 23 24 22 6 1 1 0 0 0 0 0 0 0 0 0 0 0 0 0 0 0 0 0 0 0 0 0 0 0 0 0 0 0 0 0 0 0 0 0 0 0 0 0 0
5 2 0 10 13 25 29 25 28 25 25 20 20 13 8 4 1 0 0 0 0 0 0 0 0 0 0 0 0 0 0 0 0 0 0 0 0 0 0 0 0 0 0 0 0 0 0 0 0 0 0 0 0 0
1 2 0 0 1 7 26 31 29 42 34 19 18 20 12 6 0 0 0 0 0 0 0 0 0 0 0 0 0 0 0 0 0 0 0 0 0 0 0 0 0 0 0 0 0 0 0 0 0 0 0 0 0 1
17 13 3 1 3 4 13 12 17 40 27 22 19 13 9 1 0 0 0 0 0 0 0 0 0 0 0 0 0 0 0 0 0 0 0 0 0 0 0 0 0 0 0 0 0 0 0 0 0 0 0 0 0 0
4 4 4 0 5 11 12 10 4 20 18 27 18 2 0 0 0 0 0 0 0 0 0 0 0 0 0 0 0 0 0 0 0 0 0 0 0 0 0 0 0 0 0 0 0 0 0 0 0 0 0 0 0 0
8 1 7 0 2 6 0 0 4 12 19 14 8 8 3 0 0 0 0 0 0 0 0 0 0 0 0 0 0 0 0 0 0 0 0 0 0 0 0 0 0 0 0 0 0 0 0 0 0 0 0 0 0 0
0 4 10 0 4 0 0 17 12 11 15 9 2 0 0 0 0 0 0 0 0 0 0 0 0 0 0 0 0 0 0 0 0 0 0 0 0 0 0 0 0 0 0 0 0 0 0 0 0 0 2 23 8 18
2 6 0 0 2 0 0 15 16 18 0 0 0 0 0 1 4 4 0 0 0 0 0 0 0 0 0 0 0 0 0 0 0 0 0 0 0 0 0 0 0 0 0 0 0 0 0 0 13 57 61 78 37 168
5 4 1 0 4 0 9 9 22 1 0 0 0 1 16 30 1 3 0 0 0 0 0 0 0 0 0 0 0 0 0 0 0 0 0 0 0 0 0 0 0 0 0 0 0 0 0 0 0 35 124 171 199 341
5 5 6 2 1 0 0 9 7 0 0 1 2 0 2 6 4 0 0 0 0 0 0 0 0 0 0 0 0 0 0 0 0 0 0 0 0 0 0 0 0 0 0 0 0 0 0 0 9 29 59 53 208 353
11 2 14 16 0 0 0 22 2 0 0 0 0 0 3 0 3 1 8 3 0 2 20 7 22 2 0 0 0 0 0 0 0 0 0 0 0 0 0 0 0 1 0 0 0 0 0 0 0 0 54 1 130 69
4 3 2 8 0 0 2 15 3 0 0 0 4 0 0 0 0 0 0 3 0 1 7 0 0 0 0 14 1 0 0 3 0 0 0 0 0 0 5 3 0 0 0 0 0 0 8 0 1 12 50 60 60 107
2 0 0 0 0 0 2 12 0 0 1 1 0 1 0 0 0 0 0 2 5 2 1 0 0 5 2 5 13 4 2 0 0 0 0 0 6 4 4 0 0 0 0 0 13 5 0 0 0 2 1 11 15 9
3 14 0 0 0 0 10 3 0 0 0 0 0 0 0 0 0 0 5 8 13 7 15 9 4 0 4 6 3 0 1 0 0 1 2 15 17 7 0 0 1 0 6 20 14 6 1 2 0 0 1 1 5 10
13 7 1 0 0 0 9 0 0 0 0 0 0 0 0 0 0 0 0 8 7 11 8 5 3 0 8 1 3 0 5 1 10 8 12 13 7 12 3 5 4 15 23 13 12 3 0 0 0 0 3 1 2 2
23 31 13 0 0 7 10 2 0 2 0 0 0 0 0 0 0 0 0 0 0 13 22 7 0 4 4 2 0 0 0 2 0 9 27 18 26 38 35 18 19 13 5 7 8 1 0 1 0 0 0 0 0 0
1 8 16 7 10 0 0 0 0 0 0 0 0 0 0 0 0 0 0 0 0 9 30 0 2 5 2 0 0 18 6 14 19 8 2 8 4 17 20 16 22 26 6 10 2 0 1 4 0 0 0 0 0 0
0 3 10 18 9 5 2 0 3 0 0 0 0 0 0 0 0 0 0 0 0 15 11 4 1 7 19 6 12 12 20 22 27 21 15 12 14 15 16 13 6 2 0 0 0 0 0 0 0 0 0 0 0 0
0 0 0 0 1 0 1 0 1 0 0 1 0 0 0 0 0 3 19 23 33 12 7 20 3 0 26 21 14 23 39 28 8 7 10 20 26 41 17 3 0 0 0 0 0 0 0 0 0 0 0 0 0 0
2 0 0 0 0 0 1 0 0 1 1 0 1 0 0 0 6 6 3 10 24 5 2 8 23 26 6 17 32 31 13 0 0 0 0 0 2 6 33 48 59 39 14 4 1 2 0 0 1 1 0 0 0 0
0 0 0 1 1 1 0 5 2 4 4 2 1 1 5 0 0 16 5 12 21 22 14 4 10 7 17 11 8 3 0 0 0 0 0 0 0 0 7 19 24 35 42 43 27 30 27 19 13 6 0 0 0 0
0 3 5 2 2 0 1 2 1 1 2 0 0 1 1 16 13 18 2 13 15 16 3 1 0 0 4 4 2 0 0 0 2 0 0 0 0 0 0 0 0 0 0 0 0 8 12 0 4 0 0 0 0 0
3 2 1 0 0 2 1 0 0 1 0 0 0 5 5 3 2 3 2 6 3 2 6 10 12 15 8 3 2 5 2 0 5 0 0 0 0 0 0 0 0 0 0 0 0 0 0 0 0 0 0 0 0 0
1 0 1 0 0 1 0 7 8 6 2 7 17 6 6 1 2 4 5 3 0 5 20 11 12 16 13 13 17 29 20 6 0 4 0 0 0 0 0 0 0 0 0 0 0 0 0 0 0 0 0 0 0 0
0 1 0 0 0 0 10 6 3 0 0 4 0 0 0 1 2 10 12 16 23 26 36 43 31 34 32 14 6 3 0 0 2 0 0 0 0 0 0 0 0 0 0 0 0 0 0 0 0 0 0 0 0 0
0 0 6 5 1 0 6 8 2 0 0 0 0 0 0 0 2 6 25 35 44 54 58 51 39 30 29 0 0 0 0 0 0 0 0 0 0 0 0 0 0 0 0 0 0 0 0 0 0 0 0 0 0 0
3 0 0 1 0 0 0 0 0 0 0 0 0 0 1 6 10 23 34 45 33 27 23 18 0 0 0 0 0 0 0 0 0 0 0 0 0 0 0 0 0 0 0 0 0 0 0 0 0 0 0 0 0 0
17 0 0 0 0 0 0 0 0 0 0 0 0 0 0 5 4 0 2 1 0 0 0 0 0 0 0 0 0 0 0 0 0 0 0 0 0 0 0 0 0 0 0 0 0 0 0 0 0 0 0 0 0 0
0 0 0 0 1 2 4 5 7 2 0 0 0 0 0 0 0 0 0 0 0 0 0 0 0 0 0 0 0 0 0 0 0 0 0 0 0 0 0 0 0 0 0 0 0 0 0 0 0 0 0 0 0 0
2 0 0 0 0 0 7 5 6 7 5 10 5 3 11 10 1 0 0 0 0 0 0 0 0 0 0 0 0 0 0 0 0 0 0 0 0 0 0 0 0 0 0 0 0 0 0 0 0 0 0 0 0 0
0 1 4 13 22 12 1 1 6 14 3 11 12 2 6 12 5 0 3 0 0 0 0 0 0 0 0 0 0 0 0 0 0 0 0 0 0 0 0 0 0 0 0 0 0 0 0 0 0 0 1 1 4 4

GFSWCAN_con_mlcape_132.txt.gz
CAPE
27 14 19 18 10 23 23 41 48 39 9 9 11 5 6 14 1 0 0 0 0 0 0 0 0 0 0 0 0 0 0 0 0 0 0 0 0 0 0 0 0 0 0 0 0 0 0 0 0 0 0 0 0 0
27 24 6 11 5 9 10 12 10 13 16 9 12 13 10 19 4 0 0 0 0 0 0 0 0 0 0 0 0 0 0 0 0 0 0 0 0 0 0 0 0 0 0 0 0 0 0 0 0 0 0 0 0 0
3 6 1 1 0 7 3 3 26 30 29 13 24 33 14 14 1 0 0 0 0 0 0 0 0 0 0 0 0 0 0 0 0 0 0 0 0 0 0 0 0 0 0 0 0 0 0 0 0 0 0 0 0 0
2 0 0 1 2 2 8 28 35 38 39 20 15 19 20 12 6 0 0 0 0 0 0 0 0 0 0 0 0 0 0 0 0 0 0 0 0 0 0 0 0 0 0 0 0 0 0 0 0 0 0 0 0 0
0 3 10 0 0 0 0 14 9 22 30 12 21 19 15 14 5 0 0 0 0 0 0 0 0 0 0 0 0 0 0 0 0 0 0 0 0 0 0 0 0 0 0 0 0 0 0 0 0 0 0 0 0 0
1 15 11 4 6 2 11 4 20 0 19 16 11 18 16 12 0 0 0 0 0 0 0 0 0 0 0 0 0 0 0 0 0 0 0 0 0 0 0 0 0 0 0 0 0 0 0 0 0 0 0 0 0 0
1 0 1 4 2 0 5 6 7 3 13 13 26 19 10 5 0 0 0 0 0 0 0 0 0 0 0 0 0 0 0 0 0 0 0 0 0 0 0 0 0 0 0 0 0 0 0 0 0 0 0 0 0 0
3 1 4 7 6 2 6 2 2 7 21 19 22 14 8 0 0 0 0 0 0 0 0 0 0 0 0 0 0 0 0 0 0 0 0 0 0 0 0 0 0 0 0 0 0 0 0 0 0 0 0 0 0 0
3 0 6 15 0 4 0 0 18 20 18 19 15 0 0 0 0 0 1 0 0 0 0 0 0 0 0 0 0 0 0 0 0 0 0 0 0 0 0 0 0 0 0 0 0 0 0 0 0 0 0 0 0 0
1 16 7 2 11 0 0 23 9 18 10 2 0 0 0 2 11 3 0 0 0 0 0 0 0 0 0 0 0 0 0 0 0 0 0 0 0 0 0 0 0 0 0 0 0 0 0 0 0 0 0 0 0 0
21 9 4 6 4 0 18 7 23 2 0 0 4 7 9 15 2 0 0 0 0 0 0 0 0 0 0 0 0 0 0 0 0 0 0 0 0 0 0 0 0 0 0 0 0 0 0 0 0 0 0 0 0 10
6 3 0 2 3 0 3 19 2 0 0 1 2 0 5 10 4 1 0 0 0 0 0 0 0 0 0 0 0 0 0 0 0 0 0 0 0 0 0 0 0 0 0 0 0 0 0 0 0 0 0 0 0 8
9 1 7 13 0 0 0 18 0 0 0 0 3 8 5 0 1 0 0 0 0 5 31 17 5 0 0 0 0 0 0 0 0 0 0 0 0 0 0 0 0 0 0 0 0 0 0 0 0 0 0 0 1 18
0 0 1 2 0 0 7 17 2 0 0 0 1 0 0 0 0 0 0 7 1 6 11 1 6 4 0 0 0 0 0 0 0 0 0 0 0 0 0 0 0 0 0 0 0 1 0 0 0 0 0 0 1 0
2 0 0 0 0 0 15 13 0 0 0 0 1 0 0 0 0 0 0 0 6 0 1 0 0 0 0 0 0 0 0 0 0 0 0 0 0 0 1 0 0 0 0 0 1 0 0 0 0 0 1 1 1 0
0 6 0 0 0 0 11 1 0 0 0 0 0 0 0 0 0 0 0 3 8 0 0 3 5 0 0 0 2 0 0 0 0 0 0 3 5 6 1 0 0 0 0 0 0 7 2 4 0 1 2 0 0 15
13 6 0 0 0 5 6 0 0 0 0 0 0 0 0 0 0 0 0 2 3 3 2 2 5 1 0 3 6 0 0 0 8 9 2 16 13 10 3 0 8 19 10 13 9 0 0 0 3 3 0 2 2 2
22 3 0 0 0 9 7 0 0 0 0 0 0 0 0 0 0 0 0 0 0 0 2 2 14 3 4 1 10 1 0 0 5 2 8 6 12 25 11 25 20 8 11 10 3 4 3 4 0 0 0 0 0 0
16 0 0 0 4 1 0 0 0 0 0 0 0 0 0 0 0 0 0 0 0 0 9 6 0 3 0 0 0 0 31 30 26 26 15 3 18 25 28 22 5 7 16 0 0 5 0 0 3 0 0 0 0 0
5 8 16 13 14 4 1 0 1 0 0 0 0 0 0 0 0 0 0 1 4 16 8 2 1 0 2 6 9 21 22 6 4 28 8 10 26 39 35 26 17 0 0 0 0 0 0 0 0 0 0 0 0 0
0 0 0 0 0 0 1 1 1 0 0 1 0 1 0 0 1 11 9 11 6 0 0 0 17 14 8 24 23 23 17 5 14 9 18 23 3 0 0 0 0 0 0 0 0 0 0 0 0 0 0 0 0 0
2 0 0 0 0 0 1 0 0 0 0 0 1 1 2 7 4 6 0 14 13 11 1 17 15 25 33 33 29 13 0 0 0 0 0 0 19 28 42 29 2 0 0 0 0 0 0 0 0 0 0 0 0 0
0 0 0 0 0 1 0 1 1 2 3 1 1 4 10 8 5 8 7 10 4 38 18 12 23 36 31 2 0 0 0 0 0 0 0 0 0 0 14 35 46 31 14 2 1 7 8 3 3 2 0 0 0 0
0 0 1 2 1 0 0 1 0 2 0 1 3 6 2 2 9 24 13 15 0 0 0 2 3 0 0 2 0 2 2 1 0 0 0 0 0 0 0 0 1 4 5 3 5 25 33 19 9 0 0 0 0 0
0 0 0 1 0 2 2 1 1 1 0 0 7 2 15 9 3 6 12 10 1 0 0 1 5 2 2 12 12 0 0 0 0 0 0 0 0 0 0 0 0 0 0 0 0 6 0 0 0 0 0 0 0 0
0 0 0 0 1 1 0 3 3 1 2 8 3 4 0 0 1 1 10 14 15 6 4 3 2 1 3 3 19 12 4 1 0 5 0 0 0 0 0 0 0 0 0 0 0 0 0 0 0 0 0 0 0 0
1 1 0 0 0 0 1 1 0 0 4 3 0 0 0 2 11 13 1 7 12 7 7 16 26 27 4 0 0 0 0 0 0 0 0 0 0 0 0 0 0 0 0 0 0 0 0 0 0 0 0 0 0 0
0 0 0 0 0 0 0 0 0 0 0 0 0 0 0 1 12 12 23 22 31 37 33 19 22 28 1 0 0 0 0 0 0 0 0 0 0 0 0 0 0 0 0 0 0 0 0 0 0 0 0 0 0 0
0 0 0 0 0 0 0 0 0 0 0 0 0 0 3 0 1 18 44 43 17 27 31 0 0 0 0 0 0 0 0 0 0 0 0 0 0 0 0 0 0 0 0 0 0 0 0 0 0 0 0 0 0 0
0 0 0 0 0 0 0 0 0 0 0 0 0 0 0 0 0 0 0 1 7 0 0 0 0 0 0 0 0 0 0 0 0 0 0 0 0 0 0 0 0 0 0 0 0 0 0 0 0 0 0 0 0 0
1 0 0 2 5 11 2 0 1 1 0 0 0 0 0 0 0 0 0 0 0 0 0 0 0 0 0 0 0 0 0 0 0 0 0 0 0 0 0 0 0 0 0 0 0 0 0 0 0 0 0 0 0 0
0 0 1 2 1 0 0 2 5 4 11 22 6 3 8 4 0 0 0 0 0 0 0 0 0 0 0 0 0 0 0 0 0 0 0 0 0 0 0 0 0 0 0 0 0 0 0 0 0 0 0 0 0 0
4 7 2 1 10 20 2 1 8 11 8 5 6 2 0 4 6 0 0 0 0 0 2 0 0 0 0 0 0 0 0 0 0 0 0 0 0 0 0 0 0 0 0 0 0 0 0 0 0 0 0 0 0 0

GFSWCAN_con_mlcape_135.txt.gz
CAPE
12 23 21 30 18 12 13 10 20 15 9 7 16 15 20 13 11 0 0 0 0 0 0 0 0 0 0 0 0 0 0 0 0 0 0 0 0 0 0 0 0 0 0 0 0 0 0 0 0 0 0 0 0 0
4 10 18 11 14 15 5 5 6 3 5 34 28 16 18 15 9 0 0 0 0 0 0 0 0 0 0 0 0 0 0 0 0 0 0 0 0 0 0 0 0 0 0 0 0 0 0 0 0 0 0 0 0 0
3 4 1 5 0 2 0 0 2 16 5 36 25 18 3 13 9 0 0 0 0 0 0 0 0 0 0 0 0 0 0 0 0 0 0 0 0 0 0 0 0 0 0 0 0 0 0 0 0 0 0 0 0 0
2 3 4 0 0 0 0 0 4 7 6 11 12 9 8 8 15 2 0 0 0 0 0 0 0 0 0 0 0 0 0 0 0 0 0 0 0 0 0 0 0 0 0 0 0 0 0 0 0 0 0 0 0 0
1 0 1 8 9 3 6 5 3 11 10 4 8 12 13 18 17 1 0 0 0 0 0 0 0 0 0 0 0 0 0 0 0 0 0 0 0 0 0 0 0 0 0 0 0 0 0 0 0 0 0 0 0 0
2 4 6 5 2 4 9 3 4 4 4 6 5 12 11 21 2 0 0 0 0 0 0 0 0 0 0 0 0 0 0 0 0 0 0 0 0 0 0 0 0 0 0 0 0 0 0 0 0 0 0 0 0 0
1 0 4 3 2 5 0 9 1 2 3 4 10 15 15 13 0 0 0 0 0 0 0 0 0 0 0 0 0 0 0 0 0 0 0 0 0 0 0 0 0 0 0 0 0 0 0 0 0 0 0 0 0 0
0 11 2 4 9 5 1 8 0 0 4 15 18 23 13 2 0 0 0 0 0 0 0 0 0 0 0 0 0 0 0 0 0 0 0 0 0 0 0 0 0 0 0 0 0 0 0 0 0 0 0 0 0 0
0 5 15 7 6 1 6 0 16 17 19 23 21 5 0 0 0 0 0 0 0 0 0 0 0 0 0 0 0 0 0 0 0 0 0 0 0 0 0 0 0 0 0 0 0 0 0 0 0 0 0 0 0 0
5 4 11 5 6 7 0 26 11 17 9 0 0 0 0 8 10 2 0 0 0 0 0 0 0 0 0 0 0 0 0 0 0 0 0 0 0 0 0 0 0 0 0 0 0 0 0 0 0 0 0 0 0 0
13 8 6 2 14 0 16 14 17 1 0 0 6 21 9 11 3 1 0 0 0 0 0 0 0 0 0 0 0 0 0 0 0 0 0 0 0 0 0 0 0 0 0 0 0 0 0 0 0 0 0 0 0 0
5 8 6 0 10 3 4 19 1 0 0 4 6 2 12 15 5 1 0 0 0 0 0 0 0 0 0 0 0 0 0 0 0 0 0 0 0 0 0 0 0 0 0 0 0 0 0 0 0 0 0 0 0 0
6 13 11 10 0 0 9 20 0 0 0 0 11 14 4 2 1 2 0 1 4 8 31 12 7 0 0 0 0 0 0 0 0 0 0 0 0 0 0 0 0 1 0 0 0 1 0 0 0 0 0 0 5 16
0 0 4 0 0 0 9 11 3 0 0 3 4 0 0 0 0 1 15 17 9 25 41 17 14 16 0 0 0 0 0 0 0 0 0 0 0 11 6 2 0 0 0 0 0 2 13 2 3 0 2 2 1 0
0 0 0 0 0 0 15 1 0 0 0 3 3 0 0 0 0 1 6 17 10 6 13 25 11 4 3 0 0 0 0 0 0 0 0 2 15 5 11 8 0 8 0 2 1 3 2 2 3 5 3 5 1 0
2 4 0 0 0 4 8 0 0 0 0 0 0 0 0 0 3 0 0 5 5 0 2 1 5 2 1 0 3 0 0 0 0 7 38 33 8 3 20 19 48 0 20 14 6 1 2 4 2 3 3 2 2 2
2 7 0 0 0 8 6 0 0 0 0 0 0 0 0 0 0 0 0 7 3 4 3 1 3 11 1 4 4 9 4 3 1 0 0 0 0 15 40 26 80 26 19 8 5 21 2 6 3 0 0 4 4 3
13 0 0 0 2 9 1 0 0 0 0 0 0 0 0 0 0 0 0 0 0 0 0 0 0 1 3 1 3 3 6 7 3 0 0 0 14 34 101 100 23 33 3 14 28 9 0 0 0 1 2 2 2 2
0 0 0 0 4 0 0 0 0 0 0 0 0 0 0 0 0 0 0 0 0 0 1 8 2 4 1 2 3 3 6 32 31 7 5 9 37 65 66 42 42 1 5 4 6 3 0 0 0 0 0 0 0 0
0 0 2 1 3 1 0 1 1 1 0 0 0 0 0 0 0 0 0 0 8 11 7 6 1 0 0 6 6 6 20 33 23 3 13 14 2 0 5 30 29 2 0 0 0 3 0 0 0 0 0 0 0 0
0 0 0 0 0 0 0 0 2 0 0 1 0 0 5 4 3 1 1 5 3 6 1 0 0 0 0 7 55 68 23 37 55 39 0 6 37 38 29 17 11 16 20 18 0 0 0 0 0 0 0 0 0 0
1 0 0 0 0 0 1 0 0 0 1 1 3 10 4 1 4 3 4 6 6 1 0 29 31 37 38 53 29 1 0 0 0 10 24 47 41 13 12 2 4 1 1 0 0 0 0 0 0 0 0 0 0 0
0 0 0 0 1 1 0 5 2 2 3 3 5 7 6 11 11 14 1 3 13 25 28 42 49 18 4 0 0 1 0 0 0 0 0 6 13 32 59 40 41 15 15 12 8 10 11 7 12 27 2 0 0 0
0 0 1 3 4 0 2 4 1 2 2 1 0 5 3 12 9 9 8 10 0 3 13 18 9 12 18 10 5 2 1 0 0 0 0 0 0 0 4 20 32 47 57 56 53 34 26 66 33 32 1 0 0 0
1 0 1 1 0 2 3 1 1 1 0 15 4 0 5 9 3 9 2 9 0 0 7 20 39 15 15 29 22 3 0 0 0 0 0 0 0 0 0 0 0 0 0 2 14 45 63 31 13 19 3 0 0 0
1 0 0 0 0 0 0 4 14 4 4 3 4 5 3 3 7 18 31 16 16 37 63 51 35 23 17 6 13 0 0 0 0 0 0 0 0 0 0 0 0 0 0 0 5 12 0 0 0 0 0 0 0 0
1 1 0 0 0 0 1 0 0 2 7 2 0 1 2 5 21 35 30 55 76 75 55 53 59 63 14 0 0 0 0 0 0 0 0 0 0 0 0 0 0 0 0 0 0 0 0 0 0 0 0 0 0 0
0 0 0 0 0 0 0 0 0 0 0 0 0 0 0 4 12 44 64 56 53 54 41 5 2 15 0 0 0 0 0 0 0 0 0 0 0 0 0 0 0 0 0 0 0 0 0 0 0 0 0 0 0 0
0 0 0 0 0 0 0 0 0 0 0 0 0 4 27 23 21 26 34 4 1 13 1 0 0 0 0 0 0 0 0 0 0 0 0 0 0 0 0 0 0 0 0 0 0 0 0 0 0 0 0 0 0 0
7 0 0 0 0 0 1 0 0 0 0 0 0 0 0 0 0 0 0 0 1 3 0 0 0 0 0 0 0 0 0 0 0 0 0 0 0 0 0 0 0 0 0 0 0 0 0 0 0 0 0 0 0 0
5 6 7 2 3 9 6 2 4 3 4 2 0 0 0 0 0 0 0 0 0 2 1 0 1 0 0 0 0 0 0 0 0 0 0 0 0 0 0 0 0 0 0 0 0 0 0 0 0 0 0 0 0 0
15 15 15 15 11 0 5 12 14 13 14 7 8 8 2 4 1 1 0 0 6 8 9 9 7 6 0 0 0 0 0 0 0 0 0 0 0 0 0 0 0 0 0 0 0 0 0 0 0 0 0 0 0 0
15 24 28 27 36 64 41 23 26 28 20 23 15 13 7 12 0 13 7 0 4 2 2 10 9 4 2 2 0 0 0 0 0 0 0 0 0 0 0 0 0 0 0 0 0 0 0 0 0 0 1 0 0 1